     2.11           OBSERVATION DATA    G (GPS)             RINEX VERSION / TYPE
teqc 2010Oct21 OPUS Account 20111028 14:57:30UTC            PGM / RUN BY / DATE
J 1526                                                      MARKER NAME
3047                                                        MARKER NUMBER
CSMIDDLETON NGS                                             OBSERVER / AGENCY
0220390632 TRIMBLE R7 2.28                                  REC # / TYPE / VERS
11909788 TRM41249.00 NONE                                   ANT # / TYPE
  -754024.5226 -5567428.8474  3009180.9129                  APPROX POSITION XYZ
        1.9990        0.0000        0.0000                  ANTENNA: DELTA H/E/N
     1     1                                                WAVELENGTH FACT L1/2
     5    L1    L2    C1    P1    P2                        # / TYPES OF OBSERV
    15                                                      LEAP SECONDS
  2011     8    22     0     0   30.0000000     GPS         TIME OF FIRST OBS
                                                            END OF HEADER
 11  8 22  0  0 30.0000000  0  7G10G12G17G05G04G09G02
 -13039798.29356 -10048818.98454  21060668.0084                   21060666.2274
 -11074068.02356  -8585696.64554  21884491.7974                   21884489.0594
   7585675.33656   5691760.49653  23098020.7584                   23098018.8404
  -9091524.44156  -7063360.50453  22531221.3054                   22531220.1484
  -6426776.53556  -4868449.94154  21508329.8524                   21508328.9614
   3208408.37155   2792581.62952  23449810.4774                   23449809.5004
 -14209346.26257 -11012058.27755  20780862.4064                   20780857.8554
 11  8 22  0  1  0.0000000  0  8G10G25G12G17G05G04G09G02
 -13030331.53147 -10041442.27044  21062468.9924                   21062467.4804
                                  24729358.039
 -11120289.96946  -8621713.70344  21875695.4144                   21875692.9414
   7658061.34445   5748165.17243  23111794.1564                   23111794.6334
  -9164005.69546  -7119839.31244  22517427.3524                   22517426.6484
  -6330196.59046  -4793192.87944  21526709.2584                   21526707.9304
   3305025.89146   2867867.94942  23468196.4614                   23468194.7114
 -14193020.37547 -10999336.80145  20783968.8594                   20783964.4964
 11  8 22  0  1 30.0000000  0  8G10G25G12G17G05G04G09G02
 -13020219.86346 -10033563.03144  21064393.6724                   21064391.6484
   -213130.12115                  24714284.898
 -11166114.65646  -8657421.20344  21866975.7344                   21866973.1094
   7730616.50845   5804701.64543  23125602.5634                   23125600.9924
  -9236222.76246  -7176112.26244  22503685.0234                   22503683.7934
  -6233404.61746  -4717770.60544  21545128.5474                   21545127.3404
   3401917.66045   2943367.95742  23486632.9924                   23486632.9184
 -14176353.66447 -10986349.72745  20787140.4384                   20787136.1764
 11  8 22  0  2  0.0000000  0  8G10G25G12G17G05G04G09G02
 -14584896.79746 -11252791.78544  20766645.6564                   20766643.5044
  -1867641.68415                  24399440.008
 -12786975.49246  -9920429.62144  21558535.6954                   21558532.7624
   6227909.41045   4633761.04743  22839645.6954                   22839645.0234
 -10883609.44146  -8459790.09444  22190198.9454                   22190197.0164
  -7711834.27746  -5869793.73044  21263792.5784                   21263790.5904
   1923648.96145   1791470.23843  23205328.7664                   23205328.3404
 -15734781.10947 -12200708.75445  20490581.7664                   20490577.1724
 11  8 22  0  2 30.0000000  0  8G10G25G12G17G05G04G09G02
 -14573525.59447 -11243931.09844  20768809.3364                   20768807.5664
  -1946604.277 5                  24384414.195
 -12832030.73446  -9955537.56244  21549961.3284                   21549958.9654
   6300772.25045   4690537.26643  22853510.9924                   22853510.3594
 -10955321.34846  -8515669.41044  22176551.3914                   22176550.6994
  -7614657.64847  -5794071.71144  21282285.0634                   21282283.3324
   2021046.50445   1867364.36343  23223862.6884                   23223862.5044
 -15717468.11347 -12187218.10245  20493876.7344                   20493871.7544
 11  8 22  0  3  0.0000000  0  8G10G25G12G17G05G04G09G02
 -14561519.32046 -11234575.53544  20771094.0084                   20771092.3284
  -2025432.160 5                  24369413.570
 -12876693.24246  -9990339.46944  21541463.2114                   21541460.4024
   6373794.16045   4747437.43043  22867406.5394                   22867405.4614
 -11026772.13446  -8571345.23744  22162954.7584                   22162954.2624
  -7517287.63746  -5718198.97344  21300812.7034                   21300812.0314
   2118696.23445   1943454.95743  23242444.2814                   23242444.9454
 -15699829.69947 -12173473.85945  20497231.9844                   20497228.0204
 11  8 22  0  3 30.0000000  0  8G10G25G12G17G05G04G09G02
 -14548871.66046 -11224720.21144  20773500.6954                   20773499.1884
  -2104117.406 5                  24354439.531
 -12920954.93746 -10024829.07044  21533040.4064                   21533037.3204
   6446980.81645   4804465.94143  22881333.3754                   22881332.5594
 -11097953.10246  -8626810.83644  22149409.2734                   22149409.1524
  -7419721.28546  -5642173.25844  21319379.6174                   21319378.1994
   2216599.81345   2019743.40243  23261075.8594                   23261075.5744
 -15681861.30147 -12159472.50045  20500651.8984                   20500647.3594
 11  8 22  0  4  0.0000000  0  9G10G25G12G17G05G04G30G09G02
 -14535577.94146 -11214361.44944  20776030.0634                   20776028.7544
  -2182654.137 5                  24339495.016
 -12964810.19546 -10059001.96144  21524695.1254                   21524692.3524
   6520336.57845   4861626.27743  22895292.4224                   22895292.0864
 -11168858.37146  -8682061.60244  22135917.1484                   22135915.5594
  -7321956.82446  -5565993.15244  21337983.0944                   21337982.0394
  -1681784.90615                  24097257.984
   2314757.23845   2096229.67643  23279754.2894                   23279754.4574
 -15663560.21946 -12145211.89845  20504134.2894                   20504129.9414
 11  8 22  0  4 30.0000000  0  9G10G25G12G17G05G04G30G09G02
 -14521638.73446 -11203499.72344  20778682.8204                   20778681.2114
  -2261040.664 5                  24324578.000
 -13008257.44146 -10092856.93444  21516427.0474                   21516424.5984
   6593861.00045   4918918.00843  22909283.9694                   22909283.1484
 -11239485.69946  -8737095.79344  22122477.2034                   22122475.3914
  -7223997.69146  -5489661.37144  21356624.5944                   21356622.9104
  -1761699.660 5                  24082049.375
   2413164.35245   2172910.46943  23298481.2814                   23298481.1684
 -15644929.14546 -12130694.15245  20507680.0394                   20507675.4574
 11  8 22  0  5  0.0000000  0  9G10G25G12G17G05G04G30G09G02
 -14507045.04346 -11192127.98044  20781459.7344                   20781458.0864
  -2339266.21945  -1800461.94952  24309692.8984                   24309692.7974
 -13051285.68046 -10126385.40244  21508238.8054                   21508236.1484
   6667563.10545   4976348.19943  22923309.4774                   22923308.2704
 -11309823.82046  -8791904.64544  22109091.7034                   22109090.6564
  -7125837.63746  -5413173.02044  21375303.2344                   21375302.9654
  -1841383.820 5                  24066886.461
   2511826.08245   2249789.66843  23317255.1804                   23317255.2584
 -15625960.07847 -12115913.05145  20511289.4064                   20511284.9224
 11  8 22  0  5 30.0000000  0  9G10G25G12G17G05G04G30G09G02
 -14491800.18046 -11180248.85544  20784361.5004                   20784359.1524
  -2417332.34445  -1861292.54342  24294837.3984                   24294837.4844
 -13093896.69946 -10159588.75844  21500130.1954                   21500127.6454
   6741439.40645   5033914.12943  22937367.2424                   22937365.9494
 -11379873.77046  -8846488.93044  22095761.6564                   22095760.5004
  -7027482.86346  -5336532.92644  21394020.4304                   21394018.7934
  -1920838.828 5                  24051767.375
   2610734.74645   2326861.28143  23336077.2114                   23336076.6254
 -15606658.29346 -12100872.68045  20514962.5314                   20514958.1454
 11  8 22  0  6  0.0000000  0  9G10G25G12G17G05G04G30G09G02
 -14475905.32046 -11167863.22344  20787384.9614                   20787383.9574
  -2495238.02045  -1921998.24642  24280011.5004                   24280012.2344
 -13136089.57846 -10192466.31644  21492100.5314                   21492098.7624
   6815488.95745   5091615.05143  22951458.1334                   22951457.1174
 -11449634.37546  -8900847.75044  22082486.7114                   22082485.1254
  -6928937.10946  -5259744.02044  21412772.7274                   21412771.2114
  -2000063.266 5                  24036691.359
   2709885.63345   2404121.63743  23354945.7584                   23354945.0514
 -15587026.55547 -12085575.20345  20518698.3204                   20518693.4804
 11  8 22  0  6 30.0000000  0  9G10G25G12G17G05G04G30G09G02
 -14459359.14846 -11154970.08244  20790534.1804                   20790532.5984
  -2572980.41445  -1982576.67242  24265217.4614                   24265218.4384
 -13177861.43746 -10225015.78544  21484152.3524                   21484149.7974
   6889712.43445   5149451.50843  22965582.6564                   22965581.3634
 -11519102.28946  -8954978.48844  22069267.5704                   22069266.6294
  -6830201.91846  -5182807.50444  21431560.9064                   21431559.7774
  -2079054.059 5                  24021659.859
   2809275.50845   2481568.23842  23373858.0554                   23373858.4224
 -15567065.56647 -12070021.16445  20522496.5234                   20522492.0474
 11  8 22  0  7  0.0000000  0  9G10G25G12G17G05G04G30G09G02
 -14442152.86746 -11141562.55944  20793808.2194                   20793807.0204
  -2650548.70745  -2043019.40242  24250457.7034                   24250458.4494
 -13219201.48046 -10257228.79344  21476285.4694                   21476282.8914
   6964119.01645   5207430.63743  22979742.3134                   22979740.7384
 -11588266.20746  -9008872.36344  22056105.8594                   22056104.3554
  -6731271.11746  -5105718.55144  21450387.3134                   21450385.8244
  -2157800.031 5                  24006673.453
   2908909.39845   2559204.94943  23392818.3594                   23392817.9694
 -15546768.39847 -12054205.18045  20526359.1094                   20526354.6764
 11  8 22  0  7 30.0000000  0  9G10G25G12G17G05G04G30G09G02
 -14424291.72746 -11127644.77044  20797206.9924                   20797205.4064
  -2727946.24645  -2103329.06242  24235728.9454                   24235729.6954
 -13260113.49246 -10289108.26245  21468500.3364                   21468497.8834
   7038703.55145   5265548.47343  22993933.8204                   22993934.1134
 -11657128.92246  -9062531.55144  22043001.2664                   22043000.1994
  -6632152.80546  -5028483.49644  21469248.5554                   21469247.2584
  -2236304.363 5                  23991736.570
   3008778.06345   2637024.60943  23411822.7424                   23411822.3754
 -15526141.64147 -12038132.36345  20530284.5164                   20530279.7344
 11  8 22  0  8  0.0000000  0  9G10G25G12G17G05G04G30G09G02
 -14405776.77046 -11113217.48844  20800730.4224                   20800728.9024
  -2805171.80145  -2163504.75442  24221033.1024                   24221033.8984
 -13300596.20746 -10320653.22344  21460796.4844                   21460793.9344
   7113465.00445   5323804.09843  23008161.5634                   23008160.6094
 -11725689.09846  -9115954.97744  22029954.9534                   22029953.3834
  -6532850.50046  -4951105.06644  21488145.5944                   21488144.2424
  -2314565.617 5                  23976842.648
   3108876.63345   2715023.41042  23430870.5634                   23430870.7734
 -15505187.95347 -12021804.80945  20534270.8914                   20534266.7974
 11  8 22  0  8 30.0000000  0  9G10G25G12G17G05G04G30G09G02
 -14386606.73446 -11098279.78144  20804379.3834                   20804376.2234
  -2882222.30145  -2223544.03542  24206371.4384                   24206371.0314
 -13340646.63746 -10351861.34445  21453175.6254                   21453172.4774
   7188404.79345   5382198.75443  23022421.0084                   23022420.4694
 -11793943.19946  -9169139.91444  22016967.0004                   22016964.9804
  -6433365.57446  -4873584.35244  21507077.0394                   21507075.5784
  -2392580.406 5                  23961996.500
   3209202.03145   2793198.97342  23449961.8364                   23449961.7974
 -15483907.58247 -12005222.68745  20538320.3674                   20538316.6844
 11  8 22  0  9  0.0000000  0  9G10G25G12G17G05G04G30G09G02
 -14366776.94146 -11082827.96944  20808152.4774                   20808149.9694
  -2959091.16445  -2283441.74642  24191744.0234                   24191743.9694
 -13380258.31646 -10382727.57045  21445637.4064                   21445635.0314
   7263527.43045   5440735.85943  23036717.9304                   23036715.6804
 -11861884.35946  -9222080.98844  22004037.9694                   22004036.1644
  -6333696.28546  -4795919.98844  21526043.1414                   21526041.8634
  -2470341.953 5                  23947200.766
   3309755.01245   2871551.85942  23469097.0704                   23469096.5274
 -15462297.85547 -11988383.93045  20542433.5234                   20542428.8674
 11  8 22  0  9 30.0000000  0  9G10G25G12G17G05G04G30G09G02
 -14346286.56646 -11066861.41044  20812051.0554                   20812048.8164
  -3035775.40645  -2343195.62142  24177150.6644                   24177151.2464
 -13419428.70346 -10413249.92644  21438183.5704                   21438181.1524
   7338833.78945   5499416.13343  23051048.4064                   23051046.7304
 -11929509.33246  -9274775.70344  21991169.0944                   21991167.4384
  -6233844.13546  -4718113.12844  21545044.1024                   21545042.7974
  -2547846.945 5                  23932451.109
   3410532.67645   2950079.85542  23488274.3834                   23488273.5434
 -15440359.34447 -11971288.97345  20546607.5554                   20546603.3674
 11  8 22  0 10  0.0000000  0  9G10G25G12G17G05G04G30G09G02
 -14325137.59046 -11050381.67244  20816075.3204                   20816073.4844
  -3112274.44945  -2402805.19142  24162593.6174                   24162594.0274
 -13458157.11346 -10443427.90645  21430813.5004                   21430811.2274
   7414322.39846   5558238.39843  23065412.8134                   23065411.0984
 -11996817.14146  -9327223.26244  21978360.0944                   21978359.1454
  -6133813.12546  -4640166.88744  21564079.3594                   21564078.3634
  -2625094.703 5                  23917751.250
   3511529.66045   3028778.71543  23507492.7974                   23507492.3404
 -15418094.91846 -11953940.07045  20550844.8834                   20550840.6524
 11  8 22  0 10 30.0000000  0  9G10G25G12G17G05G04G30G09G02
 -14303326.43046 -11033385.93044  20820226.9064                   20820224.4614
  -3188582.64845  -2462266.09442  24148072.4694                   24148072.4964
 -13496438.05146 -10473257.17644  21423529.2584                   21423526.5234
   7489996.94945   5617205.59043  23079812.6564                   23079811.3324
 -12063801.57446  -9379418.82844  21965613.7274                   21965612.4734
  -6033602.19146  -4562080.47344  21583149.0864                   21583147.3914
  -2702079.203 5                  23903101.508
   3612745.60945   3107648.20343  23526754.6724                   23526753.1414
 -15395503.19946 -11936336.11745  20555143.7894                   20555139.5044
 11  8 22  0 11  0.0000000  0  9G10G25G12G17G05G04G30G09G02
 -14280852.79346 -11015873.96544  20824502.7194                   20824500.8754
  -3264697.49645  -2521576.28942  24133588.4144                   24133588.3754
 -13534269.12546 -10502735.93045  21416329.5864                   21416327.8324
   7565858.27046   5676318.27343  23094250.0084                   23094247.4104
 -12130460.06646  -9431360.43444  21952929.0084                   21952927.6174
  -5933213.62546  -4483855.64144  21602252.7424                   21602251.0274
  -2778797.695 5                  23888503.781
   3714176.80145   3186685.41442  23546055.2504                   23546054.8404
 -15372585.01647 -11918477.79345  20559505.3754                   20559500.3404
 11  8 22  0 11 30.0000000  0  9G10G25G12G17G05G04G30G09G02
 -14257716.79346 -10997845.88744  20828905.3284                   20828903.3054
  -3340617.21545  -2580734.40242  24119141.0164                   24119141.9534
 -13571648.93446 -10531863.02045  21409216.7194                   21409214.1844
   7641905.78146   5735576.02743  23108720.4144                   23108719.1414
 -12196790.42246  -9483046.33644  21940306.4304                   21940305.5004
  -5832650.10546  -4405494.47344  21621389.7424                   21621387.5394
  -2855248.20315                  23873954.398
   3815819.27745   3265887.27342  23565397.7344                   23565397.6024
 -15349342.39147 -11900366.64845  20563928.1174                   20563923.7814
 11  8 22  0 12  0.0000000  0  9G10G25G12G17G05G04G30G09G02
 -14233920.23046 -10979303.09044  20833433.5084                   20833432.0474
  -3416341.05545  -2639739.91042  24104731.2424                   24104731.4804
 -13608577.05146 -10560638.15245  21402190.5164                   21402187.3404
   7718138.31646   5794977.97743  23123228.5234                   23123226.1134
 -12262791.59846  -9534475.73844  21927747.0314                   21927745.5594
  -5731915.79346  -4327000.24244  21640558.1644                   21640557.1374
  -2931429.746 5                  23859457.836
   3917667.61345   3345249.55942  23584777.7814                   23584779.5634
 -15325778.28547 -11882005.00445  20568412.1254                   20568407.6954
 11  8 22  0 12 30.0000000  0  9G10G25G12G17G05G04G30G09G02
 -14209458.67646 -10960242.11744  20838088.8204                   20838086.3444
  -3491862.05545  -2698587.39542  24090360.5944                   24090360.0234
 -13645046.78146 -10589056.09045  21395249.6644                   21395246.6684
   7794560.95746   5854528.05143  23137771.2114                   23137769.5704
 -12328456.18446  -9585642.87544  21915252.2424                   21915250.0004
  -5631008.05546  -4248370.87544  21659759.7274                   21659758.4804
  -3007335.219 5                  23845012.156
   4019722.75445   3424772.96942  23604198.5314                   23604199.6804
 -15301889.57846 -11863390.42645  20572958.1174                   20572953.5164
 11  8 22  0 13  0.0000000  0  9G10G25G12G17G05G04G30G09G02
 -14184334.90646 -10940665.12144  20842869.3444                   20842867.4804
  -3567181.16845  -2757277.50443  24076028.1024                   24076027.9924
 -13681059.26646 -10617117.74645  21388397.0004                   21388394.2154
   7871170.86346   5914224.03943  23152349.2034                   23152348.0784
 -12393784.89146  -9636548.27344  21902819.5084                   21902818.4454
  -5529932.29346  -4169610.58644  21678994.4224                   21678993.0704
  -3082965.117 5                  23830621.328
   4121977.76645   3504452.14842  23623658.1724                   23623658.2034
 -15277680.68046 -11844526.35245  20577564.6954                   20577560.0634
 11  8 22  0 13 30.0000000  0  9G10G25G12G17G05G04G30G09G02
 -14158547.41046 -10920570.94944  20847776.5944                   20847774.2814
  -3642293.82445  -2815806.77342  24061733.6954                   24061734.8014
 -13716610.15246 -10644819.70345  21381632.4844                   21381628.9734
   7947970.23046   5974067.66443  23166962.8204                   23166962.2464
 -12458773.41446  -9687188.60944  21890452.8834                   21890451.6764
  -5428688.89846  -4090719.64844  21698261.0084                   21698259.0664
  -3158314.848 5                  23816282.555
   4224431.19545   3584285.88342  23643153.5164                   23643154.6214
 -15253150.93446 -11825412.25445  20582232.6254                   20582228.5824
 11  8 22  0 14  0.0000000  0  9G10G25G12G17G05G04G30G09G02
 -14132093.83246 -10899957.75044  20852810.5634                   20852808.2544
  -3717195.54345  -2874171.66443  24047481.2194                   24047482.0984
 -13751695.30546 -10672158.75444  21374955.6484                   21374952.8794
   8024961.42246   6034060.75443  23181614.2814                   23181613.2974
 -12523416.68446  -9737559.89844  21878151.6094                   21878149.9304
  -5327278.14146  -4011698.29344  21717558.4304                   21717557.4104
  -3233379.648 5                  23801997.508
   4327081.59445   3664273.16043  23662686.8594                   23662687.9414
 -15228299.54346 -11806047.53945  20586961.1094                   20586957.0124
 11  8 22  0 14 30.0000000  0  9G10G25G12G17G05G04G30G09G02
 -14104974.20746 -10878825.55544  20857970.8524                   20857969.2154
  -3791884.51646  -2932370.77042  24033267.8364                   24033268.6484
 -13786313.04746 -10699133.59045  21368367.3524                   21368364.9884
   8102144.68046   6094203.48843  23196302.1334                   23196300.7974
 -12587712.51246  -9787660.45744  21865916.9144                   21865915.0784
  -5225702.16046  -3932548.19144  21736887.6644                   21736886.5204
  -3308157.363 5                  23787768.539
   4429925.01645   3744410.82842  23682258.4224                   23682259.4304
 -15203128.31646 -11786433.59045  20591752.2814                   20591747.0164
 11  8 22  0 15  0.0000000  0  9G10G25G12G17G05G04G30G09G02
 -14077190.53146 -10857175.91844  20863258.0554                   20863256.1294
  -3866359.43445  -2990403.07842  24019095.5234                   24019096.0164
 -13820462.43746 -10725743.47745  21361869.7274                   21361866.7034
   8179518.76246   6154494.94143  23211025.9304                   23211023.9064
 -12651659.09846  -9837488.89844  21853747.1804                   21853746.5204
  -5123964.66046  -3853272.23844  21756248.1024                   21756246.4574
  -3382646.809 5                  23773593.141
   4532956.54745   3824695.06642  23701866.2114                   23701865.0164
 -15177639.95746 -11766572.53145  20596602.0164                   20596597.3954
 11  8 22  0 15 30.0000000  0  9G10G25G12G17G05G04G30G09G02
 -14048739.22346 -10835006.04344  20868672.3444                   20868670.1604
  -3940614.39846  -3048263.98443  24004965.6254                   24004966.0824
 -13854138.03546 -10751984.18745  21355460.3054                   21355458.0394
   8257087.93846   6214938.39843  23225786.9844                   23225784.7774
 -12715250.94146  -9887040.92244  21841646.9774                   21841645.0164
  -5022064.21146  -3773869.30944  21775638.5634                   21775637.8404
  -3456841.41815                  23759472.680
   4636176.23045   3905125.93042  23721506.4304                   23721507.1414
 -15151832.09446 -11746462.49645  20601512.7814                   20601508.3634
 11  8 22  0 16  0.0000000  0  9G10G25G12G17G05G04G30G09G02
 -14019624.64846 -10812319.34844  20874212.5004                   20874210.5824
  -4014651.46145  -3105955.07043  23990875.9064                   23990877.7114
 -13887342.24246 -10777857.56644  21349142.3284                   21349139.7974
   8334847.76246   6275530.44143  23240584.3674                   23240582.2114
 -12778489.64146  -9936317.76244  21829612.6094                   21829610.6644
  -4920007.31646  -3694344.48044  21795059.6644                   21795058.9534
  -3530743.387 5                  23745410.781
   4739575.89845   3985697.03543  23741183.8914                   23741182.8794
 -15125710.72747 -11726108.18445  20606483.5474                   20606478.9024
 11  8 22  0 16 30.0000000  0  9G10G25G12G17G05G04G30G09G02
 -13989845.06646 -10789114.45744  20879879.7274                   20879877.8554
  -4088465.91045  -3163472.77742  23976830.2424                   23976830.3204
 -13920070.56646 -10803360.14145  21342914.3054                   21342911.5984
   8412801.15246   6336273.31343  23255419.0314                   23255416.3404
 -12841370.23046  -9985315.55144  21817646.6484                   21817645.2504
  -4817794.14846  -3614697.88344  21814510.2194                   21814508.6914
  -3604347.680 5                  23731404.250
   4843154.18045   4066407.30543  23760893.7814                   23760893.3714
 -15099274.95747 -11705508.87145  20611513.9144                   20611509.3244
 11  8 22  0 17  0.0000000  0  9G10G25G12G17G05G04G30G09G02
 -13959394.28546 -10765386.56245  20885674.0234                   20885671.7664
  -4162049.18445  -3220810.30943  23962826.9384                   23962827.2974
 -13952314.98846 -10828485.65645  21336778.4774                   21336775.7774
   8490954.37145   6397171.90643  23270290.4304                   23270288.9654
 -12903883.87946 -10034027.41444  21805750.6254                   21805749.1094
  -4715420.28546  -3534926.07044  21833991.6724                   21833989.9264
  -3677645.406 5                  23717457.727
   4946913.71145   4147258.80943  23780637.8984                   23780639.2424
 -15072519.81646 -11684660.69945  20616606.1804                   20616600.9224
 11  8 22  0 17 30.0000000  0  9G10G25G12G17G05G04G30G09G02
 -13928279.87946 -10741141.55544  20891594.6884                   20891592.8284
  -4235406.07445  -3277971.44542  23948867.5554                   23948868.2934
 -13984080.62146 -10853238.07445  21330733.4384                   21330730.5744
   8569300.20345   6458220.54343  23285198.6414                   23285197.3914
 -12966035.13346 -10082456.89844  21793924.3204                   21793922.1764
  -4612895.48846  -3455036.64544  21853500.9144                   21853499.5234
  -3750641.406 5                  23703565.961
   5050843.44545   4228242.89143  23800416.2504                   23800416.5394
 -15045454.15247 -11663570.56245  20621755.2274                   20621751.3404
 11  8 22  0 18  0.0000000  0  9G10G25G12G17G05G04G30G09G02
 -13896498.38747 -10716376.73844  20897642.6804                   20897640.8794
  -4308530.62945  -3334951.49643  23934952.2814                   23934953.7664
 -14015361.95746 -10877613.14145  21324781.8674                   21324778.3634
   8647843.02745   6519422.69943  23300145.2114                   23300144.5664
 -13027818.12546 -10130599.43044  21782167.3134                   21782165.2544
  -4510218.06646  -3375028.29344  21873040.1254                   21873038.6804
  -3823329.207 5                  23689732.563
   5154943.81645   4309359.94542  23820226.4454                   23820226.6214
 -15018075.50046 -11642236.54345  20626966.0314                   20626961.1524
 11  8 22  0 18 30.0000000  0  9G10G25G12G17G05G04G30G09G02
 -13864054.04746 -10691095.41444  20903817.2424                   20903815.0164
  -4381424.10246  -3391751.51643  23921081.9694                   23921082.3484
 -14046161.05546 -10901612.42645  21318920.0314                   21318917.5124
   8726579.53546   6580775.76243  23315127.7194                   23315126.5274
 -13089233.67246 -10178455.63744  21770479.7974                   21770478.4304
  -4407393.89546  -3294905.57044  21892606.8134                   21892605.4654
  -3895710.137 5                  23675959.789
   5259207.10545   4390604.00442  23840066.1954                   23840066.8554
 -14990389.20346 -11620662.79745  20632234.2274                   20632229.7814
 11  8 22  0 19  0.0000000  0  9G10G25G12G17G05G04G30G09G02
 -13830943.20747 -10665294.75044  20910116.9774                   20910115.3834
  -4454080.34046  -3448366.72743  23907256.2894                   23907255.6094
 -14076471.49647 -10925230.94945  21313151.7814                   21313149.4804
   8805513.67646   6642282.87543  23330148.1334                   23330147.3674
 -13150275.80146 -10226020.87944  21758864.0704                   21758862.1134
  -4304421.54746  -3214667.39144  21912202.0554                   21912200.3444
  -3967777.816 5                  23662246.258
   5363633.50445   4471975.07042  23859938.8444                   23859939.5744
 -14962392.82046 -11598847.41445  20637562.2814                   20637557.1254
 11  8 22  0 19 30.0000000  0  9G10G25G12G17G05G04G30G09G02
 -13797167.50047 -10638975.99644  20916544.9924                   20916542.9534
  -4526498.05945  -3504796.06242  23893473.8594                   23893474.7194
 -14106292.43446 -10948468.03945  21307477.5864                   21307474.5394
   8884644.60546   6703943.28543  23345206.0864                   23345205.5084
 -13210942.82046 -10273293.80544  21747319.5164                   21747317.7114
  -4201304.06646  -3134316.14544  21931824.7114                   21931823.3794
  -4039530.582 5                  23648592.016
   5468218.44145   4553469.73442  23879839.8524                   23879841.1374
 -14934088.76646 -11576792.30145  20642948.6644                   20642943.1914
 11  8 22  0 20  0.0000000  0  9G10G25G12G17G05G04G30G09G02
 -13762728.94547 -10612140.74644  20923097.9534                   20923096.0594
  -4598676.38746  -3561038.81243  23879740.1094                   23879740.2194
 -14135623.78946 -10971323.62545  21301895.7734                   21301893.2464
   8963970.94945   6765755.98842  23360302.4064                   23360300.4064
 -13271233.96946 -10320273.86344  21735846.1484                   21735844.3554
  -4098045.06246  -3053854.57044  21951474.4534                   21951472.9224
  -4110967.668 5                  23634997.984
   5572956.77745   4635083.87942  23899770.4534                   23899771.4884
 -14905480.25446 -11554499.94945  20648392.5474                   20648387.8754
 11  8 22  0 20 30.0000000  0  9G10G25G12G17G05G04G30G09G02
 -13727630.14547 -10584791.02744  20929777.5554                   20929775.4224
  -4670615.30545  -3617095.03543  23866049.1644                   23866050.7274
 -14164466.01246 -10993798.06645  21296407.5474                   21296404.7274
   9043490.49246   6827719.23043  23375433.8754                   23375432.3244
 -13331148.72346 -10366960.61744  21724444.9534                   21724442.8674
  -3994649.17646  -2973286.35244  21971149.7584                   21971147.9104
  -4182088.516 5                  23621463.805
   5677842.61345   4716812.99642  23919730.0314                   23919730.0434
 -14876570.96146 -11531973.21145  20653893.3984                   20653888.5274
 11  8 22  0 21  0.0000000  0  9G10G25G12G17G05G04G30G09G02
 -13691863.33246 -10556920.77344  20936583.3444                   20936580.9064
  -4742303.87145  -3672956.21543  23852407.1884                   23852408.5354
 -14192808.43746 -11015883.05945  21291014.7664                   21291011.5474
   9123212.24245   6889840.05543  23390604.3284                   23390603.9224
 -13390676.16846 -10413345.57444  21713116.8444                   21713115.3284
  -3891110.03146  -2892606.53143  21990852.8674                   21990851.5084
  -4252882.340 5                  23607993.234
   5782880.82845   4798660.89142  23939718.0944                   23939717.6564
 -14847353.85946 -11509206.63745  20659452.5864                   20659448.5354
 11  8 22  0 21 30.0000000  0  9G10G25G12G17G05G04G30G09G02
 -13655434.51646 -10528534.66844  20943515.2664                   20943513.4414
  -4813745.29346  -3728624.78943  23838813.2814                   23838813.6094
 -14220654.94146 -11037581.62545  21285715.2734                   21285712.5314
   9203131.07046   6952114.43043  23405813.2664                   23405811.1334
 -13449819.33246 -10459431.09844  21701861.8984                   21701860.6724
  -3787435.17646  -2811820.96543  22010580.7114                   22010579.7894
  -4323351.961 5                  23594581.570
   5888062.24245   4880620.28942  23959734.3284                   23959734.0634
 -14817835.68046 -11486205.45745  20665070.1174                   20665065.6174
 11  8 22  0 22  0.0000000  0  9G10G25G12G17G05G04G30G09G02
 -13618342.80946 -10499632.03944  20950573.8524                   20950571.3674
  -4884935.73045  -3784097.78943  23825265.7974                   23825266.5084
 -14248002.21546 -11058891.17645  21280510.3204                   21280508.0784
   9283248.14546   7014543.32443  23421058.7504                   23421057.1134
 -13508574.60246 -10505214.35944  21690681.1484                   21690679.6174
  -3683625.39546  -2730930.23843  22030335.4614                   22030333.9454
  -4393493.44945  -3399837.52753  23581234.8204                   23581231.2814
   5993384.58245   4962689.52742  23979776.6644                   23979776.4804
 -14788016.80547 -11462969.97345  20670744.9924                   20670740.2384
 11  8 22  0 22 30.0000000  0  9G10G25G12G17G05G04G30G09G02
 -13580591.64146 -10470215.53944  20957757.2894                   20957755.4414
  -4955875.91446  -3839375.82443  23811765.9224                   23811767.2544
 -14274851.62946 -11079812.78944  21275401.7894                   21275398.8484
   9363561.01646   7077124.74243  23436341.8594                   23436340.7664
 -13566942.24246 -10550695.57444  21679574.7344                   21679573.0274
  -3579685.78946  -2649938.35943  22050114.3284                   22050113.2384
  -4463307.29745  -3454237.93042  23567949.3914                   23567946.1764
   6098841.23445   5044863.43842  23999843.9694                   23999844.0394
 -14757901.75847 -11439503.69545  20676474.9384                   20676470.5234
 11  8 22  0 23  0.0000000  0  9G10G25G12G17G05G04G30G09G02
 -13542177.84046 -10440282.69144  20965067.7344                   20965066.0314
  -5026559.38345  -3894453.76243  23798315.4534                   23798316.7074
 -14301196.96146 -11100341.59445  21270388.2814                   21270385.6764
   9444073.75446   7139861.87543  23451662.7974                   23451660.8484
 -13624916.06646 -10595869.91445  21668542.2974                   21668541.5004
  -3475614.32846  -2568843.73043  22069917.9534                   22069917.4224
  -4532786.88345  -3508377.74242  23554727.4924                   23554725.2344
   6204432.68445   5127142.44942  24019936.9384                   24019937.7734
 -14727487.82047 -11415804.53145  20682262.8204                   20682258.5354
 11  8 22  0 23 30.0000000  0  9G10G25G12G17G05G04G30G09G02
 -13503101.55146 -10409833.63744  20972503.3364                   20972501.4534
  -5096983.17646  -3949329.46143  23784915.0234                   23784914.4104
 -14327036.08646 -11120475.96545  21265471.2894                   21265468.5354
   9524787.34845   7202755.56643  23467022.1094                   23467020.7664
 -13682493.12546 -10640735.09844  21657585.9774                   21657584.3284
  -3371412.76646  -2487647.73844  22089747.6414                   22089747.0084
  -4601929.29745  -3562254.93442  23541570.7274                   23541567.7464
   6310155.55545   5209523.68842  24040055.0634                   24040055.7664
 -14696776.03546 -11391873.27345  20688107.8444                   20688102.7894
 11  8 22  0 24  0.0000000  0  9G10G25G12G17G05G04G30G09G02
 -13463366.83646 -10378871.52044  20980064.6414                   20980062.6254
  -5167148.41046  -4004003.61743  23771561.5554                   23771563.2034
 -14352370.60546 -11140217.12945  21260650.6724                   21260647.7504
   9605698.30946   7265803.05143  23482418.4534                   23482417.4734
 -13739674.10946 -10685291.63744  21646704.5394                   21646703.2074
  -3267086.52746  -2406354.58644  22109600.5784                   22109599.4024
  -4670735.22345  -3615869.93042  23528476.8134                   23528474.8134
   6416003.28945   5292002.40642  24060198.8594                   24060198.7194
 -14665770.99647 -11367713.50845  20694007.1484                   20694002.7344
 11  8 22  0 24 30.0000000  0  9G10G25G12G17G05G04G30G09G02
 -13422967.41846 -10347391.46544  20987752.5234                   20987750.5004
  -5237045.62545  -4058468.93043  23758262.0004                   23758262.1764
 -14377191.49646 -11159558.05145  21255926.8134                   21255924.4144
   9686814.13346   7329010.11743  23497854.9774                   23497853.7974
 -13796449.58246 -10729532.20745  21635900.0784                   21635899.2384
  -3162630.77046  -2324960.51244  22129477.4614                   22129476.9534
  -4739195.14845  -3669215.23842  23515449.1174                   23515447.3674
   6521978.85545   5374580.66042  24080364.8444                   24080364.7774
 -14634467.42246 -11343321.12145  20699963.7814                   20699959.7544
 11  8 22  0 25  0.0000000  0  9G10G25G12G17G05G04G30G09G02
 -13381907.94946 -10315397.06244  20995566.3984                   20995563.7774
  -5306676.40646  -4112726.65243  23745011.1884                   23745010.8404
 -14401501.32046 -11178500.76645  21251300.2424                   21251298.4454
   9768130.94946   7392373.81643  23513329.7734                   23513328.7664
 -13852821.30946 -10773458.16445  21625173.2894                   21625171.9384
  -3058051.30946  -2243470.03944  22149378.6094                   22149377.7384
  -4807310.54745  -3722292.13742  23502487.3754                   23502485.6214
   6628074.85245   5457252.75842  24100554.1564                   24100554.6214
 -14602870.91447 -11318700.47745  20705976.3594                   20705972.6764
 11  8 22  0 25 30.0000000  0  9G10G25G12G17G05G04G30G09G02
 -13340191.53146 -10282890.75844  21003504.1174                   21003502.1914
  -5376040.50445  -4166776.56643  23731810.4224                   23731811.9694
 -14425300.21546 -11197045.34044  21246772.4224                   21246769.7234
   9849646.39545   7455892.33243  23528841.5394                   23528839.8674
 -13908789.25846 -10817069.48844  21614523.2034                   21614521.1414
  -2953352.33646  -2161886.44144  22169302.0784                   22169300.6994
  -4875080.93445  -3775100.18743  23489591.7584                   23489588.7464
   6734285.82445   5540014.52042  24120764.4924                   24120765.2034
 -14570984.83647 -11293854.19945  20712044.6174                   20712039.9774
 11  8 22  0 26  0.0000000  0  9G10G25G12G17G05G04G30G09G02
 -13297816.21546 -10249871.02344  21011568.1254                   21011566.3094
  -5445132.86346  -4220614.71543  23718663.8054                   23718663.9224
 -14448583.98447 -11215188.51245  21242341.1024                   21242338.6094
   9931363.72745   7519568.12943  23544392.6414                   23544390.5234
 -13964347.97346 -10860361.93444  21603949.9774                   21603948.9304
  -2848533.49246  -2080209.44944  22189247.9384                   22189247.1454
  -4942501.17245  -3827635.41042  23476762.0394                   23476759.1294
   6840610.60945   5622864.87142  24140999.4534                   24140997.9494
 -14538808.13747 -11268781.45345  20718167.6884                   20718163.2074
 11  8 22  0 26 30.0000000  0  9G10G25G12G17G05G04G30G09G02
 -13254786.53946 -10216341.40644  21019755.8054                   21019754.5164
  -5513954.85546  -4274242.21143  23705566.9614                   23705567.9104
 -14471354.49647 -11232931.75045  21238008.4614                   21238005.3404
  10013279.46545   7583398.53143  23559978.5554                   23559978.3404
 -14019498.96146 -10903336.68045  21593455.8054                   21593453.9534
  -2743600.37546  -1998443.42643  22209216.1414                   22209215.1994
  -5009572.45745  -3879898.75442  23463998.2274                   23463996.2704
   6947041.70345   5705798.12942  24161251.3674                   24161251.9844
 -14506345.77347 -11243486.11345  20724344.9534                   20724340.4414
 11  8 22  0 27  0.0000000  0  9G10G25G12G17G05G04G30G09G02
 -13211102.47746 -10182301.86744  21028069.2504                   21028067.4884
  -5582503.18046  -4327656.43743  23692522.3524                   23692523.6764
 -14493609.15247 -11250273.02045  21233772.9304                   21233771.0514
  10095394.68445   7647384.33243  23575603.9224                   23575604.2584
 -14074238.76646 -10945991.01244  21583038.9534                   21583037.4144
  -2638553.93746  -1916589.07443  22229205.6414                   22229205.1414
  -5076291.32445  -3931887.40242  23451301.8054                   23451299.6134
   7053576.50045   5788812.15643  24181525.1884                   24181525.7304
 -14473598.69547 -11217968.92245  20730577.1414                   20730572.1844
 11  8 22  0 27 30.0000000  0  9G10G25G12G17G05G04G30G09G02
 -13166761.99646 -10147750.85544  21036506.3284                   21036504.9384
  -5650772.60246  -4380853.34843  23679531.6804                   23679532.0434
 -14515343.50846 -11267208.86744  21229637.7584                   21229634.9414
  10177711.98445   7711527.63743  23591269.7974                   23591269.0234
 -14128562.21546 -10988320.91445  21572701.2974                   21572699.7074
  -2533393.71546  -1834646.06243  22249217.5314                   22249216.3444
  -5142652.45345  -3983597.30943  23438673.9224                   23438671.7034
   7160214.52045   5871906.59842  24201817.2814                   24201818.5124
 -14440565.73447 -11192228.96945  20736862.7034                   20736858.1254
 11  8 22  0 28  0.0000000  0  9G10G25G12G17G05G04G30G09G02
 -13121765.48046 -10112688.61344  21045069.0474                   21045067.4304
  -5718760.44546  -4433830.84843  23666593.1564                   23666593.9614
 -14536555.50846 -11283737.69145  21225601.1334                   21225598.3954
  10260232.34445   7775829.14143  23606972.3444                   23606971.6914
 -14182467.00847 -11030324.60245  21562443.3364                   21562441.6884
  -2428121.36346  -1752615.68743  22269250.2814                   22269249.7504
  -5208653.08645  -4035026.33243  23426114.3984                   23426112.5784
   7266952.33645   5955078.81642  24222128.3364                   24222129.8524
 -14407247.68047 -11166266.85545  20743202.6254                   20743198.2114
 11  8 22  0 28 30.0000000  0  9G10G25G12G17G05G04G30G09G02
 -13076116.65646 -10077118.09444  21053756.0554                   21053754.2194
  -5786466.55146  -4486588.78943  23653709.3834                   23653709.6294
 -14557245.54746 -11299859.78945  21221664.1254                   21221660.7194
  10342953.44945   7840287.06343  23622714.3984                   23622713.2304
 -14235952.93046 -11072001.87545  21552265.4144                   21552263.8484
  -2322741.00046  -1670501.14843  22289302.8364                   22289302.3874
  -5274292.86345  -4086174.14542  23413622.7114                   23413620.7934
   7373784.19545   6038324.28942  24242458.6254                   24242459.9064
 -14373648.32447 -11140085.54745  20749596.3524                   20749591.5044
 11  8 22  0 29  0.0000000  0  9G10G25G12G17G05G04G30G09G02
 -13029812.12547 -10041036.64544  21062567.6884                   21062565.8244
  -5853884.15646  -4539121.94143  23640880.8444                   23640881.7624
 -14577407.86347 -11315570.68045  21217827.3754                   21217824.4884
  10425879.98845   7904905.09843  23638494.7194                   23638494.1374
 -14289013.21946 -11113347.50445  21542168.3054                   21542166.2464
  -2217250.07846  -1588300.46543  22309377.9304                   22309377.1294
  -5339564.89845  -4137035.41043  23401202.7114                   23401200.1134
   7480710.81645   6121643.66442  24262805.9144                   24262807.0434
 -14339764.89547 -11113682.88745  20756044.8444                   20756040.0824
 11  8 22  0 29 30.0000000  0  9G10G25G12G17G05G04G30G09G02
 -12982851.39846 -10004443.86344  21071503.6644                   21071501.6684
  -5921009.37146  -4591427.25043  23628106.5004                   23628107.5004
 -14597039.15647 -11330867.79345  21214091.1254                   21214088.6334
  10509013.43445   7969684.33643  23654314.9304                   23654315.0354
 -14341644.04346 -11154358.48045  21532152.5634                   21532151.0704
  -2111649.25046  -1506014.14143  22329473.2504                   22329471.4144
  -5404465.18445  -4187607.03142  23388852.7194                   23388850.4414
   7587730.23445   6205035.34042  24283171.3984                   24283171.6954
 -14305597.05147 -11087058.59845  20762545.7894                   20762541.6134
 11  8 22  0 30  0.0000000  0  9G10G25G12G17G05G04G30G09G02
 -12935244.70746  -9967347.74244  21080562.4064                   21080561.1054
  -5987849.27746  -4643510.22343  23615388.7814                   23615387.7234
 -14616147.44147 -11345757.35945  21210455.2344                   21210452.3364
  10592344.66445   8034617.72743  23670173.1094                   23670171.4064
 -14393852.51647 -11195040.35945  21522217.9694                   21522216.4774
  -2005949.95746  -1423651.08243  22349586.2584                   22349585.7854
  -5469000.80545  -4237894.46543  23376571.5084                   23376569.8484
   7694829.50445   6288489.12942  24303551.1094                   24303551.2734
 -14271156.18747 -11060221.56245  20769099.8444                   20769095.8134
 11  8 22  0 30 30.0000000  0  9G10G25G12G17G05G04G30G09G02
 -12886986.12546  -9929743.65644  21089746.9844                   21089744.5164
  -6054394.71146  -4695363.75843  23602724.2894                   23602725.1914
 -14634724.37146 -11360232.88745  21206919.9384                   21206917.1564
  10675880.41045   8099710.42643  23686068.5234                   23686067.0594
 -14445629.73847 -11235386.19945  21512364.6024                   21512363.5554
  -1900147.27046  -1341207.47344  22369720.1254                   22369719.0434
  -5533162.29746  -4287890.37943  23364363.3754                   23364359.9804
   7802011.77745   6372007.70742  24323947.8984                   24323947.7384
 -14236436.77746 -11033167.47345  20775706.6954                   20775702.3364
 11  8 22  0 31  0.0000000  0  9G10G25G12G17G05G04G30G09G02
 -12838080.73046  -9891635.55544  21099052.4844                   21099050.9304
  -6120647.02746  -4746988.88343  23590117.2894                   23590117.5824
 -14652771.89847 -11374295.89845  21203485.4534                   21203482.9384
  10759616.98446   8164959.67243  23702003.8054                   23702001.7664
 -14496977.09046 -11275397.07045  21502593.8204                   21502592.6724
  -1794247.21546  -1258687.97343  22389872.7274                   22389871.2234
  -5596950.95745  -4337595.76642  23352222.9304                   23352221.5904
   7909269.68845   6455585.16042  24344358.4844                   24344358.0634
 -14201444.48847 -11005900.75445  20782365.9844                   20782361.0984
 11  8 22  0 31 30.0000000  0  9G10G25G12G17G05G04G30G09G02
 -12788526.86346  -9853022.12944  21108481.9774                   21108480.6094
  -6186600.96146  -4798381.52043  23577566.5864                   23577566.3444
 -14670285.91447 -11387943.19545  21200153.8204                   21200149.8244
  10843557.75446   8230367.99643  23717977.4614                   23717975.5474
 -14547889.60247 -11315069.10945  21492905.9534                   21492903.9384
  -1688248.56646  -1176091.62943  22410043.2114                   22410042.2974
  -5660361.57445  -4387006.56642  23340156.2584                   23340154.7344
   8016602.56645   6539221.12142  24364783.0234                   24364784.5864
 -14166177.53547 -10978420.00845  20789076.6334                   20789072.6884
 11  8 22  0 32  0.0000000  0  9G10G25G12G17G05G04G30G09G02
 -12738323.00847  -9813902.25044  21118036.5474                   21118034.3674
  -6252251.34046  -4849537.60543  23565073.1334                   23565073.3404
 -14687261.89546 -11401171.23845  21196922.7584                   21196919.7074
  10927705.18845   8295937.37143  23733990.1884                   23733988.5394
 -14598362.03547 -11354398.22345  21483301.2194                   21483299.6134
  -1582150.45346  -1093417.78143  22430233.0554                   22430232.0234
  -5723388.72745  -4436118.59843  23328162.8134                   23328161.2544
   8124009.68845   6622914.75442  24385221.6414                   24385223.9844
 -14130634.79747 -10950724.35945  20795840.3594                   20795835.8874
 11  8 22  0 32 30.0000000  0  9G10G25G12G17G05G04G30G09G02
 -12687469.52046  -9774276.13744  21127712.9774                   21127711.4104
  -6317594.92646  -4900454.65243  23552639.7974                   23552640.0354
 -14703697.14547 -11413977.93445  21193794.8524                   21193792.4534
  11012060.25045   8361668.54743  23750041.6804                   23750041.0704
 -14648391.00447 -11393381.78545  21473781.0314                   21473778.7774
  -1475954.02046  -1010667.33243  22450441.3204                   22450440.8524
  -5786029.07045  -4484929.18043  23316243.0084                   23316241.4774
   8231488.62145   6706664.43042  24405674.6884                   24405676.8164
 -14094816.66047 -10922814.11745  20802656.2664                   20802652.3594
 11  8 22  0 33  0.0000000  0  9G10G25G12G17G05G04G30G09G02
 -12635968.09047  -9734145.15644  21137513.1334                   21137511.4104
  -6382630.13346  -4951131.39143  23540262.2424                   23540264.2774
 -14719591.15246 -11426362.87545  21190770.4844                   21190768.0204
  11096622.91046   8427561.45343  23766133.8284                   23766132.1684
 -14697975.43046 -11432018.96145  21464345.1094                   21464343.7384
  -1369662.17246   -927842.53543  22470668.5864                   22470667.0274
  -5848281.10945  -4533437.20742  23304396.6564                   23304394.2774
   8339034.99245   6790466.67642  24426140.5394                   24426142.6024
 -14058725.65647 -10894691.25445  20809524.1564                   20809519.6804
 11  8 22  0 33 30.0000000  0  9G10G25G12G17G05G04G30G09G02
 -12583820.40246  -9693510.60244  21147436.4534                   21147435.0084
  -6447355.10246  -5001566.40643  23527946.6484                   23527946.9844
 -14734943.18047 -11438325.50845  21187849.2584                   21187846.3794
  11181392.15245   8493615.38342  23782264.1254                   23782262.5434
 -14747113.82446 -11470308.56645  21454994.7894                   21454992.6564
  -1263276.93046   -844944.94943  22490912.7274                   22490912.0394
  -5910142.66445  -4581641.03143  23292624.9454                   23292622.4614
   8446644.81645   6874318.34042  24446618.2424                   24446619.2464
 -14022363.81247 -10866357.34045  20816443.8524                   20816439.1214
 11  8 22  0 34  0.0000000  0  9G10G25G12G17G05G04G30G09G02
 -14106448.77046 -10879974.25844  20857690.4844                   20857687.8134
  -8087192.11746  -6279361.45343  23215895.8204                   23215896.6374
 -16325174.90647 -12677467.12945  20885238.0944                   20885235.0704
   9690948.59045   7332230.73442  23498642.5314                   23498640.3834
 -16371228.06247 -12735852.08245  21145935.8674                   21145933.7234
  -2732219.41446  -1989575.46943  22211382.7274                   22211381.6094
  -7547035.97345  -5857142.27343  22981135.0634                   22981133.1054
   6978895.54745   5730617.48042  24167313.7424                   24167315.9734
 -15561153.98847 -12065414.61345  20523621.5394                   20523617.0594
 11  8 22  0 34 30.0000000  0  9G10G25G12G17G05G04G30G09G02
 -14053019.42646 -10838341.00044  20867857.0864                   20867855.4454
  -8151296.07046  -6329312.55943  23203697.0394                   23203697.4844
 -16339445.04747 -12688586.72745  20882522.5554                   20882519.7234
   9776125.08645   7398601.96542  23514852.1644                   23514848.9884
 -16419474.14547 -12773446.38745  21136754.3754                   21136752.6134
  -2625660.23846  -1906542.37143  22231660.6414                   22231658.5354
  -7608116.07045  -5904737.12543  22969511.3914                   22969509.9184
   7086614.91445   5814554.52342  24187814.7504                   24187814.2464
 -15524261.80147 -12036667.44945  20530641.9694                   20530637.6524
 11  8 22  0 35  0.0000000  0  9G10G25G12G17G05G04G30G09G02
 -13998950.41447 -10796209.30144  20878146.3284                   20878144.9264
  -8215085.07046  -6379018.25843  23191558.6644                   23191559.5514
 -16353171.05547 -12699282.32845  20879911.1644                   20879907.7114
   9861506.05945   7465132.57442  23531098.3834                   23531096.6804
 -16467269.77047 -12810689.68745  21127659.4614                   21127657.7154
  -2519015.96146  -1823442.94943  22251953.4844                   22251952.1994
  -7668800.82045  -5952023.90642  22957963.0944                   22957962.2734
   7194384.92245   5898530.99642  24208321.3594                   24208321.2344
 -15487105.75447 -12007714.68445  20537712.5314                   20537708.3674
 11  8 22  0 35 30.0000000  0  9G10G25G12G17G05G04G30G09G02
 -13944240.38346 -10753578.09844  20888556.6804                   20888555.6374
  -8278554.07446  -6428474.59043  23179481.9694                   23179481.6094
 -16366348.76247 -12709550.67245  20877403.0394                   20877400.4304
   9947094.39145   7531824.69942  23547384.3444                   23547383.5234
 -16514610.29746 -12847578.36345  21118650.2734                   21118649.2854
  -2412285.73046  -1740276.55943  22272264.0554                   22272262.2854
  -7729085.12546  -5998998.68043  22946492.0314                   22946490.7304
   7302204.48845   5982546.12942  24228838.4924                   24228838.0904
 -15449684.55547 -11978555.30545  20544833.1334                   20544828.6484
 11  8 22  0 36  0.0000000  0  9G10G25G12G17G05G04G30G09G02
 -13888894.63346 -10710451.52744  20899089.1024                   20899087.4804
  -8341704.68746  -6477682.81243  23167462.9224                   23167463.8984
 -16378981.10947 -12719394.07045  20874999.3834                   20874996.3054
  10032886.29345   7598675.51242  23563711.1954                   23563709.8134
 -16561497.47347 -12884113.77744  21109728.5394                   21109726.5704
  -2305475.41446  -1657047.76243  22292589.0004                   22292587.8134
  -7788970.58646  -6045662.64143  22935095.3754                   22935093.6334
   7410066.27745   6066594.18042  24249364.0864                   24249363.6954
 -15412003.66447 -11949193.57445  20552004.2344                   20551999.5634
 11  8 22  0 36 30.0000000  0  9G10G25G12G17G05G04G30G09G02
 -13832904.48446 -10666822.82444  20909744.0234                   20909742.1564
  -8404524.30146  -6526633.14843  23155509.6094                   23155510.0394
 -16391056.32047 -12728803.33645  20872701.1644                   20872698.1054
  10118891.89845   7665692.76642  23580076.8674                   23580076.6884
 -16607919.11747 -12920286.44545  21100894.3444                   21100893.2154
  -2198576.74246  -1573750.12543  22312931.1254                   22312930.0634
  -7848444.46945  -6092005.88342  22923777.7504                   22923775.7664
   7517976.73845   6150680.13742  24269899.3284                   24269899.9344
 -15374054.46547 -11919622.76245  20559225.7424                   20559221.1844
 11  8 22  0 37  0.0000000  0  9G10G25G12G17G05G04G30G09G02
 -13776278.36746 -10622698.57444  20920519.3594                   20920517.5594
  -8467017.73846  -6575329.30543  23143617.9534                   23143617.7464
 -16402580.00447 -12737782.83645  20870508.0944                   20870505.6294
  10205104.10545   7732871.07042  23596482.0944                   23596482.7274
 -16653880.09847 -12956100.16045  21092148.7584                   21092146.6054
  -2091598.53946  -1490390.50043  22333288.6254                   22333287.5314
  -7907511.57046  -6138032.16443  22912536.6564                   22912535.7274
   7625925.54745   6234796.00443  24290441.7974                   24290443.0514
 -15335845.61347 -11889849.62145  20566496.4224                   20566491.5274
 11  8 22  0 37 30.0000000  0  9G10G25G12G17G05G04G30G09G02
 -13719022.25446 -10578083.41444  20931415.8444                   20931413.3524
  -8529187.03546  -6623772.85943  23131787.5634                   23131787.7154
 -16413555.60947 -12746335.23845  20868419.6724                   20868416.8634
  10291518.43445   7800206.81642  23612927.3364                   23612926.1334
 -16699382.59846 -12991556.60945  21083489.4454                   21083487.8324
  -1984547.08646  -1406973.82843  22353659.3594                   22353658.9344
  -7966173.91846  -6183743.07843  22901374.7734                   22901373.6054
   7733905.05145   6318935.69142  24310988.3364                   24310992.2734
 -15297383.00046 -11859878.75845  20573815.5944                   20573811.2464
 11  8 22  0 38  0.0000000  0  9G10G25G12G17G05G04G30G09G02
 -13661135.16446 -10532976.57044  20942430.4384                   20942428.6524
  -8591027.43446  -6671960.16843  23120019.0164                   23120019.2504
 -16423978.97747 -12754457.34845  20866436.6024                   20866433.3484
  10378137.68445   7867702.28542  23629409.8134                   23629409.4734
 -16744422.61347 -13026652.68445  21074918.3674                   21074917.0274
  -1877421.93746  -1323499.72343  22374045.2584                   22374044.1024
  -8024426.69946  -6229134.78943  22890289.6564                   22890287.6804
   7841913.67255   6403098.14552  24331541.2894                   24331545.5664
 -15258666.13347 -11829709.77345  20581181.9694                   20581178.8244
 11  8 22  0 38 30.0000000  0  9G10G25G12G17G05G04G30G09G02
 -13602612.05946 -10487374.13744  20953567.2194                   20953565.3164
  -8652530.23446  -6719884.37543  23108315.1884                   23108316.3204
 -16433842.60547 -12762143.28145  20864559.1414                   20864556.5704
  10464967.92245   7935362.21142  23645934.5234                   23645931.7194
 -16788991.30147 -13061381.47745  21066437.3984                   21066435.6954
  -1770218.41446  -1239964.55543  22394445.1644                   22394443.7774
  -8082261.00446  -6274200.46543  22879284.5004                   22879281.8284
                                  24352100.6254                   24352105.5474
 -15219689.92247 -11799338.70345  20588600.0944                   20588595.8204
 11  8 22  0 39  0.0000000  0  9G10G25G12G17G05G04G30G09G02
 -13543459.95346 -10441281.57444  20964824.5084                   20964821.1254
  -8713698.38346  -6767547.80943  23096675.3674                   23096675.5594
 -16443150.68047 -12769396.31645  20862787.6954                   20862785.1764
  10552004.07845   8003182.55542  23662496.5634                   23662495.3444
 -16833092.13447 -13095745.71845  21058045.8134                   21058043.1604
  -1662943.57846  -1156373.79743  22414858.8054                   22414857.3954
  -8139680.09046  -6318942.53943  22868358.1024                   22868355.9964
                                  24372665.9614                   24372669.4184
 -15180461.16447 -11768770.83645  20596065.0554                   20596060.4694
 11  8 22  0 39 30.0000000  0  9G10G25G12G17G05G04G30G09G02
 -13483677.18746 -10394697.59844  20976199.3674                   20976197.4224
  -8774526.23846  -6814946.07443  23085099.9454                   23085100.4884
 -16451898.71947 -12776212.94945  20861123.1254                   20861120.6054
  10639248.93445   8071165.51242  23679098.8984                   23679097.9184
 -16876719.85946 -13129741.31645  21049743.9144                   21049741.1334
  -1555596.06246  -1072726.39543  22435286.6564                   22435285.0824
  -8196677.95346  -6363356.40643  22857511.2894                   22857509.5474
   8166107.17214                  24393234.969
 -15140977.96547 -11738004.69945  20603577.8524                   20603573.8444
 11  8 22  0 40  0.0000000  0  9G10G25G12G17G05G04G30G09G02
 -13423267.85246 -10347625.37544  20987694.8054                   20987693.1334
  -8835013.71946  -6862079.13743  23073589.2114                   23073590.5594
 -16460087.68047 -12782593.93445  20859565.0634                   20859562.0204
  10726700.70345   8139309.73042  23695739.7974                   23695739.6454
 -16919874.53146 -13163368.28944  21041531.9614                   21041529.2894
  -1448179.99646   -989025.57843  22455727.5234                   22455726.0434
  -8253254.73046  -6407442.16043  22846745.5234                   22846743.4654
   8274212.88314                  24413806.273
 -15101244.09447 -11707043.24245  20611139.3754                   20611135.1174
 11  8 22  0 40 30.0000000  0  9G10G25G12G17G05G04G30G09G02
 -13362235.69546 -10300067.84044  20999309.0164                   20999307.3834
  -8895160.98846  -6908947.09443  23062144.1804                   23062144.2544
 -16467718.76247 -12788540.22345  20858113.2114                   20858110.0824
  10814357.27045   8207613.46143  23712421.3754                   23712421.0434
 -16962556.71146 -13196627.08645  21033408.5634                   21033406.7504
  -1340699.47746   -905274.58243  22476180.2274                   22476179.2034
  -8309410.33646  -6451199.74243  22836058.5084                   22836056.9534
   8382330.47715                  24434380.977
 -15061263.64547 -11675889.66045  20618748.2194                   20618743.2664
 11  8 22  0 41  0.0000000  0  9G10G25G12G17G05G04G30G09G02
 -13300582.11846 -10252026.08944  21011041.6254                   21011039.6994
  -8954965.42246  -6955547.89543  23050763.0394                   23050763.1884
 -16474790.44947 -12794050.60545  20856767.6174                   20856764.1134
  10902218.43045   8276076.66043  23729140.1804                   23729139.9064
 -17004764.03146 -13229515.85945  21025377.1954                   21025375.5394
  -1233155.89146   -821474.40243  22496645.0004                   22496643.5784
  -8365142.28946  -6494627.17243  22825453.6254                   22825451.3754
   8490456.844 5                  24454957.086
 -15021038.01247 -11644545.00845  20626402.4384                   20626397.1764
 11  8 22  0 41 30.0000000  0  9G10G25G12G17G05G04G30G09G02
 -13238309.23846 -10203501.77344  21022892.2584                   21022890.1604
  -9014424.98846  -7001879.96143  23039448.8674                   23039448.9804
 -16481301.89547 -12799124.43045  20855528.5784                   20855524.9304
  10990283.98445   8344699.15243  23745898.3054                   23745897.7974
 -17046495.07447 -13262033.52345  21017435.7584                   21017434.1804
  -1125551.49646   -737626.84843  22517121.8984                   22517120.6294
  -8420448.50846  -6537722.90243  22814929.2734                   22814926.4104
   8598588.04315                  24475533.023
 -14980568.77347 -11613010.54345  20634102.7734                   20634098.4694
 11  8 22  0 42  0.0000000  0  9G10G25G12G17G05G04G30G09G02
 -13175416.92246 -10154494.77044  21034859.8284                   21034857.4534
  -9073535.55546  -7047940.09443  23028200.0944                   23028200.0664
 -16487250.13747 -12803759.40645  20854396.2194                   20854392.9694
  11078555.57045   8413482.16443  23762696.6954                   23762695.7154
 -17087745.91046 -13294176.99645  21009586.5784                   21009584.3244
  -1017886.22746   -653731.85943  22537609.5634                   22537608.8134
  -8475324.75046  -6580483.55943  22804486.9384                   22804484.7274
   8706722.77015                  24496110.922
 -14939855.84447 -11581286.18445  20641850.0634                   20641846.2934
 11  8 22  0 42 30.0000000  0  9G10G25G12G17G05G04G30G09G02
 -13111904.28146 -10105004.40644  21046946.2194                   21046944.1334
  -9132292.02346  -7093724.30543  23017019.5554                   23017019.6914
 -16492631.27747 -12807952.47745  20853371.8834                   20853369.3754
  11167035.94945   8482427.86343  23779533.8834                   23779532.7704
 -17128511.90647 -13325942.67245  21001828.1414                   21001826.9494
   -910159.02346   -569788.62943  22558110.1024                   22558108.6294
  -8529766.14546  -6622905.37943  22794126.3594                   22794124.6174
   8814860.285 5                  24516689.055
 -14898897.76247 -11549370.79745  20649644.4064                   20649640.2274
 11  8 22  0 43  0.0000000  0  9G10G25G12G17G05G04G30G09G02
 -13047779.24646 -10055036.84444  21059148.2274                   21059146.1254
  -9190698.57846  -7139235.85243  23005904.8674                   23005905.5514
 -16497450.78147 -12811707.91845  20852454.8524                   20852452.2234
  11255718.77345   8551531.33643  23796409.9064                   23796408.5704
 -17168797.73446 -13357334.18745  20994162.7894                   20994160.4064
   -802377.90246   -485803.36743  22578620.6334                   22578618.6564
  -8583776.60246  -6664991.39543  22783849.4694                   22783846.4884
   8922990.61745   7245493.60252  24537265.0164                   24537268.0314
 -14857702.63747 -11517270.69945  20657483.6804                   20657479.5514
 11  8 22  0 43 30.0000000  0  9G10G25G12G17G05G04G30G09G02
 -12983038.81646 -10004589.77344  21071467.5944                   21071466.2814
  -9248748.02746  -7184469.13343  22994858.7504                   22994858.9224
 -16501702.46947 -12815020.90245  20851646.3524                   20851643.2624
  11344608.80545   8620796.28142  23813324.4924                   23813323.4964
 -17208596.67647 -13388346.30945  20986589.1644                   20986586.8984
   -694539.78146   -401773.70343  22599139.2814                   22599138.9774
  -8637349.19946  -6706736.23843  22773654.1724                   22773651.6684
   9031115.54746   7329746.69943  24557841.6804                   24557842.8594
 -14816267.17247 -11484983.34045  20665369.1094                   20665364.1644
 11  8 22  0 44  0.0000000  0  9G10G25G12G17G05G04G30G09G02
 -12917688.93746  -9953667.78144  21083903.9534                   21083901.3634
  -9306442.07846  -7229425.47743  22983880.6024                   22983879.6804
 -16505389.49647 -12817893.89845  20850944.4844                   20850941.1994
  11433701.95345   8690219.45342  23830276.4064                   23830277.0004
 -17247910.44947 -13418980.37545  20979107.8054                   20979105.9574
   -586650.67246   -317704.30143  22619670.5004                   22619669.6174
  -8690485.55546  -6748141.11743  22763542.2894                   22763540.5044
   9139227.60245   7413989.74642  24578414.7584                   24578415.1884
 -14774596.59047 -11452512.74645  20673298.4064                   20673294.2934
 11  8 22  0 44 30.0000000  0  9G10G25G12G17G05G04G30G09G02
 -12851726.01246  -9902268.10244  21096455.8204                   21096453.6564
  -9363772.98846  -7274098.85543  22972970.4224                   22972969.5744
 -16508504.90647 -12820321.47745  20850351.6724                   20850348.8164
  11523003.67645   8759805.23442  23847272.3594                   23847271.0474
 -17286731.79347 -13449230.74245  20971720.2344                   20971718.1374
   -478706.48046   -233591.94943  22640212.5864                   22640210.2894
  -8743177.91846  -6789200.06243  22753515.5784                   22753513.0554
   9247328.61345   7498224.17642  24598985.8444                   24598986.2424
 -14732687.33647 -11419856.18045  20681273.9064                   20681269.1254
 11  8 22  0 45  0.0000000  0  9G10G25G12G17G05G04G30G09G02
 -12785153.64546  -9850393.53144  21109123.8054                   21109122.3634
  -9420740.49346  -7318489.06043  22962128.6334                   22962129.8324
 -16511050.85247 -12822305.31245  20849867.6414                   20849864.1914
  11612512.27745   8829552.17242  23864303.9144                   23864303.9654
 -17325061.49247 -13479098.00845  20964426.3524                   20964424.6564
   -370711.03946   -149439.68743  22660762.8284                   22660761.0594
  -8795425.98046  -6829912.78943  22743572.8204                   22743571.0274
   9355413.48045   7582446.04743  24619552.2814                   24619554.7384
 -14690542.61347 -11387016.13745  20689293.2894                   20689289.1994
 11  8 22  0 45 30.0000000  0  9G10G25G12G17G05G04G30G09G02
 -12717969.89846  -9798042.55544  21121908.8444                   21121906.2304
  -9477338.10246  -7362591.05143  22951359.1024                   22951359.1134
 -16513021.41447 -12823840.81245  20849491.8754                   20849489.1954
  11702230.98445   8899462.85542  23881377.6884                   23881376.3874
 -17362893.36747 -13508577.35545  20957227.4454                   20957225.4344
   -262661.90646    -65245.58643  22681324.3594                   22681322.4574
  -8847223.43046  -6870274.39143  22733716.7734                   22733714.6644
   9463483.01645   7666655.91442  24640117.5704                   24640120.1644
 -14648160.21947 -11353990.89545  20697358.8984                   20697354.2194
 11  8 22  0 46  0.0000000  0  9G10G25G12G17G05G04G30G09G02
 -12650179.31646  -9745218.73044  21134808.9454                   21134806.4614
  -9533566.35946  -7406405.23843  22940659.2114                   22940659.3444
 -16514418.25447 -12824929.24645  20849226.1804                   20849223.4264
  11792157.27345   8969535.30542  23898490.8444                   23898488.2814
 -17400227.98847 -13537669.23845  20950123.2974                   20950120.7734
   -154563.38346     18986.99243  22701894.5084                   22701893.3984
  -8898570.75846  -6910285.25843  22723945.4924                   22723943.0514
   9571531.07445   7750849.05542  24660678.7344                   24660681.3914
 -14605544.14547 -11320783.56245  20705468.3914                   20705463.7664
 11  8 22  0 46 30.0000000  0  9G10G25G12G17G05G04G30G09G02
 -12581788.16046  -9691926.92644  21147824.0004                   21147821.5554
  -9589427.36346  -7449933.24643  22930029.1644                   22930029.2034
 -16515245.07847 -12825573.52045  20849068.6724                   20849065.9064
  11882286.82044   9039766.06342  23915640.0634                   23915639.6524
 -17437068.05947 -13566375.74645  20943112.5004                   20943110.1454
    -46421.59846    103253.29343  22722474.1484                   22722472.0434
  -8949470.15646  -6949947.09043  22714258.6174                   22714257.6414
   9679549.85545   7835019.32842  24681234.5554                   24681237.8244
 -14562700.17247 -11287398.64845  20713620.8444                   20713616.5004
 11  8 22  0 47  0.0000000  0  9G10G25G12G17G05G04G30G09G02
 -12512795.96546  -9638166.78544  21160952.1884                   21160950.2664
  -9644916.34446  -7493171.37944  22919470.6484                   22919470.1844
 -16515498.23047 -12825770.78145  20849020.6644                   20849017.6724
  11972622.23445   9110157.30942  23932831.1334                   23932829.1484
 -17473409.37547 -13594693.62145  20936196.4064                   20936194.6764
     61764.34846    187554.02343  22743060.5864                   22743058.8634
  -8999916.77046  -6989256.09843  22704659.5084                   22704658.2034
   9787538.52745   7919166.27742  24701784.5314                   24701786.9384
 -14519627.48047 -11253835.51245  20721817.4694                   20721813.3874
 11  8 22  0 47 30.0000000  0  9G10G25G12G17G05G04G30G09G02
 -12443198.41046  -9583934.92244  21174196.0944                   21174194.3714
  -9700024.80546  -7536112.98444  22908983.2894                   22908983.6374
 -16515170.66447 -12825515.52745  20849083.1954                   20849080.2194
  12063169.14145   9180713.28942  23950061.6724                   23950060.5944
 -17509243.89546 -13622616.59845  20929377.2194                   20929375.4574
    169998.87146    271892.59843  22763656.7974                   22763656.0474
  -9049902.36346  -7028205.89143  22695147.5634                   22695146.2384
   9895499.96545   8003291.93442  24722327.4924                   24722331.4774
 -14476321.28147 -11220090.41845  20730058.2194                   20730054.2274
 11  8 22  0 48  0.0000000  0  9G10G25G12G17G05G04G30G09G02
 -12373002.37946  -9529236.73444  21187553.5944                   21187552.5394
  -9754755.58246  -7578760.32043  22898567.8524                   22898568.5474
 -16514266.75047 -12824811.18745  20849255.0944                   20849252.1254
  12153922.65245   9251430.29742  23967331.7114                   23967330.4224
 -17544575.25047 -13650147.48445  20922654.2734                   20922652.6094
    278275.39846    356263.85543  22784261.3134                   22784259.8754
  -9099429.69946  -7066798.56243  22685722.9844                   22685720.9804
                                  24742866.8754                   24742869.1604
 -14432788.46547 -11186168.75445  20738342.3284                   20738337.7854
 11  8 22  0 48 30.0000000  0  9G10G25G12G17G05G04G30G09G02
 -12302209.60947  -9474073.53144  21201025.6174                   21201023.8794
  -9809105.86346  -7621111.15244  22888225.9614                   22888226.1914
 -16512784.88747 -12823656.48845  20849536.9614                   20849533.7854
  12244883.24645   9322308.68842  23984641.6174                   23984639.9654
 -17579401.01647 -13677284.41045  20916027.1024                   20916025.0984
    386592.76646    440666.98443  22804873.0944                   22804872.2464
  -9148496.06646  -7105032.05143  22676385.6414                   22676383.6254
  10111313.67654   8171458.12952  24763398.2114                   24763400.2034
 -14389029.90647 -11152071.17245  20746669.2584                   20746665.0354
 11  8 22  0 49  0.0000000  0  9G10G25G12G17G05G04G30G09G02
 -12230824.00846  -9418448.39144  21214609.2734                   21214608.2034
  -9863075.22746  -7663165.17643  22877955.3524                   22877955.4694
 -16510726.38347 -12822052.46145  20849928.6334                   20849926.2384
  12336048.66445   9393346.63342  24001989.4224                   24001987.8204
 -17613721.43047 -13704027.56245  20909495.6954                   20909494.1564
    494947.68846    525099.37543  22825492.4774                   22825491.5124
  -9197101.11346  -7142906.09443  22667137.1334                   22667135.1334
  10219158.00054   8255492.59052  24783919.2734                   24783921.9694
 -14345048.54347 -11117799.98445  20755038.4384                   20755034.5904
 11  8 22  0 49 30.0000000  0  9G10G25G12G17G05G04G30G09G02
 -12158840.91046  -9362357.67644  21228307.1024                   21228306.2704
  -9916654.79346  -7704915.46944  22867758.8524                   22867759.6994
 -16508083.20747 -12819992.84045  20850431.5234                   20850428.7704
  12427425.66445   9464549.46142  24019378.1414                   24019376.5124
 -17647527.93747 -13730370.26645  20903063.1414                   20903061.0204
    603345.09046    609564.87943  22846119.9304                   22846119.1374
  -9245235.93746  -7180413.71943  22657976.3134                   22657975.2734
                                  24804435.0554                   24804436.3444
 -14300839.46947 -11083351.35545  20763451.1484                   20763446.8364
 11  8 22  0 50  0.0000000  0  9G10G25G12G17G05G04G30G09G02
 -12086271.47346  -9305810.06644  21242117.3524                   21242115.1054
  -9969851.29746  -7746367.27043  22857636.6334                   22857637.0704
 -16504863.97347 -12817484.35545  20851044.2734                   20851041.6254
  12519005.29345   9535910.21142  24036805.7194                   24036803.5124
 -17680828.26247 -13756318.53545  20896726.2504                   20896724.1994
    711774.29746    694055.12143  22866752.9454                   22866751.9694
  -9292907.44146  -7217560.30943  22648904.9924                   22648902.9774
                                  24824940.3914                   24824941.2114
 -14256413.07447 -11048733.39145  20771905.6884                   20771900.9654
 11  8 22  0 50 30.0000000  0  9G10G25G12G17G05G04G30G09G02
 -12013117.79346  -9248807.20344  21256037.5164                   21256035.9924
 -10022662.56246  -7787518.87543  22847586.8054                   22847587.4884
 -16501067.97347 -12814526.44145  20851766.5164                   20851764.0824
  12610786.99245   9607428.39843  24054270.8984                   24054270.2464
 -17713620.41847 -13781870.84045  20890485.8134                   20890483.9104
    820234.03146    778569.18043  22887393.1564                   22887391.9734
  -9340113.55546  -7254344.25443  22639922.1954                   22639920.8634
                                  24845433.844
 -14211770.68747 -11013947.12145  20780401.0864                   20780396.4224
 11  8 22  0 51  0.0000000  0  9G10G25G12G17G05G04G30G09G02
 -11939371.23046  -9191342.34844  21270071.2274                   21270069.4654
 -10075075.46946  -7828360.09844  22837613.4454                   22837613.1054
 -16496683.60247 -12811110.05145  20852600.7034                   20852597.7034
  12702781.49245   9679112.39543  24071776.6954                   24071776.9534
 -17745891.87147 -13807017.40245  20884344.3754                   20884342.6054
    928733.28146    863113.98043  22908038.8594                   22908038.6764
  -9386841.12946  -7290755.34843  22631030.1884                   22631028.5634
                                  24865916.266
 -14166903.38747 -10978985.59445  20788938.8204                   20788934.3364
 11  8 22  0 51 30.0000000  0  9G10G25G12G17G05G04G30G09G02
 -11865043.33646  -9133424.50844  21284215.8674                   21284213.4024
 -10127097.32046  -7868896.59843  22827713.7504                   22827714.2934
 -16491719.57447 -12807241.98445  20853545.5474                   20853542.4964
  12794979.60946   9750955.05543  24089321.7034                   24089321.8674
 -17777650.73447 -13831764.53545  20878301.7114                   20878299.3674
   1037261.03946    947681.00443  22928691.8284                   22928691.0434
  -9433097.67246  -7326799.39143  22622227.9844                   22622226.2154
                                  24886390.891
 -14121822.19147 -10943857.40645  20797517.3754                   20797512.8834
 11  8 22  0 52  0.0000000  0  8G10G25G12G17G05G04G30G02
 -11790132.14546  -9075052.15244  21298470.5164                   21298468.8484
 -10178721.80546  -7909123.41844  22817890.5474                   22817890.2584
 -16486170.49247 -12802918.03545  20854600.8914                   20854599.1024
  12887384.64145   9822958.92643  24106906.4454                   24106905.2854
 -17808891.18047 -13856107.70745  20872356.1954                   20872354.5394
   1145819.96546   1032272.37943  22949350.2664                   22949349.1214
  -9478876.87546  -7362471.45343  22613516.2114                   22613514.6334
 -14076524.25447 -10908560.32045  20806137.5084                   20806132.7974
 11  8 22  0 52 30.0000000  0  8G10G25G12G17G05G04G30G02
 -11714640.93046  -9016227.82444  21312836.0084                   21312834.0744
 -10229947.62946  -7949039.64543  22808142.0944                   22808142.6684
 -16480037.32847 -12798138.94945  20855768.8594                   20855765.9104
  12979995.64545   9895123.36743  24124527.6804                   24124527.8524
 -17839612.63347 -13880046.47745  20866510.6174                   20866508.4574
   1254407.60546   1116886.07843  22970013.8054                   22970012.5944
  -9524177.68046  -7397770.75843  22604895.3754                   22604894.2854
 -14031011.95347 -10873096.19145  20814797.7814                   20814793.6214
 11  8 22  0 53  0.0000000  0  8G10G25G12G17G05G04G30G02
 -11638565.14146  -8956947.99644  21327312.9144                   21327311.0594
 -10280765.98446  -7988638.32444  22798471.7274                   22798471.9024
 -16473312.61747 -12792898.92245  20857048.0784                   20857045.7934
  13072819.50045   9967453.57042  24142192.6884                   24142191.5044
 -17869806.88347 -13903574.43445  20860764.4454                   20860762.6954
   1363028.98046   1201526.06643  22990683.1484                   22990682.8444
  -9568991.38346  -7432690.48843  22596367.9924                   22596366.2584
 -13985280.09447 -10837460.98445  20823500.4534                   20823496.0594
 11  8 22  0 53 30.0000000  0  8G10G25G12G17G05G04G30G02
 -11561904.13746  -8897212.14544  21341901.6804                   21341898.9104
 -10331171.97746  -8027915.71144  22788879.4224                   22788879.8954
 -16465993.05547 -12787195.36345  20858440.8984                   20858438.3554
  13165858.41845  10039951.38742  24159897.4384                   24159896.1684
 -17899469.87547 -13926688.43045  20855119.9454                   20855117.6134
   1471685.14546   1286193.21143  23011359.6884                   23011359.2304
  -9613313.00046  -7467226.80543  22587933.7584                   22587932.3014
 -13939327.55547 -10801653.81645  20832244.9534                   20832240.6804
 11  8 22  0 54  0.0000000  0  8G10G25G12G17G05G04G30G02
 -11484665.33646  -8837026.07444  21356598.9844                   21356596.9304
 -10381168.47346  -8066874.00443  22779365.2114                   22779366.0474
 -16458082.77047 -12781031.50445  20859946.3134                   20859943.7384
  13259106.92245  10112612.52743  24177642.1564                   24177641.6684
 -17928604.92247 -13949391.04345  20849575.6024                   20849574.0274
   1580369.82046   1370882.57043  23032041.4534                   23032041.0274
  -9657145.69946  -7501382.13743  22579593.1484                   22579590.7854
 -13893160.66447 -10765679.63745  20841030.9064                   20841025.6254
 11  8 22  0 54 30.0000000  0  8G10G25G12G17G05G04G30G02
 -11406852.37146  -8776392.60244  21371406.8284                   21371404.8324
 -10430754.41446  -8105512.37144  22769929.7114                   22769930.0234
 -16449582.58647 -12774407.98445  20861564.1414                   20861561.1454
  13352564.14545  10185436.33643  24195426.0474                   24195425.6054
 -17957211.90647 -13971682.16845  20844132.4224                   20844130.1454
   1689080.49246   1455592.16443  23052728.9614                   23052727.8594
  -9700488.46946  -7535155.70743  22571345.2194                   22571343.0704
 -13846782.10947 -10729540.50445  20849855.9304                   20849851.3914
 11  8 22  0 55  0.0000000  0  8G10G25G12G17G05G04G30G02
 -11328469.34846  -8715314.92644  21386322.3204                   21386320.5824
 -10479929.65646  -8143830.74644  22760572.1414                   22760572.3674
 -16440493.97347 -12767325.94145  20863293.5704                   20863290.3554
  13446227.66445  10258420.83642  24213249.2424                   24213249.0704
 -17985291.04747 -13993561.98045  20838788.2664                   20838786.4384
   1797813.26246   1540318.96543  23073420.3054                   23073418.1804
  -9743341.38746  -7568547.57043  22563190.5084                   22563188.7464
 -13800195.56247 -10693239.30945  20858720.9144                   20858716.6054
 11  8 22  0 55 30.0000000  0  8G10G25G12G17G05G04G30G02
 -11249510.29746  -8653788.39144  21401347.5704                   21401345.8634
 -10528683.79346  -8181820.95344  22751294.0234                   22751294.4844
 -16430807.99247 -12759778.43045  20865136.8524                   20865134.0204
  13540105.53145  10331572.42642  24231115.2814                   24231112.4224
 -18012832.82847 -14015023.08645  20833547.7424                   20833545.4574
   1906575.22346   1625068.52743  23094116.6954                   23094115.1414
  -9785694.14546  -7601549.71143  22555130.7814                   22555129.0704
 -13753394.08247 -10656770.63745  20867626.9224                   20867622.5314
 11  8 22  0 56  0.0000000  0  8G10G25G12G17G05G04G30G02
 -11169989.86346  -8591824.42644  21416479.7424                   21416478.3324
 -10577026.79346  -8219490.82844  22742094.5084                   22742095.4734
 -16420536.36747 -12751774.57445  20867090.9224                   20867088.6564
  13634185.23845  10404881.25042  24249017.8674                   24249015.6214
 -18039848.00447 -14036073.84445  20828407.0554                   20828404.3834
   2015352.80946   1709830.28543  23114816.1334                   23114814.6804
  -9827556.73046  -7634169.87943  22547165.2034                   22547162.8014
 -13706391.16447 -10620145.00045  20876571.0084                   20876567.1484
 11  8 22  0 56 30.0000000  0  8G10G25G12G17G05G04G30G02
 -11089904.68446  -8529420.38344  21431719.6484                   21431717.9734
 -10624950.85946  -8256834.23444  22732975.4614                   22732975.5864
 -16409672.98847 -12743309.59845  20869158.7034                   20869155.8554
                                  24266959.7584                   24266958.7894
 -18066329.55947 -14056708.80145  20823366.6644                   20823365.2664
   2124149.98046   1794607.23442  23135519.6954                   23135517.9264
  -9868921.69946  -7666402.30943  22539293.2974                   22539291.3134
 -13659182.91047 -10583359.35545  20885554.7734                   20885550.3524
 11  8 22  0 57  0.0000000  0  8G10G25G12G17G05G04G30G02
 -11009265.44146  -8466584.61344  21447064.6334                   21447062.9924
 -10672462.38346  -8293856.18444  22723934.2424                   22723934.4694
 -16398225.89847 -12734389.77745  20871336.2894                   20871333.9734
  13822958.56345  10551977.28942  24284939.4304                   24284939.3714
 -18092284.18747 -14076933.15645  20818428.4534                   20818426.2074
   2232956.95346   1879391.89543  23156226.0944                   23156223.0164
  -9909795.51646  -7698252.03543  22531514.3834                   22531513.1334
 -13611779.05547 -10546421.29745  20894575.5394                   20894571.3674
 11  8 22  0 57 30.0000000  0  8G10G25G12G17G05G04G30G02
 -10928072.96146  -8403317.76644  21462515.2664                   21462513.4104
 -10719557.29746  -8330553.48444  22714971.9774                   22714972.3014
 -16386192.69547 -12725013.25445  20873626.8204                   20873623.5274
  13917644.50055  10625758.47752  24302957.7584                   24302957.9344
 -18117709.02047 -14096744.69545  20813590.5554                   20813588.0784
   2341774.30546   1964184.57043  23176932.3284                   23176930.8324
  -9950174.25846  -7729715.95343  22523831.5164                   22523829.2814
 -13564179.00047 -10509330.36345  20903633.5004                   20903628.8954
 11  8 22  0 58  0.0000000  0  8G10G25G12G17G05G04G30G02
 -10846326.93746  -8339619.56244  21478071.1484                   21478069.4844
 -10766231.14846  -8366922.71943  22706089.9694                   22706090.6484
 -16373570.33647 -12715177.65645  20876028.2344                   20876025.5594
  14012532.93045  10699697.52742  24321014.1254                   24321013.7234
 -18142600.34447 -14116140.50445  20808853.3054                   20808851.2584
   2450602.70745   2048985.94143  23197641.0944                   23197639.9454
  -9990053.53946  -7760790.73043  22516242.6884                   22516240.7344
 -13516381.82447 -10472085.83245  20912728.9224                   20912724.7154
 11  8 22  0 58 30.0000000  0  8G10G25G12G17G05G04G30G02
 -10764032.00446  -8275493.65244  21493731.1884                   21493729.2344
 -10812483.84446  -8402963.77343  22697288.6724                   22697289.3984
 -16360360.68047 -12704884.41445  20878542.2194                   20878539.4264
  14107621.55945  10773792.59042  24339108.7974                   24339109.0824
 -18166958.82047 -14135121.10545  20804217.7274                   20804216.1644
   2559438.94145   2133793.37143  23218352.6024                   23218351.4964
 -10029433.62146  -7791476.48843  22508747.9694                   22508747.0314
 -13468391.34447 -10434690.66445  20921860.5554                   20921857.3714
 11  8 22  0 59  0.0000000  0  8G10G25G12G17G05G04G30G02
 -10681191.91846  -8210942.93444  21509494.8674                   21509493.6484
 -10858314.50046  -8438675.96144  22688567.4694                   22688568.0864
 -16346564.73847 -12694134.33245  20881167.4614                   20881164.7704
  14202908.78145  10848042.30942  24357240.6884                   24357240.8054
 -18190784.30147 -14153686.39845  20799684.5864                   20799681.8634
   2668280.35545   2218604.85943  23239064.7034                   23239064.0744
 -10068313.73446  -7821772.66843  22501350.2974                   22501348.2424
 -13420210.28547 -10397147.00045  20931029.8054                   20931025.6414
 11  8 22  0 59 30.0000000  0  8G10G25G12G17G05G04G30G02
 -10597805.69146  -8145966.66044  21525363.3594                   21525361.0234
 -10903717.66446  -8474055.03544  22679927.8594                   22679928.4534
 -16332178.50047 -12682924.28545  20883904.5554                   20883902.5354
  14298397.90245  10922449.46542  24375412.8754                   24375412.1024
 -18214072.12147 -14171832.71945  20795252.7584                   20795250.2934
   2777128.98045   2303421.91843  23259777.4384                   23259777.5744
 -10106688.55946  -7851675.12143  22494047.5634                   22494045.5984
 -13371836.13347 -10359452.87945  20940235.4454                   20940231.1134
 11  8 22  1  0  0.0000000  0  8G10G25G12G17G05G04G30G02
 -10513874.97346  -8080566.11344  21541335.0554                   21541332.5044
 -10948690.27046  -8509098.60244  22671369.9384                   22671370.1724
 -16317200.77747 -12671253.32845  20886755.7424                   20886752.6564
  14394089.25045  10997014.14542  24393621.3594                   24393621.6604
 -18236819.89847 -14189558.23445  20790923.7194                   20790921.6134
   2885984.28545   2388244.22343  23280491.6334                   23280491.1564
 -10144555.31646  -7881181.68043  22486841.5004                   22486840.5784
 -13323269.52347 -10321608.78145  20949477.3984                   20949473.3794
 11  8 22  1  0 30.0000000  0  8G10G25G12G17G05G04G30G02
 -10429399.16846  -8014740.82044  21557409.6334                   21557407.9454
 -10993227.39546  -8543802.83244  22662894.5394                   22662894.4184
 -16301628.14147 -12659118.81645  20889719.1024                   20889716.2894
  14489985.44145  11071738.46542  24411869.7734                   24411869.6094
 -18259023.70347 -14206859.87545  20786698.8984                   20786696.4184
   2994847.88345   2473072.98843  23301208.3444                   23301208.0984
 -10181909.20746  -7910288.57443  22479733.1024                   22479731.4264
 -13274508.71147 -10283613.35245  20958755.9844                   20958752.2814
 11  8 22  1  1  0.0000000  0  8G10G25G12G17G05G04G30G02
 -10344389.14546  -7948499.26644  21573586.9614                   21573584.5474
 -11037335.08646  -8578172.48844  22654500.9614                   22654501.3094
 -16285468.91847 -12646527.21945  20892793.1414                   20892791.1214
  14586078.28545  11146616.02043  24430155.4384                   24430155.7774
 -18280690.49647 -14223743.05945  20782575.7974                   20782573.6884
   3103710.30945   2557900.80542  23321923.6884                   23321923.7734
 -10218756.52346  -7939000.76643  22472721.7734                   22472719.6374
 -13225563.68047 -10245474.39545  20968070.2424                   20968065.4694
 11  8 22  1  1 30.0000000  0  8G10G25G12G17G05G04G30G02
 -10258843.18046  -7881840.07844  21589865.6174                   21589863.5594
 -11081007.29346  -8612202.74644  22646190.5944                   22646191.1094
 -16268718.60547 -12633475.03545  20895981.4304                   20895978.4654
  14682371.53945  11221649.69942  24448480.6174                   24448479.9964
 -18301814.85947 -14240203.57045  20778556.3134                   20778553.6214
   3212574.27345   2642729.84443  23342640.2034                   23342640.1024
 -10255091.32446  -7967313.59443  22465808.0004                   22465805.7544
 -13176432.24247 -10207190.17245  20977419.0784                   20977415.0124
 11  8 22  1  2  0.0000000  0  8G10G25G12G17G05G04G30G02
 -10172764.91846  -7814766.13344  21606245.3754                   21606243.4884
 -11124242.84846  -8645892.77344  22637963.3524                   22637963.3874
 -16251378.18447 -12619963.02745  20899281.1334                   20899278.1564
  14778863.80545  11296838.47742  24466842.0394                   24466841.7074
 -18322396.68047 -14256241.32445  20774638.8984                   20774636.9694
   3321437.53145   2727558.35242  23363355.8984                   23363355.9304
 -10290912.70346  -7995226.31643  22458990.6414                   22458988.8914
 -13127115.99247 -10168761.93445  20986803.8444                   20986799.7114
 11  8 22  1  2 30.0000000  0  8G10G25G12G17G05G04G30G02
 -10086157.30546  -7747279.69944  21622726.6334                   21622724.3554
 -11167040.32446  -8679241.44944  22629818.7974                   22629819.6174
 -16233447.62547 -12605991.17645  20902692.7974                   20902690.2704
  14875554.16045  11372181.61342  24485240.7664                   24485241.7234
 -18342435.27347 -14271855.77745  20770825.6024                   20770824.0744
   3430298.06345   2812384.70343  23384071.0864                   23384070.3634
 -10326219.46546  -8022738.07043  22452272.0704                   22452270.2154
 -13077617.07047 -10130191.35245  20996223.2344                   20996219.0274
 11  8 22  1  3  0.0000000  0  9G10G25G12G17G05G04G30G29G02
  -9999027.16846  -7679386.09844  21639307.1414                   21639304.9844
 -11209401.98846  -8712250.50844  22621757.6414                   22621758.0864
 -16214931.29347 -12591562.86745  20906216.8594                   20906213.8594
  14972438.13345  11447675.58242  24503678.2114                   24503677.0784
 -18361933.71147 -14287049.33245  20767115.1724                   20767113.3984
   3539150.41846   2897204.70743  23404785.9384                   23404783.7854
 -10361014.14846  -8049850.81643  22445651.2974                   22445648.8134
  -3280333.57815                  24772050.352
 -13027941.13747 -10091482.84845  21005676.2664                   21005671.8164
 11  8 22  1  3 30.0000000  0  9G10G25G12G17G05G04G30G29G02
  -9911377.30146  -7611087.51244  21655985.7584                   21655983.6054
 -11251325.93446  -8744918.52044  22613779.7894                   22613780.5004
 -16195828.96947 -12576677.94545  20909851.1254                   20909848.9454
  15069515.12145  11523319.96142  24522151.6334                   24522150.4494
 -18380890.96147 -14301821.18445  20763508.0004                   20763505.7814
   3647993.25046   2982017.28543  23425497.9064                   23425496.6954
 -10395294.96146  -8076563.10543  22439126.7274                   22439125.4534
  -3333102.469 5                  24762009.180
 -12978089.66047 -10052637.54345  21015162.6024                   21015158.6214
 11  8 22  1  4  0.0000000  0  9G10G25G12G17G05G04G30G29G02
 -11398629.50046  -8769985.35544  21372971.7344                   21372969.5904
 -12868233.57046 -10004846.52744  22306092.5394                   22306093.0554
 -17751561.91847 -13788937.40645  20613805.4144                   20613802.2194
  13591365.98045  10371515.42642  24240868.8364                   24240867.5234
 -19974728.67647 -15543772.62545  20460210.5004                   20460208.4494
   2181406.75046   1839222.57443  23146415.6724                   23146414.3914
 -12004483.43046  -9330476.18444  22132909.3834                   22132906.5204
  -4961367.922 5                  24452161.289
 -14503484.37547 -11241256.81245  20724889.0004                   20724885.2344
 11  8 22  1  4 30.0000000  0  9G10G25G12G17G05G04G30G29G02
 -11309946.60546  -8700881.80144  21389847.3984                   21389844.9534
 -12909274.28546 -10036826.28544  22298282.2194                   22298283.5634
 -17731285.33647 -13773137.48845  20617663.5394                   20617661.0634
  13688829.82045  10447461.21142  24259414.7894                   24259413.7234
 -19992598.90647 -15557697.46145  20456810.3524                   20456808.1644
   2290228.08646   1924018.38743  23167124.2424                   23167122.4104
 -12037729.62546  -9356382.30943  22126582.6254                   22126580.8204
  -5014280.35514                  24442091.695
 -14453284.32447 -11202139.89545  20734442.4224                   20734438.3674
 11  8 22  1  5  0.0000000  0  9G10G25G12G17G05G04G30G29G02
 -11220749.35546  -8631377.45344  21406819.8984                   21406818.8954
 -12949868.68746 -10068458.26644  22290558.4614                   22290558.5634
 -17710420.19147 -13756878.94545  20621634.6804                   20621631.8914
  13786488.16045  10523558.57442  24278000.5944                   24277998.3444
 -20009922.21547 -15571196.10545  20453513.4224                   20453511.2734
   2399038.69945   2008805.84042  23187829.3914                   23187828.9024
 -12070454.10546  -9381881.88344  22120355.0314                   22120353.8164
                                  24432010.094
 -14402910.17647 -11162887.31645  20744028.2504                   20744023.8094
 11  8 22  1  5 30.0000000  0  9G10G25G12G17G05G04G30G29G02
 -11131041.05546  -8561474.88744  21423891.4614                   21423890.1374
 -12990015.59046 -10099741.55144  22282917.7734                   22282919.0164
 -17688966.71947 -13740161.96545  20625716.7114                   20625714.1414
  13884340.33245  10599807.02042  24296621.3284                   24296618.2194
 -20026698.21947 -15584268.28545  20450320.8284                   20450319.2074
   2507836.48045   2093583.32042  23208533.1334                   23208532.0634
 -12102656.02346  -9406974.27344  22114228.0784                   22114225.8984
  -5120315.00815                  24421913.258
 -14352364.30947 -11123500.91845  20753646.8754                   20753642.4884
 11  8 22  1  6  0.0000000  0  9G10G25G12G17G05G04G30G29G02
 -11040820.60546  -8491173.25044  21441060.9694                   21441058.3714
 -13029709.45746 -10130671.80544  22275364.3834                   22275365.6524
 -17666921.42647 -13722983.82045  20629912.2664                   20629909.4844
                                  24315278.2584                   24315276.9574
 -20042922.42647 -15596910.50045  20447233.5554                   20447231.4384
   2616623.77345   2178352.57842  23229234.3984                   23229233.5824
 -12134330.05946  -9431655.32844  22108199.7584                   22108198.0204
  -5173433.71515                  24411804.125
 -14301644.35546 -11083978.88345  20763298.8054                   20763294.6054
 11  8 22  1  6 30.0000000  0  9G10G25G12G17G05G04G30G29G02
 -10950092.61746  -8420476.12944  21458324.7424                   21458323.7664
 -13068950.08246 -10161248.87544  22267896.6024                   22267897.9534
 -17644285.85247 -13705345.71545  20634219.7274                   20634216.4024
  14080632.57845  10752761.94542  24333973.0234                   24333972.9064
 -20058595.54347 -15609123.29745  20444251.5634                   20444249.3794
   2725397.67245   2263111.41442  23249933.6954                   23249932.8054
 -12165476.20746  -9455925.02744  22102273.5164                   22102271.1254
  -5226620.32045  -4033883.78153  24401684.9384                   24401684.5634
 -14250753.52747 -11044323.68445  20772982.8134                   20772978.3984
 11  8 22  1  7  0.0000000  0  9G10G25G12G17G05G04G30G29G02
 -10858858.90246  -8349384.92644  21475686.1334                   21475684.6684
 -13107734.41046 -10191470.39544  22260517.0554                   22260517.4104
 -17621059.49247 -13687247.27045  20638639.7504                   20638636.3594
  14179071.30555  10829467.42252  24352705.3364                   24352704.9964
 -20073715.66447 -15620905.18445  20441373.7504                   20441371.9734
   2834157.93045   2347859.62542  23270629.9774                   23270629.9304
 -12196091.84846  -9479781.34043  22096447.4774                   22096445.0634
  -5279873.36745  -4075379.68842  24391549.7194                   24391549.0744
 -14199691.94547 -11004535.43745  20782699.9694                   20782694.9454
 11  8 22  1  7 30.0000000  0  9G10G25G12G17G05G04G30G29G02
 -10767125.61346  -8277904.44944  21493142.3594                   21493140.4064
 -13146064.10246 -10221337.65244  22253223.2114                   22253223.6724
 -17597245.66847 -13668691.04345  20643171.1414                   20643167.9414
  14277701.23045  10906321.86742  24371474.6414                   24371473.9964
 -20088285.31247 -15632258.13745  20438601.2114                   20438599.1334
   2942899.85245   2432593.53142  23291323.2814                   23291322.1414
 -12226178.80146  -9503225.68044  22090721.2274                   22090719.8054
  -5333196.26645  -4116929.95743  24381402.7894                   24381402.2774
 -14148464.39847 -10964617.86745  20792448.0004                   20792443.2544
 11  8 22  1  8  0.0000000  0  9G10G25G12G17G05G04G30G29G02
 -10674886.53946  -8206029.86744  21510695.1334                   21510693.7464
 -13183928.49146 -10250842.35144  22246017.4534                   22246017.6764
 -17572835.51647 -13649670.15645  20647816.2734                   20647813.7234
  14376530.85244  10983331.93042  24390280.2194                   24390280.4534
 -20102294.69947 -15643174.52345  20435935.3754                   20435933.3714
   3051631.20345   2517319.19142  23312013.6954                   23312013.1214
 -12255726.66046  -9526249.96144  22085099.0784                   22085097.0554
  -5386579.71945  -4158527.40642  24371243.7734                   24371242.8094
 -14097063.51247 -10924565.22345  20802229.0784                   20802224.7894
 11  8 22  1  8 30.0000000  0  8G10G25G12G05G04G30G29G02
 -10582153.92646  -8133770.69944  21528341.7034                   21528339.8794
 -13221334.99246 -10279990.24244  22238898.9304                   22238899.8444
 -17547838.62547 -13630192.05945  20652572.8444                   20652570.2424
 -20115752.52047 -15653661.10545  20433374.8984                   20433372.2704
   3160341.12146   2602028.16043  23332701.2894                   23332699.4654
 -12284743.33246  -9548860.32443  22079576.9384                   22079575.6954
  -5440032.84045  -4200179.16043  24361072.4774                   24361071.2704
 -14045500.05947 -10884385.89845  20812041.7034                   20812036.9694
 11  8 22  1  9  0.0000000  0  8G10G25G12G05G04G30G29G02
 -10488928.89346  -8061127.83544  21546081.7734                   21546079.8984
 -13258280.01246 -10308778.53544  22231868.9144                   22231869.0744
 -17522252.90647 -13610255.13745  20657441.6484                   20657438.7384
 -20128655.73447 -15663715.53145  20430919.5554                   20430917.2584
   3269030.29346   2686721.02343  23353384.8674                   23353382.6604
 -12313225.25446  -9571053.98844  22074156.9774                   22074154.7704
  -5493553.52045  -4241883.53943  24350888.4144                   24350886.4024
 -13993773.80547 -10844079.71145  20821883.9304                   20821879.9884
 11  8 22  1  9 30.0000000  0  8G10G25G12G05G04G30G29G02
 -10395210.18746  -7988100.27044  21563916.1334                   21563914.1724
 -13294757.77046 -10337202.71944  22224927.1414                   22224927.6484
 -17496075.57447 -13589857.21945  20662423.6334                   20662420.3484
 -20140999.93447 -15673334.36745  20428569.8594                   20428567.8834
   3377701.50446   2771399.80143  23374063.3594                   23374062.8554
 -12341167.05946  -9592826.81244  22068839.5314                   22068837.8484
  -5547137.47345  -4283637.19543  24340690.9384                   24340690.8284
 -13941881.97347 -10803644.52745  20831759.7114                   20831754.9694
 11  8 22  1 10  0.0000000  0  8G10G25G12G05G04G30G29G02
 -10300998.77746  -7914688.80544  21581844.1174                   21581841.6954
 -13330764.57446 -10365259.95744  22218075.7584                   22218075.7934
 -17469304.55147 -13568996.68045  20667516.7424                   20667514.2034
 -20152782.48047 -15682515.56645  20426327.7424                   20426325.7664
   3486355.32846   2856065.08243  23394739.8444                   23394739.1684
 -12368565.40646  -9614176.13744  22063625.9694                   22063624.4614
  -5600782.69545  -4325438.67243  24330484.2274                   24330481.8324
 -13889823.86347 -10763079.75845  20841665.5314                   20841661.2384
 11  8 22  1 10 30.0000000  0  8G10G25G12G05G04G30G29G02
 -10206291.44946  -7840890.87144  21599865.9224                   21599864.1024
 -13366292.79346 -10392944.23844  22211314.3204                   22211314.9964
 -17441934.01647 -13547668.99645  20672725.5704                   20672722.5634
 -20163996.55947 -15691253.78145  20424194.6334                   20424191.7304
   3594996.72346   2940720.69943  23415412.6724                   23415412.9734
 -12395412.81246  -9635096.17244  22058517.3594                   22058515.7734
  -5654482.89145  -4367282.93743  24320263.2114                   24320262.7344
 -13837595.00847 -10722381.93445  20851604.4694                   20851599.8984
 11  8 22  1 11  0.0000000  0  8G10G25G12G05G04G30G29G02
 -10111096.22746  -7766712.78944  21617980.6804                   21617979.3134
 -13401345.53146 -10420258.03944  22204644.4064                   22204644.5824
 -17413969.06647 -13525878.12145  20678047.4304                   20678044.3794
 -20174646.59047 -15699552.48445  20422167.1254                   20422164.8954
   3703619.19945   3025361.52742  23436083.0314                   23436083.4574
 -12421712.90246  -9655589.70343  22053512.3054                   22053510.9734
  -5708242.66845  -4409173.61742  24310033.9064                   24310032.7194
 -13785201.96147 -10681556.18445  20861574.2584                   20861570.0204
 11  8 22  1 11 30.0000000  0  8G10G25G12G05G04G30G29G02
 -10015414.94546  -7692155.96544  21636187.8524                   21636186.8984
 -13435920.07446 -10447199.21944  22198065.5314                   22198065.3094
 -17385409.42247 -13503623.84845  20683482.1644                   20683479.4264
 -20184730.60247 -15707410.12945  20420248.5164                   20420246.1884
   3812222.89146   3109987.78942  23456750.1564                   23456749.8674
 -12447463.17246  -9675654.82444  22048612.6414                   22048610.5044
  -5762060.80145  -4451109.79742  24299793.3134                   24299791.0744
 -13732644.87947 -10640602.60245  20871575.7344                   20871571.7424
 11  8 22  1 12  0.0000000  0  8G10G25G12G05G04G30G29G02
  -9919257.58646  -7617228.14544  21654486.7664                   21654484.8554
 -13470021.71546 -10473771.90244  22191575.6254                   22191575.8204
 -17356262.19947 -13480911.71945  20689028.5394                   20689025.5944
 -20194255.10947 -15714831.80545  20418436.0394                   20418433.5084
   3920799.53146   3194592.99642  23477411.3754                   23477409.1954
 -12472669.28946  -9695295.93744  22043815.3594                   22043814.3134
  -5815944.07845  -4493096.71542  24289538.5314                   24289537.5394
 -13679932.09447 -10599527.70345  20881606.4144                   20881602.4884
 11  8 22  1 12 30.0000000  0  8G10G25G12G05G04G30G29G02
  -9822621.10246  -7541926.98444  21672875.6484                   21672874.6294
 -13503642.87147 -10499970.19544  22185178.2504                   22185178.0824
 -17326521.98047 -13457737.51645  20694688.1954                   20694684.3444
 -20203213.47347 -15721812.32845  20416731.0004                   20416729.0554
   4029353.64145   3279180.62143  23498068.8524                   23498067.1334
 -12497324.02746  -9714507.39844  22039123.7194                   22039122.0004
  -5869886.25845  -4535129.53142  24279274.5084                   24279272.1724
 -13627059.29747 -10558328.11745  20891668.1334                   20891663.8014
 11  8 22  1 13  0.0000000  0  8G10G25G12G05G04G30G29G02
  -9725508.41046  -7466254.76644  21691356.0554                   21691354.0004
 -13536781.89547 -10525792.80144  22178872.1954                   22178871.7194
 -17296189.22347 -13434101.60945  20700460.2344                   20700457.2304
 -20211605.49247 -15728351.54745  20415134.6484                   20415132.2934
   4137884.23445   3363749.85542  23518722.2034                   23518719.7664
 -12521425.98446  -9733288.13743  22034538.0554                   22034535.4614
  -5923886.54345  -4577207.65642  24268997.5394                   24268995.7504
 -13574027.95747 -10517004.98045  20901759.4304                   20901755.5124
 11  8 22  1 13 30.0000000  0  8G10G25G12G05G04G30G29G02
  -9627930.05146  -7390219.68744  21709924.7344                   21709922.6844
 -13569444.50446 -10551244.18044  22172656.2664                   22172656.2274
 -17265271.68047 -13410010.00845  20706343.7194                   20706340.8444
 -20219437.72347 -15734454.55945  20413643.7894                   20413641.6914
   4246382.57045   3448294.01643  23539368.3674                   23539367.4144
 -12544981.32446  -9751642.93744  22030054.8754                   22030053.3634
  -5977952.63745  -4619336.99642  24258709.0474                   24258707.4104
 -13520846.49247 -10475564.87545  20911879.3754                   20911875.1454
 11  8 22  1 14  0.0000000  0  8G10G25G12G05G04G30G29G02
  -9529886.55946  -7313822.16044  21728582.1954                   21728579.2424
 -13601626.77746 -10576321.27744  22166531.8914                   22166532.6884
 -17233767.46947 -13385461.27745  20712338.5084                   20712335.8284
 -20226707.23047 -15740119.09045  20412260.1564                   20412257.9104
   4354849.87145   3532813.94542  23560008.4614                   23560007.7304
 -12567986.46546  -9769569.01243  22025677.4144                   22025675.5084
  -6032081.50845  -4661515.27342  24248409.6414                   24248406.0354
 -13467514.12947 -10434007.18745  20922028.3444                   20922024.2814
 11  8 22  1 14 30.0000000  0  8G10G25G12G05G04G30G29G02
  -9431375.96946  -7237060.64844  21747328.0084                   21747325.3244
 -13633321.74646 -10601018.63344  22160501.6884                   22160500.9344
 -17201672.06647 -13360451.87145  20718446.7734                   20718443.3914
 -20233408.34047 -15745340.71945  20410985.2894                   20410982.9804
   4463290.33645   3617313.01643  23580643.4454                   23580642.8754
 -12590434.85246  -9787061.26644  22021405.4844                   22021404.2734
  -6086267.71545  -4703738.30142  24238097.8284                   24238095.7424
 -13414026.78947 -10392328.73045  20932206.7974                   20932202.5784
 11  8 22  1 15  0.0000000  0  8G10G25G12G05G04G30G29G02
  -9332411.30146  -7159945.33243  21766160.3134                   21766157.3204
 -13664538.00446 -10625342.98844  22154560.2114                   22154561.1334
 -17168995.73447 -13334989.79745  20724663.9924                   20724661.2974
 -20239550.67247 -15750126.92645  20409816.3834                   20409813.9534
   4571692.50445   3701782.22342  23601272.0084                   23601271.2734
 -12612335.35546  -9804126.59844  22017237.8134                   22017236.4884
  -6140521.09045  -4746013.51642  24227773.5234                   24227771.5394
 -13360396.28947 -10350538.73445  20942411.8054                   20942408.0554
 11  8 22  1 15 30.0000000  0  8G10G25G12G05G04G30G29G02
  -9232990.72746  -7082474.75444  21785078.6414                   21785076.3014
 -13695269.45746 -10649289.59844  22148712.4384                   22148712.5044
 -17135735.12947 -13309072.45345  20730993.5944                   20730990.8754
 -20245129.51647 -15754474.05145  20408754.7504                   20408752.6724
   4680059.60545   3786224.10542  23621893.2734                   23621893.7504
 -12633682.25046  -9820760.53144  22013175.9384                   22013174.1454
  -6194836.62545  -4788337.23442  24217437.8284                   24217436.9184
 -13306619.45347 -10308634.70345  20952645.1884                   20952641.5124
 11  8 22  1 16  0.0000000  0  8G10G25G12G05G04G30G29G02
  -9133113.92246  -7004648.69943  21804084.6254                   21804082.9694
 -13725511.12546 -10672854.53944  22142957.1484                   22142957.9384
 -17101887.13347 -13282697.39545  20737434.2814                   20737431.5434
 -20250140.64547 -15758378.79745  20407801.0864                   20407798.7304
   4788394.12545   3870640.68043  23642508.3134                   23642509.5594
 -12654470.91846  -9836959.49244  22009220.2034                   22009218.1374
  -6249210.71945  -4830706.62542  24207090.7344                   24207089.6994
 -13252694.05147 -10266614.90245  20962906.9694                   20962903.3444
 11  8 22  1 16 30.0000000  0  8G10G25G12G05G04G30G29G02
  -9032783.96146  -6926469.51243  21823176.7814                   21823175.1764
 -13755261.18746 -10696036.39144  22137296.2664                   22137296.6604
 -17067452.13347 -13255864.93445  20743987.2974                   20743984.4734
 -20254583.62547 -15761840.84045  20406955.0554                   20406953.3284
   4896695.39146   3955031.18742  23663118.5474                   23663118.6254
 -12674699.97346  -9852722.40244  22005370.3984                   22005368.7854
  -6303642.93445  -4873121.31643  24196732.6094                   24196731.7154
 -13198621.22347 -10224480.23445  20973196.2344                   20973192.3554
 11  8 22  1 17  0.0000000  0  8G10G25G12G05G04G30G29G02
  -8932007.10946  -6847942.08643  21842353.8444                   21842351.1644
 -13784521.23846 -10718836.43744  22131728.0394                   22131728.7114
 -17032434.12947 -13228578.19145  20750651.7424                   20750648.3794
 -20258461.16847 -15764862.27345  20406217.8984                   20406215.5634
   5004958.67645   4039392.24242  23683719.1724                   23683720.8204
 -12694371.46146  -9868050.83244  22001627.4924                   22001625.4614
  -6358135.87945  -4915583.34842  24186363.1564                   24186361.2934
 -13144405.32847 -10182234.07845  20983514.0004                   20983509.4344
 11  8 22  1 17 30.0000000  0  8G10G25G12G05G04G30G29G02
  -8830785.77746  -6769068.31644  21861615.8594                   21861613.2304
 -13813289.55946 -10741253.30944  22126253.6414                   22126254.6804
 -16996833.07847 -13200837.13745  20757426.1884                   20757422.6844
 -20261772.65647 -15767442.64145  20405587.6724                   20405585.3634
   5113183.32046   4123723.11343  23704315.3834                   23704314.8634
 -12713483.86346  -9882943.63344  21997989.8444                   21997988.5394
  -6412688.77045  -4958092.03942  24175981.8364                   24175979.9804
 -13090047.56647 -10139877.37945  20993857.5704                   20993853.1604
 11  8 22  1 18  0.0000000  0  8G10G25G12G05G04G30G29G02
  -8729116.69946  -6689845.65643  21880963.2974                   21880960.4414
 -13841558.00047 -10763280.67244  22120875.1954                   22120874.8554
 -16960643.55547 -13172637.52045  20764312.9144                   20764309.6334
 -20264511.20747 -15769576.55545  20405065.4224                   20405063.8324
   5221374.70346   4208028.09442  23724903.0084                   23724901.2544
 -12732029.69546  -9897394.93444  21994461.1724                   21994459.7934
  -6467294.80945  -5000642.11743  24165590.6334                   24165588.9494
 -13035542.78547 -10097406.12145  21004229.9144                   21004225.3834
 11  8 22  1 18 30.0000000  0  8G10G25G12G05G04G30G29G02
  -8627003.08646  -6610276.60244  21900394.4534                   21900392.3834
 -13869325.17647 -10784917.43044  22115590.4384                   22115590.7074
 -16923866.06647 -13143979.75445  20771311.3364                   20771308.1174
 -20266676.49247 -15771263.77745  20404654.2194                   20404652.1254
   5329531.96146   4292306.40642  23745485.5554                   23745482.1564
 -12750007.70746  -9911403.76244  21991040.5314                   21991038.3484
  -6521953.29745  -5043233.14143  24155189.0864                   24155187.9344
 -12980892.18047 -10054821.23045  21014629.3054                   21014625.1024
 11  8 22  1 19  0.0000000  0  8G10G25G12G05G04G30G29G02
  -8524449.23046  -6530364.51644  21919909.8674                   21919908.5204
 -13896590.77046 -10806163.34044  22110402.6254                   22110402.4534
 -16886502.64847 -13114865.42245  20778420.7424                   20778418.1724
 -20268269.35247 -15772504.94145  20404351.0004                   20404348.7464
   5437652.44946   4376556.16042  23766059.9694                   23766056.2154
 -12767418.17246  -9924970.36344  21987726.6024                   21987725.3284
  -6576665.36345  -5085865.89143  24144778.5394                   24144776.3874
 -12926098.42647 -10012124.80945  21025056.4924                   21025051.8954
 11  8 22  1 19 30.0000000  0  8G10G25G12G05G04G30G29G02
  -8421464.98446  -6450117.06644  21939507.2344                   21939505.5944
 -13923360.22747 -10827022.66044  22105308.4304                   22105308.1524
 -16848560.73047 -13085300.30945  20785641.5634                   20785638.3164
 -20269296.72347 -15773305.46945  20404155.7034                   20404152.9224
   5545728.41046   4460771.11742  23786626.0164                   23786622.5514
 -12784266.95346  -9938099.25844  21984520.7664                   21984519.3594
  -6631437.38745  -5128545.34043  24134355.7734                   24134353.5594
 -12871169.66847  -9969323.18745  21035508.9924                   21035504.2304
 11  8 22  1 20  0.0000000  0  8G10G25G12G05G04G30G29G02
  -8318049.69146  -6369533.73044  21959185.7344                   21959185.3204
 -13949628.23847 -10847491.22744  22100310.0554                   22100309.9104
 -16810037.57047 -13055282.28145  20792971.5784                   20792968.5784
 -20269754.52347 -15773662.18445  20404068.3134                   20404065.8634
   5653762.71545   4544953.69542  23807183.2814                   23807181.4454
 -12800549.07446  -9950786.62144  21981422.7194                   21981420.2894
  -6686265.02045  -5171268.12542  24123921.3674                   24123920.4264
 -12816103.25447  -9926414.30145  21045987.7504                   21045983.5124
 11  8 22  1 20 30.0000000  0  8G10G25G12G05G04G30G29G02
  -8214212.23446  -6288621.44944  21978945.4924                   21978944.3404
 -13975399.35947 -10867572.60944  22095405.6174                   22095406.3874
 -16770940.14547 -13024816.77345  20800411.3524                   20800409.1334
 -20269648.17247 -15773579.28945  20404088.4924                   20404086.1214
   5761748.20345   4629098.17642  23827732.8984                   23827731.6254
 -12816269.60946  -9963036.38744  21978430.5864                   21978429.0744
  -6741153.86345  -5214038.60543  24113476.6174                   24113475.9694
 -12760906.41847  -9883403.78545  21056491.1884                   21056486.7424
 11  8 22  1 21  0.0000000  0  8G10G25G12G05G04G30G29G02
  -8109941.71146  -6207371.70744  21998787.7114                   21998786.7624
 -14000657.90647 -10887254.58644  22090599.0234                   22090599.1174
 -16731254.41447 -12993892.84045  20807963.4534                   20807960.7704
 -20268963.09047 -15773045.44145  20404219.1174                   20404217.2894
   5869698.13745   4713214.94542  23848274.1414                   23848274.3554
 -12831413.25046  -9974836.62144  21975549.3984                   21975547.5904
  -6796089.23445  -5256845.35943  24103023.4304                   24103021.8204
 -12705566.34847  -9840281.67245  21067021.8134                   21067018.1454
 11  8 22  1 21 30.0000000  0  8G10G25G12G05G04G30G29G02
  -8005251.38746  -6125794.84044  22018709.9924                   22018708.6764
 -14025412.57847 -10906543.92644  22085888.7974                   22085888.7234
 -16690991.89547 -12962519.47345  20815625.4384                   20815622.5084
 -20267709.75447 -15772068.78945  20404457.5554                   20404455.1254
   5977601.58245   4797295.50842  23868807.5784                   23868808.1294
 -12845989.13746  -9986194.44144  21972775.0784                   21972773.5664
  -6851080.46545  -5299695.61343  24092557.6414                   24092557.2704
 -12650094.37147  -9797056.75845  21077578.1334                   21077574.2664
 11  8 22  1 22  0.0000000  0  8G10G25G12G05G04G30G29G02
  -7900144.71146  -6043893.54344  22038711.3834                   22038709.1684
 -14049662.55547 -10925439.99645  22081274.3284                   22081274.2974
 -16650154.02047 -12930697.76645  20823397.0554                   20823394.3014
 -20265888.03947 -15770649.26245  20404804.3754                   20404802.0234
   6085456.72345   4881338.48842  23889332.0314                   23889333.0314
 -12859996.94146  -9997109.59043  21970109.3284                   21970107.9144
  -6906127.76245  -5342589.58643  24082082.7114                   24082082.0204
 -12594492.11747  -9753730.34045  21088158.9304                   21088154.7424
 11  8 22  1 22 30.0000000  0  8G10G25G12G05G04G30G29G02
  -7794616.78546  -5961663.99643  22058792.0234                   22058790.5984
 -14073398.25847 -10943935.33245  22076757.4224                   22076757.1524
 -16608733.33247 -12898421.91845  20831279.0554                   20831275.8524
 -20263490.00847 -15768780.64845  20405260.9224                   20405258.5004
   6193270.82445   4965349.40242  23909847.6724                   23909849.5164
 -12873427.56646 -10007575.01644  21967553.6174                   21967552.1524
  -6961222.66445  -5385520.64143  24071599.1804                   24071597.1954
 -12538752.87147  -9710297.16445  21098765.4144                   21098761.9104
 11  8 22  1 23  0.0000000  0  8G10G25G12G05G04G30G29G02
  -7688676.71546  -5879113.28944  22078952.5784                   22078950.1094
 -14096624.33247 -10962033.55944  22072337.3444                   22072337.7934
 -16566736.55147 -12865697.17245  20839270.3834                   20839268.0394
 -20260521.31647 -15766467.36345  20405825.1484                   20405823.2154
   6301036.97345   5049322.97743  23930355.7584                   23930356.1254
 -12886286.03946 -10017594.59443  21965107.1564                   21965105.2734
  -7016370.53545  -5428492.98443  24061104.4614                   24061103.5984
 -12482883.93447  -9666762.94145  21109397.1094                   21109393.0124
 11  8 22  1 23 30.0000000  0  8G10G25G12G05G04G30G29G02
  -7582323.50046  -5796240.71144  22099190.4224                   22099188.5594
 -14119335.56647 -10979730.60245  22068015.0004                   22068015.5004
 -16524161.05147 -12832521.46545  20847372.5164                   20847369.8524
 -20256978.05547 -15763706.35945  20406499.7504                   20406497.5274
   6408758.07445   5133261.45342  23950854.5314                   23950854.3284
 -12898567.60946 -10027164.63744  21962770.1334                   21962768.0204
  -7071566.74645  -5471503.00043  24050600.9694                   24050599.8754
 -12426882.24247  -9623125.25445  21120053.8674                   21120050.1294
 11  8 22  1 24  0.0000000  0  8G10G25G12G05G04G30G29G02
  -7475561.82446  -5713049.80543  22119506.8054                   22119504.5234
 -14141531.77747 -10997026.34044  22063791.1254                   22063791.9694
 -16481008.55147 -12798896.15245  20855583.5554                   20855581.2424
 -20252861.23847 -15760498.43045  20407282.2974                   20407280.8834
   6516432.32045   5217163.48843  23971344.2114                   23971344.4804
 -12910272.57846 -10036285.40644  21960542.7664                   21960540.8754
  -7126811.96145  -5514551.18043  24040088.3364                   24040086.9494
 -12370750.41047  -9579386.17245  21130735.5634                   21130731.1214
 11  8 22  1 24 30.0000000  0  8G10G25G12G05G04G30G29G02
  -7368397.14146  -5629544.87543  22139898.2814                   22139896.8054
 -14163214.15247 -11013921.69945  22059665.4924                   22059666.4064
 -16437282.85547 -12764824.19545  20863904.4844                   20863902.2234
 -20248173.60547 -15756845.71145  20408175.6174                   20408172.6884
   6624055.59045   5301025.75043  23991824.3594                   23991824.4694
 -12921402.64146 -10044958.16844  21958424.6724                   21958422.7424
  -7182107.81345  -5557638.81243  24029566.1414                   24029564.5864
 -12314492.21547  -9535548.62145  21141441.2274                   21141436.8244
 11  8 22  1 25  0.0000000  0  8G10G25G12G05G04G30G29G02
  -7260825.99246  -5545723.23843  22160369.0784                   22160367.4304
 -14184374.59047 -11030410.33244  22055639.1094                   22055638.6414
 -16392978.57447 -12730301.37945  20872335.7344                   20872333.0164
 -20242908.08647 -15752742.69145  20409177.5234                   20409175.1914
   6731634.05946   5384853.14842  24012296.7194                   24012294.8204
 -12931950.09446 -10053176.96144  21956417.1804                   21956415.9734
  -7237447.29345  -5600760.50043  24019034.1644                   24019033.6644
 -12258101.88747  -9491608.10545  21152172.3984                   21152168.0864
 11  8 22  1 25 30.0000000  0  8G10G25G12G05G04G30G29G02
  -7152854.44946  -5461589.56643  22180915.8594                   22180913.7234
 -14205014.96947 -11046493.73444  22051711.7504                   22051711.6254
 -16348099.25447 -12695330.48845  20880875.7114                   20880873.2344
 -20237067.90247 -15748191.87145  20410288.9304                   20410285.7584
   6839163.84046   5468642.59042  24032759.0474                   24032756.9414
 -12941917.36346 -10060943.66044  21954520.5784                   21954519.0474
  -7292833.02745  -5643918.21143  24008494.8444                   24008494.5394
 -12201583.78547  -9447568.02745  21162926.2194                   21162922.6294
 11  8 22  1 26  0.0000000  0  8G10G25G12G05G04G30G29G02
  -7044488.21146  -5377148.35243  22201537.1254                   22201535.4494
 -14225136.48447 -11062172.81644  22047881.9924                   22047882.1604
 -16302648.61747 -12659914.41845  20889524.1954                   20889522.3754
 -20230655.41847 -15743195.10945  20411508.6884                   20411506.2274
   6946641.47745   5552391.31642  24053210.1094                   24053209.1564
 -12951306.04746 -10068259.51644  21952734.3054                   21952732.6484
  -7348266.56345  -5687113.12942  23997946.8054                   23997945.5004
 -12144941.62547  -9403431.29345  21173705.4064                   21173701.3364
 11  8 22  1 26 30.0000000  0  8G10G25G12G05G04G30G29G02
  -6935727.43846  -5292399.73443  22222233.6804                   22222232.0204
 -14244734.94947 -11077444.35244  22044152.7734                   22044153.1054
 -16256625.05547 -12624051.89845  20898282.4694                   20898280.2734
 -20223667.79347 -15737750.18745  20412838.5314                   20412836.1994
   7054069.02745   5636101.09442  24073653.9614                   24073651.8404
 -12960112.66446 -10075121.82444  21951058.6414                   21951056.2624
  -7403744.34845  -5730342.56643  23987389.2034                   23987388.1724
 -12088173.66447  -9359196.52345  21184508.1804                   21184504.0044
 11  8 22  1 27  0.0000000  0  8G10G25G12G05G04G30G29G02
  -6826569.19146  -5207341.38743  22243006.0164                   22243004.3484
 -14263802.95347 -11092302.53144  22040524.6024                   22040524.2234
 -16210023.34447 -12587738.88345  20907151.1254                   20907148.3914
 -20216099.09847 -15731852.48045  20414278.7274                   20414276.1914
   7161451.84845   5719776.00843  24094088.6414                   24094086.3094
 -12968330.14546 -10081525.07044  21949494.5634                   21949492.8284
  -7459259.73445  -5773601.33242  23976826.1174                   23976823.7504
 -12031274.81247  -9314859.75445  21195335.2504                   21195331.5204
 11  8 22  1 27 30.0000000  0  8G10G25G12G05G04G30G29G02
  -6717022.65646  -5121980.46143  22263851.2424                   22263850.7114
 -14282345.06647 -11106750.93444  22036995.7114                   22036995.8094
 -16162850.48447 -12550980.81245  20916126.8984                   20916124.9774
 -20207955.29747 -15725506.64545  20415829.0864                   20415826.3874
   7268783.06245   5803410.71142  24114512.4774                   24114510.6994
 -12975963.61346 -10087473.23044  21948042.0084                   21948040.4454
  -7514818.07445  -5816893.51243  23966253.0634                   23966251.3284
 -11974252.15647  -9270426.52345  21206186.5634                   21206182.7854
 11  8 22  1 28  0.0000000  0  8G10G25G12G05G04G30G29G02
  -6607094.55546  -5036322.22344  22284769.7734                   22284768.9144
 -14300363.86347 -11120791.54344  22033566.7974                   22033567.0204
 -16115111.34047 -12513781.48445  20925211.8594                   20925209.4884
 -20199239.85547 -15718715.35945  20417487.4924                   20417484.2194
   7376058.39846   5887001.78143  24134927.0004                   24134925.7624
 -12983016.09446 -10092968.66844  21946700.4844                   21946698.4804
  -7570422.23845  -5860221.46143  23955671.5704                   23955670.5004
 -11917110.47747  -9225900.53945  21217060.6024                   21217056.1564
 11  8 22  1 28 30.0000000  0  8G10G25G12G05G04G30G29G02
  -6496782.12546  -4950364.49244  22305761.9304                   22305761.1374
 -14317852.39547 -11134418.96944  22030238.6174                   22030238.7624
 -16066800.92647 -12476137.01245  20934404.7664                   20934402.7114
 -20189947.31647 -15711474.40245  20419255.1644                   20419252.6024
   7483282.66845   5970553.16043  24155330.6024                   24155330.4654
 -12989481.19146 -10098006.42644  21945469.4384                   21945468.0744
  -7626066.02045  -5903580.20343  23945083.2114                   23945082.2854
 -11859845.04747  -9181278.12545  21227957.4224                   21227953.1724
 11  8 22  1 29  0.0000000  0  8G10G25G12G05G04G30G29G02
  -6386087.90646  -4864109.28944  22326827.1174                   22326825.1524
 -14334808.63347 -11147631.61744  22027011.6954                   22027012.4774
 -16017920.32047 -12438048.22745  20943707.0864                   20943704.5704
 -20180077.07047 -15703783.28145  20421133.1954                   20421131.0474
   7590455.69945   6054064.58642  24175725.3364                   24175725.0474
 -12995357.39846 -10102585.27744  21944351.1954                   21944350.0434
  -7681747.42246  -5946968.29343  23934486.7344                   23934486.8954
 -11802456.12547  -9136559.49245  21238878.2894                   21238874.1914
 11  8 22  1 29 30.0000000  0  8G10G25G12G05G04G30G29G02
  -6275016.60246  -4777560.24243  22347963.2424                   22347961.3204
 -14351233.09047 -11160429.89544  22023886.2034                   22023886.8914
 -15968472.21547 -12399517.24245  20953116.6644                   20953113.9184
 -20169630.68447 -15695643.21945  20423121.5164                   20423119.1724
   7697575.07845   6137534.22342  24196109.5554                   24196109.0004
 -13000645.75046 -10106706.07844  21943345.0004                   21943343.1524
  -7737467.57446  -5990386.54343  23923883.8674                   23923883.4884
 -11744946.69547  -9091746.95344  21249821.9924                   21249817.4574
 11  8 22  1 30  0.0000000  0  8G10G25G12G05G04G30G29G02
  -6163571.41046  -4690719.85543  22369169.8984                   22369168.3674
 -14367124.57847 -11172812.87144  22020862.5314                   22020862.8444
 -15918457.25447 -12360544.55945  20962634.1254                   20962631.1684
 -20158608.60947 -15687054.57445  20425218.8054                   20425216.1994
   7804640.21145   6220961.52742  24216481.7504                   24216482.1884
 -13005345.65646 -10110368.33244  21942450.9144                   21942448.9804
  -7793225.76246  -6033834.43743  23913274.3444                   23913272.9924
 -11687317.50847  -9046841.08645  21260788.6564                   21260784.3834
 11  8 22  1 30 30.0000000  0  8G10G25G12G05G04G30G29G02
  -6051760.31646  -4603594.36343  22390448.3134                   22390445.3484
 -14382486.87947 -11184783.48844  22017939.0164                   22017939.9534
 -15867882.17247 -12321135.41045  20972258.2114                   20972255.6134
 -20147015.79747 -15678021.19145  20427424.6564                   20427422.3914
   7911645.25845   6304342.10542  24236844.8524                   24236844.6884
 -13009461.24246 -10113575.28944  21941668.1334                   21941666.1024
  -7849026.16846  -6077315.21943  23902655.7584                   23902653.5084
 -11629574.69547  -9001846.68045  21271777.1174                   21271772.4064
 11  8 22  1 31  0.0000000  0  8G10G25G12G05G04G30G29G02
  -5939588.89846  -4516188.09043  22411792.6414                   22411790.7304
 -14397321.29747 -11196342.77344  22015115.8984                   22015116.6254
 -15816750.55547 -12281292.60245  20981988.0314                   20981985.5554
 -20134854.97347 -15668545.21145  20429738.7504                   20429736.4064
   8018587.05945   6387673.41042  24257195.1484                   24257194.6684
 -13012994.67246 -10116328.59844  21940995.3914                   21940993.2854
  -7904870.59045  -6120830.31642  23892028.2274                   23892027.0824
 -11571721.68447  -8956766.41045  21282785.9304                   21282781.5864
 11  8 22  1 31 30.0000000  0  8G10G25G12G05G04G30G29G02
  -5827050.47346  -4428495.84043  22433207.9384                   22433206.3834
 -14411616.73847 -11207482.06244  22012395.5234                   22012396.1174
 -15765053.68047 -12241009.32445  20991825.6414                   20991823.2464
 -20122116.26247 -15658618.92645  20432163.0164                   20432160.7624
   8125474.855 5                  24277535.531
 -13015935.10946 -10118619.83644  21940436.2114                   21940434.3914
  -7960748.00046  -6164371.10543  23881394.2344                   23881394.0084
 -11513749.52346  -8911593.27745  21293817.5234                   21293813.4614
 11  8 22  1 32  0.0000000  0  8G10G25G12G05G04G30G29G02
  -5714148.01246  -4340519.88743  22454692.8524                   22454690.9534
 -14425371.93747 -11218200.38744  22009778.6254                   22009778.7154
 -15712792.66047 -12200286.46945  21001770.7114                   21001767.8094
 -20108799.96147 -15648242.57045  20434696.9614                   20434694.6914
   8232308.164 5                  24297864.242
 -13018282.02046 -10120448.59044  21939989.2274                   21939987.9964
  -8016657.50046  -6207936.90243  23870755.7814                   23870754.8204
 -11455659.05547  -8866327.98045  21304871.5554                   21304867.4804
 11  8 22  1 32 30.0000000  0  8G10G25G12G05G04G30G29G02
  -5600887.08646  -4252264.64543  22476245.8524                   22476243.6994
 -14438588.80147 -11228499.21944  22007263.5234                   22007263.7544
 -15659971.85247 -12159127.41045  21011822.1414                   21011819.3524
 -20094909.14147 -15637418.54745  20437340.0084                   20437337.8014
   8339083.121 5                  24318183.547
 -13020037.74646 -10121816.67244  21939655.1644                   21939653.2774
  -8072601.23845  -6251529.39843  23860110.1884                   23860108.8204
 -11397454.45747  -8820973.75445  21315947.4614                   21315943.6884
 11  8 22  1 33  0.0000000  0  8G10G25G12G05G04G30G29G02
  -7062688.00046  -5391330.27343  22198073.5784                   22198071.7624
 -16026687.02747 -12465978.34844  21705058.1884                   21705058.4534
 -17182011.15247 -13345132.07045  20722187.6254                   20722185.1764
 -21655863.93747 -16853746.94545  20140300.4614                   20140297.9224
   6870382.543 5                  24038698.680
 -14596622.27346 -11350324.08244  21639641.7504                   21639639.5124
  -9704000.47346  -7522749.55143  23549665.4694                   23549663.9964
 -12914554.85947 -10003129.91045  21027253.0084                   21027248.9494
 11  8 22  1 33 30.0000000  0  8G10G25G12G05G04G30G29G02
  -6948719.52346  -5302523.69143  22219761.1724                   22219759.1054
 -16038822.59447 -12475434.60945  21702749.0944                   21702749.3984
 -17128073.17247 -13303102.48045  20732451.4064                   20732449.3984
 -21640823.51247 -16842027.11745  20143162.5634                   20143159.9804
   6977040.652 5                  24058995.477
 -14597192.85946 -11350768.67244  21639533.5864                   21639531.6524
  -9760008.66046  -7566392.27743  23539007.9534                   23539005.9924
 -12856123.04747  -9957598.61745  21038372.4144                   21038368.2934
 11  8 22  1 34  0.0000000  0  8G10G25G12G05G04G30G29G02
  -6834401.46946  -5213444.70743  22241515.1644                   22241514.0944
 -16050415.83647 -12484468.29345  21700543.3204                   21700543.1524
 -17073578.02047 -13260638.74245  20742822.3284                   20742819.0664
 -21625208.65647 -16829859.68045  20146133.7894                   20146131.8014
   7083639.430 5                  24079281.313
 -14597169.96146 -11350750.81644  21639536.4774                   21639534.8834
  -9816047.71945  -7610059.03943  23528343.6024                   23528342.0554
 -12797579.07847  -9911979.94545  21049513.2194                   21049508.9414
 11  8 22  1 34 30.0000000  0  8G10G25G12G05G04G30G29G02
  -6719739.46146  -5124097.68443  22263335.1804                   22263332.6524
 -16061467.83247 -12493080.21944  21698439.3914                   21698439.7154
 -17018530.05147 -13217744.23845  20753296.9774                   20753294.6254
 -21609021.91847 -16817246.62545  20149214.0394                   20149211.6374
   7190176.059 5                  24099553.852
 -14596555.29346 -11350271.83244  21639653.9694                   21639651.9104
  -9872118.81645  -7653750.73043  23517673.2664                   23517671.7504
 -12738926.05947  -9866276.28545  21060673.8284                   21060670.1374
 11  8 22  1 35  0.0000000  0  8G10G25G12G05G04G30G29G02
  -6604731.65646  -5034481.25843  22285220.4534                   22285219.0434
 -16071972.81247 -12501265.89845  21696440.5084                   21696441.3714
 -16962925.93447 -13174416.36745  20763878.1644                   20763875.8094
 -21592259.02347 -16804184.61345  20152403.7664                   20152401.4494
   7296654.617 6                  24119816.758
 -14595343.76646 -11349327.77744  21639883.7194                   21639883.2544
  -9928216.27046  -7697463.00843  23506998.1024                   23506997.1294
 -12680159.88747  -9820484.46145  21071856.6254                   21071852.3914
 11  8 22  1 35 30.0000000  0  8G10G25G12G05G04G30G29G02
  -6489387.98846  -4944603.07843  22307169.2344                   22307167.1644
 -16081936.78947 -12509030.01245  21694544.6094                   21694545.3134
 -16906773.44947 -13130661.18445  20774564.2034                   20774561.4884
 -21574927.25047 -16790679.32045  20155701.7664                   20155699.5664
   7403067.582 5                  24140066.453
 -14593541.78946 -11347923.62544  21640227.2584                   21640225.6954
  -9984346.17246  -7741200.59443  23496316.8134                   23496315.7814
 -12621288.66047  -9774610.77745  21083059.8594                   21083055.5554
 11  8 22  1 36  0.0000000  0  9G10G25G12G26G05G04G30G29G02
  -6373708.03946  -4854462.92643  22329182.4614                   22329181.1094
 -16091354.99647 -12516368.86745  21692752.1564                   21692752.9654
 -16850070.39547 -13086477.00445  20785354.5634                   20785351.7384
                                  24690278.750
 -21557022.91047 -16776727.87545  20159108.8834                   20159106.6294
   7509418.21545   5990918.05953  24160303.7344                   24160307.8954
 -14591145.36346 -11346056.28144  21640682.9224                   21640681.3984
 -10040503.82446  -7784959.75843  23485630.6174                   23485630.2704
 -12562309.37947  -9728652.88345  21094283.1334                   21094278.9694
 11  8 22  1 36 30.0000000  0  9G10G25G12G26G05G04G30G29G02
  -6257698.27046  -4764065.70343  22351259.7424                   22351256.8914
 -16100229.98047 -12523284.41445  21691063.7894                   21691064.0004
 -16792822.13747 -13041867.98845  20796247.8594                   20796245.3404
                                  24677899.414
 -21538550.05947 -16762333.42645  20162624.3524                   20162621.9534
   7615702.28945   6073736.82042  24180528.5004                   24180530.6764
 -14588157.52347 -11343728.09044  21641250.9774                   21641250.4304
 -10096691.68446  -7828742.50443  23474938.2894                   23474937.5234
 -12503226.72347  -9682614.45745  21105526.3444                   21105522.1884
 11  8 22  1 37  0.0000000  0  9G10G25G12G26G05G04G30G29G02
  -6141365.04746  -4673416.44943  22373396.5004                   22373394.2734
 -16108564.25047 -12529778.63745  21689477.2034                   21689477.9924
 -16735033.05946 -12996837.55145  20807244.7504                   20807242.7814
  -6591968.28115                  24665495.070
 -21519512.92647 -16747499.28545  20166247.2114                   20166244.7114
   7721915.89545   6156500.66043  24200740.5864                   24200741.8594
 -14584581.32446 -11340941.43044  21641932.0314                   21641930.6604
 -10152912.22746  -7872550.69543  23464240.0394                   23464238.6054
 -12444044.78546  -9636498.65645  21116787.9304                   21116784.5354
 11  8 22  1 37 30.0000000  0  9G10G25G12G26G05G04G30G29G02
  -6024704.34046  -4582512.02043  22395596.6024                   22395594.0164
 -16116349.43047 -12535845.00845  21687995.9064                   21687996.4774
 -16676697.48847 -12951381.28145  20818346.7974                   20818343.6724
  -6657294.887 5                  24653062.563
 -21499904.16047 -16732219.70745  20169978.5004                   20169976.0944
   7828065.97345   6239214.98442  24220940.2194                   24220941.0944
 -14580409.16047 -11337690.39844  21642725.8054                   21642724.3094
 -10209156.94946  -7916377.71943  23453536.6334                   23453535.5314
 -12384757.10247  -9590300.45345  21128070.6024                   21128066.0314
 11  8 22  1 38  0.0000000  0  9G10G25G12G26G05G04G30G29G02
  -5907713.41046  -4491350.28143  22417858.6954                   22417857.2504
 -16123578.96947 -12541478.40645  21686620.3834                   21686620.7384
 -16617811.31247 -12905495.96145  20829551.0554                   20829549.1294
                                  24640607.961
 -21479718.55147 -16716490.64845  20173819.6724                   20173817.2234
   7934157.58245   6321883.73042  24241129.6644                   24241129.4494
 -14575634.93746 -11333970.23844  21643634.5164                   21643632.9304
 -10265419.44146  -7960218.58643  23442830.4534                   23442829.2464
 -12325358.90247  -9544016.14845  21139373.1414                   21139369.0084
 11  8 22  1 38 30.0000000  0  9G10G25G12G26G05G04G30G29G02
  -5790405.14146  -4399941.26643  22440181.9064                   22440180.1174
 -16130261.66847 -12546685.69945  21685348.7034                   21685349.3164
 -16558385.70747 -12859190.30545  20840860.2664                   20840857.9264
  -6788332.80915                  24628127.141
 -21458966.65247 -16700320.31245  20177767.8984                   20177766.1214
   8040180.21945   6404498.74642  24261304.2114                   24261305.0434
 -14570268.14146 -11329788.32844  21644655.5634                   21644654.0904
 -10321708.15246  -8004079.89543  23432118.1954                   23432118.1414
 -12265860.54747  -9497653.78945  21150695.2584                   21150691.1724
 11  8 22  1 39  0.0000000  0  9G10G25G12G26G05G04G30G29G02
  -5672775.64846  -4308281.95343  22462566.4144                   22462564.8484
 -16136389.63747 -12551460.73045  21684182.4844                   21684183.3484
 -16498415.08647 -12812459.96545  20852271.5554                   20852269.3014
                                  24615622.945
 -21437641.74247 -16683703.48845  20181825.7894                   20181824.0164
   8146140.81655   6487065.45352  24281468.3914                   24281468.6994
 -14564301.52347 -11325139.01644  21645791.2194                   21645789.4734
 -10378015.00446  -8047955.30143  23421404.3364                   23421403.1604
 -12206255.79747  -9451208.52745  21162037.9384                   21162033.5434
 11  8 22  1 39 30.0000000  0  9G10G25G12G26G05G04G30G29G02
  -5554825.19146  -4216372.53543  22485011.8914                   22485009.5314
 -16141959.13347 -12555800.59445  21683123.1644                   21683123.1804
 -16437897.98047 -12765303.79745  20863787.9924                   20863785.4104
                                  24603096.742
 -21415741.43747 -16666638.29345  20185993.8914                   20185991.7854
   8252041.68045   6569585.47342  24301620.2344                   24301620.7504
 -14557731.92646 -11320019.85544  21647041.2424                   21647039.8164
 -10434335.92246  -8091841.69943  23410685.9454                   23410685.4224
 -12146542.71147  -9404678.85945  21173401.3754                   21173396.7814
 11  8 22  1 40  0.0000000  0  9G10G25G12G26G05G04G30G29G02
  -5436561.77046  -4124219.23443  22507516.1024                   22507514.5044
 -16146974.25847 -12559708.48845  21682168.1094                   21682168.8594
 -16376841.53147 -12717727.35545  20875406.5944                   20875403.8134
  -6985814.977 5                  24590547.711
 -21393271.22747 -16649129.02745  20190269.6954                   20190267.0434
   8357877.15245   6652054.70742  24321760.4694                   24321759.4264
 -14550564.04347 -11314434.50044  21648405.2584                   21648403.9414
 -10490675.34046  -8135742.48843  23399965.0864                   23399964.2504
 -12086727.03547  -9358069.23845  21184783.5554                   21184779.3244
 11  8 22  1 40 30.0000000  0  9G10G25G12G26G05G04G30G29G02
  -5317985.61346  -4031822.27743  22530080.3284                   22530078.6604
 -16151431.44147 -12563181.62545  21681320.2034                   21681320.6604
 -16315244.29347 -12669729.52345  20887128.2584                   20887125.5864
  -7051876.39115                  24577975.391
 -21370228.92247 -16631173.96145  20194654.5784                   20194652.5044
   8463649.68045   6734474.81642  24341888.3524                   24341885.9844
 -14542794.93447 -11308380.65644  21649883.6884                   21649882.4264
 -10547029.00446  -8179654.36343  23389241.6644                   23389240.8634
 -12026806.81247  -9311378.17645  21196185.9924                   21196181.3204
 11  8 22  1 41  0.0000000  0  9G10G25G12G26G05G04G30G29G02
  -5199102.14546  -3939185.84043  22552702.8594                   22552701.2544
 -16155332.16047 -12566221.14145  21680578.2114                   21680578.0394
 -16253110.05547 -12621313.25445  20898952.1174                   20898949.1804
  -7118051.680 5                  24565382.008
 -21346617.37947 -16612775.34045  20199147.9614                   20199145.2344
   8569356.41444   6816843.70342  24362004.4454                   24362001.7584
 -14534426.76646 -11301860.02344  21651476.2584                   21651474.7034
 -10603397.77346  -8223578.05143  23378515.0084                   23378513.4774
 -11966785.02747  -9264607.95745  21207607.3054                   21207603.1414
 11  8 22  1 41 30.0000000  0  9G10G25G12G26G05G04G30G29G02
  -5079913.60546  -3846311.68443  22575384.5864                   22575382.0594
 -16158674.82847 -12568825.81645  21679942.3674                   21679942.1414
 -16190439.77347 -12572479.27745  20910878.1644                   20910875.1994
  -7184337.62115                  24552769.211
 -21322436.68447 -16593933.22345  20203749.2344                   20203746.7734
                                  24382106.6174                   24382105.0354
 -14525458.57447 -11294871.83244  21653182.6954                   21653181.4144
 -10659780.27746  -8267512.40243  23367786.0704                   23367783.8404
 -11906661.53147  -9217758.48045  21219048.7114                   21219044.6454
 11  8 22  1 42  0.0000000  0  9G10G25G12G26G05G04G30G29G02
  -4960423.04746  -3753202.18443  22598121.5784                   22598120.2734
 -16161458.57047 -12570994.98445  21679412.0864                   21679412.0044
 -16127234.80547 -12523228.68045  20922905.2894                   20922902.5084
  -7250731.219 5                  24540134.539
 -21297686.94547 -16574647.69945  20208458.9924                   20208456.7854
   8780574.00855   6981428.81652  24402196.5394                   24402195.6994
 -14515890.06246 -11287415.86344  21655003.7584                   21655002.0664
 -10716175.21546  -8311456.47343  23357054.8594                   23357053.2114
 -11846437.20747  -9170830.44544  21230509.5554                   21230504.5474
 11  8 22  1 42 30.0000000  0  9G10G25G12G26G05G04G30G29G02
  -4840624.60946  -3659852.78143  22620917.9384                   22620917.2544
 -16163673.82847 -12572721.16045  21678990.8054                   21678991.0784
 -16063488.08647 -12473555.91445  20935035.4844                   20935033.6994
  -7317220.727 5                  24527482.477
 -21272360.35547 -16554912.68045  20213278.3204                   20213276.3364
   8886092.56645   7063651.10242  24422276.8754                   24422275.4884
 -14505712.36346 -11279485.18744  21656940.9924                   21656939.0434
 -10772572.44946  -8355402.34443  23346322.2114                   23346319.8594
 -11786103.76247  -9123817.38344  21241990.0394                   21241986.0634
 11  8 22  1 43  0.0000000  0  9G10G25G12G26G05G04G30G29G02
  -4720529.55146  -3566272.25043  22643772.1884                   22643770.3324
 -16165328.30147 -12574010.36745  21678676.2034                   21678676.1644
 -15999210.09047 -12423469.19145  20947267.6414                   20947265.4924
  -7383812.090 5                  24514810.008
 -21246465.71547 -16534735.01645  20218205.9454                   20218203.4924
   8991545.18045   7145822.02742  24442343.6414                   24442343.1604
 -14494933.80946 -11271086.33244  21658991.5234                   21658990.5044
 -10828979.24246  -8399355.64543  23335588.0314                   23335586.9384
 -11725670.62547  -9076726.63344  21253490.1414                   21253485.8054
 11  8 22  1 43 30.0000000  0  9G10G25G12G26G05G04G30G29G02
  -4600133.42646  -3472457.09443  22666683.8134                   22666682.0084
 -16166413.63747 -12574856.09445  21678469.1174                   21678469.3634
 -15934394.49647 -12372963.54745  20959601.3444                   20959599.2034
  -7450494.590 5                  24502119.992
 -21219996.25847 -16514109.45745  20223242.8914                   20223240.3204
   9096938.92645   7227947.03942  24462399.1644                   24462398.3634
 -14483546.71146 -11262213.27344  21661158.9924                   21661156.9064
 -10885386.72746  -8443309.48443  23324853.4144                   23324853.6334
 -11665130.49246  -9029552.52745  21265010.6334                   21265006.2274
 11  8 22  1 44  0.0000000  0  9G10G25G12G26G05G04G30G29G02
  -4479446.82046  -3378415.61743  22689649.0704                   22689646.7384
 -16166936.35247 -12575263.41445  21678369.2584                   21678369.9184
 -15869050.26247 -12322045.97345  20972036.0314                   20972033.7384
  -7517272.629 5                  24489412.250
 -21192959.91847 -16493042.16445  20228387.8524                   20228385.2934
   9202266.21145   7310020.21142  24482442.5004                   24482441.8204
 -14471558.26246 -11252871.63744  21663439.8914                   21663438.0004
 -10941800.96946  -8487268.59843  23314118.5554                   23314118.0314
 -11604491.70346  -8982301.53544  21276549.2894                   21276545.9804
 11  8 22  1 44 30.0000000  0  9G10G25G12G26G05G04G30G29G02
  -4358470.49646  -3284148.38743  22712669.6804                   22712668.2934
 -16166893.59847 -12575230.10545  21678377.8674                   21678379.3244
 -15803176.84447 -12270716.06245  20984571.8754                   20984568.9654
  -7584141.113 5                  24476687.180
 -21165354.90247 -16471531.74246  20233641.0314                   20233638.1804
   9307528.86745   7392043.08242  24502473.6644                   24502472.7814
 -14458966.23446 -11243059.66844  21665836.3364                   21665834.3204
 -10998218.50446  -8531230.27343  23303383.3754                   23303381.3914
 -11543752.59047  -8934972.35945  21288107.6024                   21288103.9144
 11  8 22  1 45  0.0000000  0  9G10G25G12G26G05G04G30G29G02
  -4237209.72746  -3189659.48843  22735745.5314                   22735743.1604
 -16166287.05147 -12574757.47745  21678493.2974                   21678493.7734
 -15736778.55547 -12218977.14845  20997206.8284                   20997204.2074
  -7651099.738 5                  24463945.641
 -21137184.82847 -16449581.02046  20239001.3364                   20238999.2034
   9412724.12145   7474013.44942  24522490.4774                   24522491.4804
 -14445772.91847 -11232779.17644  21668346.6024                   21668344.7664
 -11054640.48446  -8575195.44943  23292645.8204                   23292644.3954
 -11482915.67647  -8887566.98445  21299685.6094                   21299680.8754
 11  8 22  1 45 30.0000000  0  9G10G25G12G26G05G04G30G29G02
  -4115667.55546  -3094951.32843  22758873.2114                   22758872.9304
 -16165116.32847 -12573845.22745  21678716.2274                   21678716.7734
 -15669857.37947 -12166830.80545  21009941.5784                   21009938.5234
  -7718145.691 5                  24451186.344
 -21108450.54347 -16427190.65646  20244469.7344                   20244467.1414
   9517851.60945   7555930.95342  24542495.9454                   24542497.5314
 -14431978.72346 -11222030.44544  21670971.4224                   21670969.8284
 -11111065.83246  -8619163.21143  23281909.0164                   23281907.7424
 -11421982.40247  -8840086.52045  21311279.4694                   21311275.9184
 11  8 22  1 46  0.0000000  0  9G10G25G12G26G05G04G30G29G02
  -3993849.65246  -3000028.33243  22782054.9774                   22782054.0124
 -16163383.51647 -12572494.98845  21679045.6484                   21679046.2464
 -15602417.52347 -12114280.28145  21022775.0634                   21022772.1764
  -7785278.707 5                  24438411.508
 -21079155.25847 -16404363.15245  20250044.3984                   20250041.9614
   9622908.31645   7637793.30942  24562488.0164                   24562489.0984
 -14417586.23846 -11210815.53544  21673711.1174                   21673708.6724
 -11167496.15246  -8663134.88743  23271170.7274                   23271169.1564
 -11360956.15647  -8792533.60545  21322893.1724                   21322889.0944
 11  8 22  1 46 30.0000000  0  9G10G25G12G26G05G04G30G29G02
  -3871755.71146  -2904890.23443  22805288.7664                   22805288.2814
 -16161084.40247 -12570703.48445  21679483.2424                   21679483.6724
 -15534457.68447 -12061324.57845  21035707.7814                   21035704.3594
  -7852492.437 5                  24425621.883
 -21049296.35947 -16381096.46546  20255725.6414                   20255723.8284
   9727897.41855   7719603.03152  24582467.8364                   24582466.3874
 -14402592.08646 -11199131.78144  21676564.1024                   21676561.8134
 -11223926.61346  -8707106.68743  23260431.9224                   23260431.1764
 -11299834.07446  -8744906.01245  21334524.0314                   21334520.1024
 11  8 22  1 47  0.0000000  0  9G10G25G12G26G05G04G30G29G02
  -3749385.38346  -2809536.74243  22828574.9844                   22828574.0594
 -16158215.27347 -12568467.79345  21680028.9614                   21680029.4414
 -15465976.12947 -12007962.34445  21048738.6414                   21048736.1684
  -7919780.836 5                  24412817.141
 -21018871.64147 -16357388.87545  20261515.5554                   20261513.9224
   9832821.79345   7801362.25842  24602432.6564                   24602432.9414
 -14386993.15246 -11186976.78544  21679532.5004                   21679530.3484
 -11280352.28946  -8751074.72743  23249696.1724                   23249693.3014
 -11238612.99646  -8697201.27745  21346173.7504                   21346169.9384
 11  8 22  1 47 30.0000000  0  9G10G25G12G26G05G04G30G29G02
  -3626744.94146  -2713972.80543  22851911.9064                   22851911.4964
 -16154778.91447 -12565790.10945  21680682.5164                   21680683.1254
 -15396978.51247 -11954197.98845  21061868.7274                   21061866.1684
  -7987144.004 5                  24399998.297
 -20987884.89147 -16333243.34046  20267412.0234                   20267410.2974
   9937677.77345   7883068.20342  24622386.1024                   24622385.7894
 -14370792.92247 -11174353.23444  21682615.0314                   21682613.1254
 -11336775.73846  -8795041.04343  23238957.8364                   23238956.4844
 -11177297.21947  -8649422.74245  21357841.6094                   21357838.4144
 11  8 22  1 48  0.0000000  0  9G10G25G12G26G05G04G30G29G02
  -3503839.67245  -2618202.48043  22875300.5704                   22875298.8984
 -16150776.80147 -12562671.57445  21681444.3674                   21681445.4264
 -15327468.29347 -11900034.19545  21075096.2274                   21075093.6024
  -8054581.273 5                  24387165.844
 -20956339.12547 -16308662.20746  20273414.9614                   20273413.0664
  10042462.96145   7964718.97742  24642326.7664                   24642327.0984
 -14353993.50047 -11161262.79344  21685812.1414                   21685810.1954
 -11393197.29746  -8839005.87543  23228220.5864                   23228220.0594
 -11115889.21147  -8601572.34045  21369528.0634                   21369523.3834
 11  8 22  1 48 30.0000000  0  9G10G25G12G26G05G04G30G29G02
  -3380674.24246  -2522229.49643  22898738.8204                   22898737.3134
 -16146210.03147 -12559113.05145  21682313.7114                   21682314.8404
 -15257448.97347 -11845473.70345  21088420.3444                   21088418.0234
  -8122090.918 5                  24374319.180
 -20924236.87947 -16283647.46946  20279523.6174                   20279521.7624
  10147175.684 5                  24662252.805
 -14336596.73447 -11147706.85944  21689122.2274                   21689120.8134
 -11449617.60246  -8882969.75043  23217484.9774                   23217483.3984
 -11054391.10947  -8553651.73845  21381229.8364                   21381226.4924
 11  8 22  1 49  0.0000000  0  9G10G25G12G26G05G04G30G29G02
  -3257241.43746  -2426048.11743  22922227.3204                   22922225.4964
 -16141067.94147 -12555106.21545  21683292.2274                   21683292.9924
 -15186912.32047 -11790510.09445  21101842.8054                   21101840.7664
  -8189660.078 5                  24361460.406
 -20891568.98047 -16258191.94946  20285740.1804                   20285738.1804
  10251825.961 5                  24682165.633
 -14318592.54347 -11133677.62544  21692548.3054                   21692546.7344
 -11506024.69146  -8926923.34443  23206750.7114                   23206749.1804
 -10992793.68047  -8505653.73445  21392952.5314                   21392948.2234
 11  8 22  1 49 30.0000000  0  8G10G25G12G26G05G30G29G02
  -3133548.93046  -2329664.37543  22945765.2274                   22945762.3714
 -16135355.05947 -12550654.60945  21684379.0864                   21684379.8524
 -15115865.35247 -11735148.83645  21115363.0704                   21115360.6294
  -8257290.785 5                  24348590.070
 -20858341.35247 -16232300.27746  20292063.7504                   20292061.1604
 -14299986.28947 -11119179.24244  21696089.3524                   21696087.4144
 -11562422.36346  -8970869.59043  23196018.1724                   23196016.7854
 -10931102.39547  -8457582.58245  21404692.2194                   21404687.9774
 11  8 22  1 50  0.0000000  0  8G10G25G12G26G05G30G29G02
  -3009597.63346  -2233078.99243  22969351.6644                   22969350.3524
 -16129068.79347 -12545756.20745  21685575.6094                   21685575.7894
 -15044307.20747 -11679389.27045  21128979.9614                   21128977.4534
  -8324977.645 5                  24335710.797
 -20824552.50447 -16205971.30146  20298492.7424                   20298490.6094
 -14280776.04747 -11104210.21544  21699744.2664                   21699742.8874
 -11618807.25046  -9014805.86343  23185288.9774                   23185287.1174
 -10869315.51247  -8409436.95745  21416449.0164                   21416444.8404
 11  8 22  1 50 30.0000000  0  8G10G25G12G26G05G30G29G02
  -2885395.31646  -2136298.00042  22992987.6024                   22992986.2424
 -16122213.41847 -12540414.34845  21686880.4844                   21686880.6884
 -14972245.62147 -11623237.40645  21142692.4844                   21142690.4734
  -8392722.277 5                  24322818.430
 -20790208.55547 -16179209.76246  20305028.9614                   20305026.0554
 -14260966.67647 -11088774.34844  21703514.4614                   21703512.7074
 -11675182.48845  -9058734.59043  23174561.7034                   23174559.6484
 -10807438.35247  -8361220.96945  21428223.5704                   21428219.4654
 11  8 22  1 51  0.0000000  0  8G10G25G12G26G05G30G29G02
  -2760934.51245  -2039315.55143  23016671.0314                   23016669.6254
 -16114778.16847 -12534620.64145  21688294.8444                   21688295.1954
 -14899671.75847 -11566686.36745  21156503.3984                   21156501.1094
  -8460511.434 5                  24309918.680
 -20755299.69147 -16152008.04746  20311671.8754                   20311669.3874
 -14240548.16846 -11072863.81644  21707399.7814                   21707398.2464
 -11731536.31646  -9102646.65643  23163837.0704                   23163836.0234
 -10745460.92247  -8312926.84845  21440018.0084                   21440013.9774
 11  8 22  1 51 30.0000000  0  8G10G25G12G26G05G30G29G02
  -2636218.47345  -1942134.29743  23040403.2974                   23040402.7934
 -16106762.78547 -12528374.87545  21689820.4924                   21689820.6804
 -14826587.71547 -11509737.77745  21170409.4534                   21170408.1724
  -8528342.148 5                  24297010.750
 -20719827.29347 -16124367.21146  20318421.7584                   20318419.5354
 -14219521.00047 -11056478.99644  21711400.7344                   21711399.4184
 -11787867.53946  -9146541.09843  23153117.4064                   23153116.0904
 -10683383.94547  -8264555.16445  21451830.2894                   21451826.5984
 11  8 22  1 52  0.0000000  0  8G10G25G12G26G05G30G29G02
  -2511252.69145  -1844758.32443  23064183.4454                   23064183.8634
 -16098169.56247 -12521678.86345  21691455.9384                   21691456.0664
 -14752997.91047 -11452395.09045  21184414.5944                   21184411.8634
  -8596213.859 5                  24284095.555
 -20683794.58247 -16096289.76246  20325278.6884                   20325276.2154
 -14197888.10247 -11039622.19544  21715517.6334                   21715516.0634
 -11844177.19946  -9190418.71143  23142402.2424                   23142400.9384
 -10621210.69147  -8216108.45745  21463661.8674                   21463657.1604
 11  8 22  1 52 30.0000000  0  8G10G25G12G26G05G30G29G02
  -2386047.91846  -1747196.19943  23088010.1094                   23088009.2664
 -16089006.05547 -12514538.45745  21693199.4064                   21693199.1134
 -14678912.39847 -11394666.14145  21198511.7664                   21198509.8244
  -8664131.598 5                  24271170.516
 -20647211.18747 -16067783.21146  20332239.7734                   20332237.7074
 -14175657.74647 -11022299.84044  21719747.8444                   21719746.4264
 -11900471.76646  -9234284.58243  23131690.3204                   23131688.7624
 -10558949.36747  -8167593.12944  21475509.7664                   21475505.0354
 11  8 22  1 53  0.0000000  0  8G10G25G12G26G05G30G29G02
  -2260607.78146  -1649450.66443  23111880.8284                   23111879.3984
 -16079272.71947 -12506954.03945  21695051.7504                   21695051.9104
 -14604333.72747 -11336552.90245  21212704.2114                   21212701.5704
  -8732092.867 5                  24258238.406
 -20610078.28147 -16038848.47346  20339306.5394                   20339303.9264
 -14152831.16847 -11004512.87944  21724091.1954                   21724089.9734
 -11956750.63346  -9278138.21943  23120980.4144                   23120978.6454
 -10496601.21547  -8119010.14144  21487374.5314                   21487370.0474
 11  8 22  1 53 30.0000000  0  8G10G25G12G26G05G30G29G02
  -2134932.98046  -1551522.26843  23135795.9694                   23135794.3054
 -16068966.97747 -12498923.58645  21697012.4384                   21697012.8794
 -14529261.72347 -11278055.24245  21226989.4304                   21226986.7544
  -8800092.316 5                  24245298.258
 -20572394.94547 -16009484.82446  20346477.3674                   20346474.8014
 -14129406.43747 -10986259.83644  21728549.5234                   21728547.6644
 -12013009.98846  -9321976.59443  23110274.1174                   23110273.1024
 -10434164.35247  -8070358.03145  21499256.4224                   21499251.8674
 11  8 22  1 54  0.0000000  0  8G10G25G12G26G05G30G29G02
  -2009024.32646  -1453411.68243  23159755.0944                   23159754.4774
 -16058086.47347 -12490445.27345  21699083.4384                   21699083.6254
 -14453696.84047 -11219173.53145  21241368.5704                   21241366.8634
  -8868124.629 5                  24232351.578
 -20534160.26247 -15979691.55546  20353752.7894                   20353750.7234
 -14105381.93047 -10967539.45344  21733120.9224                   21733119.2234
 -12069246.19946  -9365796.97744  23099572.5474                   23099571.3524
 -10371637.47747  -8021635.78144  21511154.8914                   21511150.0744
 11  8 22  1 54 30.0000000  0  8G10G25G12G26G05G30G29G02
  -1882887.52346  -1355123.30943  23183759.0084                   23183757.1334
 -16046633.59447 -12481520.94945  21701262.5704                   21701262.6604
 -14377643.51247 -11159911.21945  21255842.4144                   21255839.2774
  -8936189.332 5                  24219398.055
 -20495377.95747 -15949471.57846  20361132.9304                   20361130.5434
 -14080760.65647 -10948354.04744  21737806.2974                   21737804.7114
 -12125460.54346  -9409600.31643  23088874.5084                   23088874.4024
 -10309023.50047  -7972845.67644  21523069.3054                   21523065.0124
 11  8 22  1 55  0.0000000  0  8G10G25G12G26G05G30G29G02
  -1756522.03546  -1256656.77343  23207804.9064                   23207802.9884
 -16034604.77747 -12472147.84845  21703551.9304                   21703552.3524
 -14301100.33247 -11100267.19945  21270407.3984                   21270405.2544
  -9004279.812 5                  24206442.578
 -20456045.59447 -15918822.97746  20368617.4534                   20368615.2584
 -14055539.93046 -10928701.53945  21742605.9774                   21742604.0084
 -12181648.07046  -9453382.73443  23078184.1334                   23078182.5164
 -10246319.48047  -7923985.39844  21535001.3134                   21534997.6374
 11  8 22  1 55 30.0000000  0  8G10G25G12G26G05G30G29G02
  -1629933.26646  -1158016.25043  23231893.8984                   23231892.4414
 -16022002.43747 -12462327.84045  21705949.8134                   21705949.9414
 -14224072.17647 -11040245.27345  21285065.6254                   21285063.3554
  -9072395.707 5                  24193479.531
 -20416167.08247 -15887748.80146  20376206.5164                   20376203.8204
 -14029722.75847 -10908584.27044  21747518.6954                   21747516.9024
 -12237809.96146  -9497145.18043  23067496.2974                   23067495.1524
 -10183528.48847  -7875057.34845  21546949.9454                   21546946.1174
 11  8 22  1 56  0.0000000  0  8G10G25G12G26G05G30G29G02
  -1503122.10246  -1059202.41442  23256025.4304                   23256023.0944
 -16008824.10547 -12452059.00845  21708457.3594                   21708458.0274
 -14146558.56647 -10979845.07445  21299816.0784                   21299814.0984
  -9140531.477 5                  24180513.602
 -20375741.28947 -15856248.18746  20383899.5554                   20383896.7504
 -14003307.49247 -10888000.93744  21752544.8674                   21752543.4734
 -12293942.27746  -9540884.58643  23056814.8594                   23056813.4104
 -10120648.76647  -7826060.16044  21558915.1024                   21558911.6524
 11  8 22  1 56 30.0000000  0  8G10G25G12G26G05G30G29G02
  -1376093.34045   -960219.01242  23280198.3364                   23280196.5164
 -15995071.45747 -12441342.66445  21711074.9304                   21711074.9224
 -14068563.72747 -10919069.89545  21314657.9304                   21314656.0314
  -9208685.703 5                  24167545.195
 -20334771.31647 -15824323.53146  20391695.3134                   20391693.1334
 -13976296.48047 -10866953.41444  21757684.9384                   21757683.2934
 -12350045.19946  -9584601.08643  23046138.7584                   23046137.3634
 -10057682.61347  -7776995.63345  21570897.7034                   21570893.2424
 11  8 22  1 57  0.0000000  0  8G10G25G12G26G05G30G29G02
  -1248850.35246   -861068.64142  23304412.5784                   23304410.0434
 -15980745.13347 -12430179.29745  21713801.0864                   21713801.5234
 -13990090.73847 -10857922.13345  21329591.1484                   21329588.7854
  -9276856.137 5                  24154571.750
 -20293258.87147 -15791976.16446  20399595.1024                   20399592.6054
 -13948691.05147 -10845442.69944  21762938.1884                   21762936.4774
 -12406118.10946  -9628294.22344  23035468.5084                   23035466.9654
  -9994631.02047  -7727864.51644  21582895.7194                   21582891.5164
 11  8 22  1 57 30.0000000  0  8G10G25G12G26G05G30G29G02
  -1121392.55546   -761750.87543  23328665.2504                   23328665.1334
 -15965841.53547 -12418566.10545  21716636.7194                   21716637.2464
 -13911138.21547 -10796400.71145  21344615.1644                   21344612.5744
  -9345035.457 6                  24141598.328
 -20251201.81247 -15759204.42246  20407598.1804                   20407595.8404
 -13920488.44946 -10823466.64844  21768305.0004                   21768303.3674
 -12462156.00846  -9671960.05944  23024804.4614                   23024803.2034
  -9931490.79347  -7678664.34444  21594911.1804                   21594907.0984
 11  8 22  1 58  0.0000000  0  8G10G25G12G26G05G30G29G02
   -993724.41846   -662269.21142  23352960.7424                   23352959.1454
 -15950362.33247 -12406504.39145  21719582.4454                   21719583.1174
 -13831709.84047 -10734508.48045  21359729.5234                   21359727.5554
  -9413222.863 6                  24128622.273
 -20208603.14847 -15726010.66045  20415704.7274                   20415702.2624
 -13891690.95746 -10801027.04744  21773784.9774                   21773783.1764
 -12518159.09046  -9715598.79343  23014147.9534                   23014146.3524
  -9868264.03147  -7629396.74245  21606943.5394                   21606938.6374
 11  8 22  1 58 30.0000000  0  8G10G25G12G26G05G30G29G02
   -865851.83246   -562628.25443  23377294.5314                   23377292.0004
 -15934310.09447 -12393996.14845  21722637.5944                   21722637.7424
 -13751810.56647 -10672249.32045  21374934.4384                   21374931.5784
  -9481417.594 5                  24115644.336
 -20165466.93047 -15692398.01646  20423912.7504                   20423910.8484
 -13862301.88347 -10778126.48844  21779377.1954                   21779376.2934
 -12574127.91046  -9759210.82044  23003496.7584                   23003495.7274
  -9804953.72347  -7580064.03945  21618990.5164                   21618986.3444
 11  8 22  1 59  0.0000000  0  8G10G25G12G26G05G30G29G02
   -737777.60546   -462830.14843  23401666.5944                   23401664.7234
 -15917684.91447 -12381041.45745  21725800.9144                   21725801.4224
 -13671442.93447 -10609625.20745  21390227.7814                   21390225.3554
  -9549616.45745  -7413867.92653  24102666.6564                   24102668.5394
 -20121794.51247 -15658367.55946  20432223.5784                   20432221.7074
 -13832322.15647 -10754765.65244  21785082.0634                   21785081.3054
 -12630061.28146  -9802795.25444  22992852.9304                   22992851.3954
  -9741560.57847  -7530666.77745  21631054.0084                   21631049.8284
 11  8 22  1 59 30.0000000  0  8G10G25G12G26G05G30G29G02
   -609501.48446   -362874.75043  23426075.5864                   23426075.0354
 -15900484.00447 -12367638.14545  21729074.2504                   21729074.3164
 -13590606.15647 -10546635.52345  21405609.6804                   21405607.6684
  -9617813.11345  -7467008.05942  24089690.0554                   24089689.2934
 -20077584.25047 -15623918.00046  20440636.6254                   20440634.2234
 -13801749.53147 -10730942.83244  21790900.2114                   21790898.6954
 -12685954.76646  -9846348.57843  22982216.4224                   22982215.5164
  -9678082.23847  -7481203.13345  21643134.1094                   21643129.3484
 11  8 22  2  0  0.0000000  0  8G10G25G12G26G05G30G29G02
   -481024.71946   -262763.01243  23450524.3914                   23450523.0784
 -15882705.31247 -12353784.61745  21732457.5704                   21732457.8244
 -13509300.68047 -10483280.62945  21421081.6254                   21421079.7504
  -9686002.73845  -7520142.73842  24076714.0864                   24076712.5864
 -20032835.47747 -15589048.82446  20449151.9534                   20449150.0864
 -13770582.82047 -10706657.08644  21796830.9064                   21796829.7544
 -12741804.60246  -9889867.89544  22971588.8444                   22971587.6414
  -9614516.67647  -7431671.53145  21655229.1724                   21655225.5044
 11  8 22  2  0 30.0000000  0  8G10G25G12G26G05G30G29G02
   -352351.56646   -162498.26243  23475010.6414                   23475008.2074
 -15864350.48447 -12339482.14545  21735949.6254                   21735950.2234
 -13427530.12147 -10419563.32445  21436642.5314                   21436639.9924
  -9754183.11345  -7573270.21542  24063739.0704                   24063737.8984
 -19987551.06647 -15553762.25846  20457769.6254                   20457767.2974
 -13738824.39146 -10681910.25844  21802874.2114                   21802873.5474
 -12797610.85546  -9933353.26244  22960968.8674                   22960967.9304
  -9550865.88347  -7382073.50045  21667341.7344                   21667337.7344
 11  8 22  2  1  0.0000000  0  8G10G25G12G26G05G30G29G02
   -223490.13345    -62086.78543  23499531.1024                   23499530.7854
 -15845424.90247 -12324734.93445  21739551.9614                   21739551.5864
 -13345301.95747 -10355489.44945  21452289.6954                   21452287.7274
  -9822356.53145  -7626392.28542  24050766.4694                   24050764.7194
 -19941737.90647 -15518063.68746  20466487.7504                   20466484.8444
 -13706480.29346 -10656707.07844  21809029.9384                   21809028.2424
 -12853377.08246  -9976807.45344  22950357.9844                   22950356.3134
  -9487135.78946  -7332413.69144  21679468.6174                   21679465.2774
 11  8 22  2  1 30.0000000  0  8G10G25G12G26G05G30G29G02
    -94433.32846     38476.85543  23524090.3594                   23524088.6914
 -15825918.76647 -12309535.34445  21743263.0784                   21743263.5394
 -13262608.88347 -10291053.29745  21468025.2504                   21468023.7664
  -9890509.92245  -7679498.67642  24037796.0704                   24037796.1414
 -19895387.15247 -15481946.21146  20475307.3984                   20475305.1374
 -13673541.55147 -10631040.52344  21815297.5084                   21815296.0084
 -12909091.84446 -10020221.55944  22939755.6254                   22939753.9494
  -9423316.45346  -7282684.33644  21691613.2114                   21691609.2304
 11  8 22  2  2  0.0000000  0  8G10G25G12G26G05G30G29G02
     34809.78146    139185.77043  23548684.5394                   23548683.0204
 -15805838.28947 -12293888.20745  21747084.5474                   21747084.6214
 -13179459.42647 -10226261.53545  21483849.1174                   21483847.0864
  -9958645.92245  -7732591.56642  24024830.6484                   24024830.3714
 -19848506.44947 -15445415.78146  20484228.1954                   20484226.3054
 -13640015.07846 -10604915.98444  21821677.4844                   21821676.0434
 -12964759.54346 -10063598.93044  22929162.6334                   22929160.4964
  -9359414.38347  -7232890.50844  21703773.8754                   21703770.0124
 11  8 22  2  2 30.0000000  0  8G10G25G12G26G05G30G29G02
  -1411181.12146   -987560.41443  23273521.5394                   23273519.7234
 -17360605.05147 -13505394.77745  21451222.0394                   21451222.1484
 -14671274.99646 -11388715.23445  21199965.2734                   21199963.7304
 -11602185.43445  -9013271.63343  23712076.4774                   23712074.9494
 -21376517.79347 -16636073.96146  20193457.2274                   20193455.2854
 -15181322.72747 -11805934.94944  21528376.0084                   21528374.7504
 -14595802.32846 -11334541.34044  22618783.4454                   22618783.2774
 -10870849.62546  -8410632.24644  21416156.9144                   21416152.6134
 11  8 22  2  3  0.0000000  0  8G10G25G12G26G05G30G29G02
  -1281582.85946   -886574.82043  23298183.9064                   23298181.9304
 -17339385.61747 -13488860.15245  21455260.0474                   21455260.3524
 -14587228.29347 -11323224.32045  21215959.0634                   21215956.8134
 -11670285.73845  -9066336.73042  23699115.9844                   23699115.5744
 -21328590.84847 -16598728.28146  20202578.5084                   20202575.7304
 -15146632.72747 -11778903.78544  21534977.9064                   21534976.0514
 -14651379.89546 -11377848.50844  22608208.5634                   22608207.3834
 -10806792.14846  -8360717.33244  21428346.2274                   21428342.4344
 11  8 22  2  3 30.0000000  0  8G10G25G12G26G05G30G29G02
  -1151804.17646   -785448.57843  23322880.2504                   23322878.2664
 -17317589.64847 -13471876.27745  21459407.5864                   21459407.7384
 -14502729.48447 -11257381.10945  21232038.5784                   21232036.6524
 -11738356.10546  -9119378.48442  23686163.5784                   23686161.8954
 -21280135.43447 -16560970.81246  20211798.7114                   20211796.4694
 -15111355.03147 -11751414.66444  21541690.8674                   21541688.7894
 -14706902.69946 -11421112.98844  22597643.7274                   22597641.8874
 -10742650.38347  -8310736.71544  21440553.0944                   21440547.8714
 11  8 22  2  4  0.0000000  0  8G10G25G12G26G05G30G29G02
  -1021858.32846   -684192.04742  23347607.4614                   23347605.3874
 -17295228.25447 -13454451.82445  21463662.9924                   21463662.8554
 -14417791.43047 -11191195.62945  21248202.3984                   21248199.9534
 -11806403.70346  -9172402.48843  23673213.7974                   23673213.0394
 -21231164.05147 -16522811.28146  20221117.1954                   20221115.0204
 -15075501.43447 -11723476.79744  21548513.6334                   21548511.9414
 -14762379.59446 -11464341.70344  22587086.2894                   22587085.0234
 -10678435.14547  -8260698.87544  21452772.6564                   21452767.5784
 11  8 22  2  4 30.0000000  0  8G10G25G12G26G05G30G29G02
   -891735.70345   -582797.87942  23372368.7974                   23372365.9494
 -17272289.16447 -13436577.21145  21468028.0554                   21468028.1684
 -14332404.61347 -11124660.47745  21264450.6564                   21264448.5474
 -11874412.67246  -9225396.43743  23660272.9454                   23660271.1414
 -21181665.79747 -16484241.20346  20230537.0164                   20230534.6174
 -15039060.44547 -11695081.22744  21555447.9534                   21555446.1454
 -14817796.48846 -11507523.66044  22576540.1724                   22576539.1134
 -10614134.26647  -8210594.28545  21465008.3674                   21465004.0004
 11  8 22  2  5  0.0000000  0  8G10G25G12G26G05G30G29G02
   -761439.25845   -481268.09442  23397163.3054                   23397160.7344
 -17248772.85247 -13418252.81645  21472503.1174                   21472503.5514
 -14246571.44547 -11057777.51645  21280784.6884                   21280781.6954
 -11942380.00045  -9278357.94542  23647338.1954                   23647336.8164
 -21131642.18047 -16445261.75846  20240056.0864                   20240053.6214
 -15002033.30547 -11666228.90644  21562493.6024                   21562492.0514
 -14873151.79746 -11550657.62144  22566006.9924                   22566005.2234
 -10549748.23047  -8160423.34044  21477260.8054                   21477256.0824
 11  8 22  2  5 30.0000000  0  8G10G25G12G26G05G30G29G02
   -630970.68045   -379604.30142  23421990.1094                   23421988.7894
 -17224678.41447 -13399477.93745  21477087.8754                   21477088.6884
 -14160292.89847 -10990547.49245  21297202.4694                   21297200.0314
 -12010301.07445  -9331283.39842  23634413.5704                   23634412.2664
 -21081093.55147 -16405873.19945  20249675.0474                   20249672.4804
 -14964419.70347 -11636919.61744  21569651.2664                   21569649.3914
 -14928442.42646 -11593741.18444  22555484.8524                   22555484.3404
 -10485275.84047  -8110185.11744  21489529.2584                   21489525.3204
 11  8 22  2  6  0.0000000  0  8G10G25G12G26G05G30G29G02
   -500336.78945   -277811.78142  23446850.5004                   23446848.6374
 -17200010.23447 -13380255.98445  21481782.0944                   21481782.6484
 -14073575.63747 -10922975.62945  21313704.0394                   21313701.8244
 -12078176.53946  -9384173.35943  23621497.7344                   23621495.7114
 -21030025.44547 -16366079.85546  20259392.7344                   20259390.6414
 -14926224.95747 -11607157.48044  21576919.3204                   21576918.0124
 -14983670.81246 -11636776.24644  22544975.5474                   22544974.2194
 -10420721.75447  -8059883.22345  21501813.6254                   21501809.3834
 11  8 22  2  6 30.0000000  0  8G10G25G12G26G05G30G29G02
   -369538.35945   -175890.95742  23471740.2584                   23471738.2464
 -17174766.63347 -13360585.64145  21486586.6094                   21486586.5634
 -13986419.79347 -10855062.01245  21330289.4304                   21330287.4964
 -12146001.04745  -9437023.50842  23608590.1644                   23608588.8364
 -20978437.38347 -16325881.35945  20269209.6414                   20269207.3634
 -14887448.03147 -11576941.68444  21584298.6724                   21584296.3634
 -15038833.32846 -11679759.95344  22534477.9384                   22534477.0204
 -10356084.09447  -8009516.19944  21514113.9844                   21514109.6524
 11  8 22  2  7  0.0000000  0  8G10G25G12G26G05G30G29G02
   -238584.09445    -73848.68743  23496659.1804                   23496657.3634
 -17148953.92247 -13340471.85545  21491497.9844                   21491498.4844
 -13898834.03947 -10786813.39145  21346956.9774                   21346954.6214
 -12213777.09045  -9489835.94142  23595691.9924                   23595691.6484
 -20926337.23847 -16285283.82846  20279124.1174                   20279121.6094
 -14848096.02347 -11546277.80144  21591787.1024                   21591785.6134
 -15093934.02046 -11722695.51644  22523993.0474                   22523991.6724
 -10291368.87947  -7959088.76644  21526428.2344                   21526424.5084
 11  8 22  2  7 30.0000000  0  9G10G25G12G26G05G15G30G29G02
   -107482.22745     28308.54743  23521607.2974                   23521605.9224
 -17122578.16847 -13319919.31645  21496517.2034                   21496517.3834
 -13810826.48847 -10718236.10245  21363703.7344                   21363702.1414
 -12281506.63746  -9542612.13743  23582803.8674                   23582803.1334
 -20873731.91047 -16244292.65245  20289134.7034                   20289132.0664
  -8098650.15615                  24486982.250
 -14808175.63347 -11515171.00844  21599383.8284                   21599381.6844
 -15148976.40646 -11765585.62144  22513519.6174                   22513517.7664
 -10226582.26247  -7908605.68045  21538756.7734                   21538753.0084
 11  8 22  2  8  0.0000000  0  9G10G25G12G26G05G15G30G29G02
     23775.03145    130586.89142  23546584.9694                   23546583.8834
 -17095629.24647 -13298920.16445  21501645.8984                   21501645.8634
 -13722389.07847 -10649323.85945  21380533.0314                   21380531.0784
 -12349175.78145  -9595341.28542  23569927.8594                   23569926.0984
 -20820612.80547 -16202901.12946  20299242.8914                   20299240.2584
  -8165155.254 5                  24474325.531
 -14767677.67647 -11483614.18444  21607091.1724                   21607088.6724
 -15203948.27746 -11808420.79744  22503057.9614                   22503056.5234
 -10161713.44947  -7858058.55144  21551101.2504                   21551096.8324
 11  8 22  2  8 30.0000000  0  9G10G25G12G26G05G15G30G29G02
    155180.79745    232980.95743  23571590.3594                   23571589.5704
 -17068111.62547 -13277477.86745  21506881.8524                   21506882.2234
 -13633527.92247 -10580081.43045  21397442.9774                   21397440.7384
 -12416785.33645  -9648023.91843  23557061.8674                   23557060.7664
 -20766985.14547 -16161113.34045  20309448.3054                   20309445.9414
  -8231793.461 5                  24461643.875
 -14726607.16047 -11451611.19144  21614906.1564                   21614903.9344
 -15258852.03146 -11851202.89844  22492610.2894                   22492608.4224
 -10096766.72347  -7807450.70345  21563460.5314                   21563455.9844
 11  8 22  2  9  0.0000000  0  9G10G25G12G26G05G15G30G29G02
    286729.73845    335486.64842  23596622.2814                   23596622.5744
 -17040028.71147 -13255595.07445  21512226.1414                   21512226.0234
 -13544249.17647 -10510513.59845  21414432.0944                   21414429.7504
 -12484334.77345  -9700659.79742  23544206.5554                   23544206.7034
 -20712853.56647 -16118932.86745  20319748.7814                   20319746.1484
  -8298564.965 5                  24448937.500
 -14684968.38347 -11419165.41444  21622829.5234                   21622827.5634
 -15313688.69146 -11893932.71444  22482175.3834                   22482173.3874
 -10031745.45347  -7756784.78544  21575833.5084                   21575828.8794
 11  8 22  2  9 30.0000000  0  9G10G25G12G26G05G15G30G29G02
    418428.20345    438108.87142  23621684.4384                   23621683.1914
 -17011371.80547 -13233265.02745  21517678.9614                   21517679.6454
 -13454546.01646 -10440615.05545  21431501.8674                   21431500.1024
 -12551811.37546  -9753238.89542  23531366.8674                   23531366.3444
 -20658210.78547 -16076354.06245  20330147.1724                   20330144.6604
  -8365457.832 5                  24436208.438
 -14642753.31647 -11386270.55945  21630863.0234                   21630860.9924
 -15368447.31246 -11936601.73844  22471755.1804                   22471753.1054
  -9966640.59447  -7706053.72345  21588222.0864                   21588218.0634
 11  8 22  2 10  0.0000000  0  9G10G25G12G26G05G15G30G29G02
    550271.74246    540844.09042  23646774.4924                   23646772.2424
 -16982142.89147 -13210489.26245  21523240.9614                   21523241.3484
 -13364422.39547 -10370388.86745  21448651.7424                   21448649.7384
 -12619213.02746  -9805759.57443  23518540.3134                   23518540.2194
 -20603059.90247 -16033379.33645  20340641.5554                   20340639.0554
  -8432471.42645  -6528180.34453  24423455.7894                   24423453.3204
 -14599964.64147 -11352928.75844  21639005.1094                   21639003.6174
 -15423127.56646 -11979209.69144  22461349.2424                   22461348.3244
  -9901453.85547  -7655258.86344  21600627.0084                   21600622.3594
 11  8 22  2 10 30.0000000  0  9G10G25G12G26G05G15G30G29G02
    682258.75446    643691.07442  23671891.2734                   23671889.4344
 -16952341.67247 -13187267.54345  21528911.8834                   21528912.7704
 -13273879.54746 -10299836.02045  21465881.0554                   21465879.7544
 -12686535.33246  -9858218.41043  23505729.1254                   23505728.7664
 -20547401.66447 -15990009.27045  20351233.1254                   20351230.8914
  -8499602.08245  -6580489.75443  24410681.3054                   24410681.1174
 -14556602.82447 -11319140.34844  21647257.0394                   21647255.0234
 -15477726.41846 -12021754.21544  22450958.9384                   22450957.8954
  -9836184.48047  -7604399.61744  21613047.8134                   21613043.0984
 11  8 22  2 11  0.0000000  0  9G10G25G12G26G05G15G30G29G02
    814378.67645    746641.69942  23697032.6414                   23697030.5354
 -16921976.43747 -13163606.33645  21534690.3594                   21534690.9734
 -13182928.22347 -10228964.87945  21483189.2114                   21483186.6414
 -12753782.64546  -9910618.84843  23492933.0944                   23492932.3484
 -20491245.50447 -15946251.20745  20361919.0004                   20361916.7304
  -8566854.86346  -6632894.36743  24397883.6174                   24397883.6884
 -14512676.97347 -11284912.43444  21655615.6254                   21655613.6254
 -15532250.24646 -12064240.27744  22440583.9694                   22440582.7194
  -9770840.34847  -7553482.11744  21625481.5864                   21625477.3364
 11  8 22  2 11 30.0000000  0  9G10G25G12G26G05G15G30G29G02
    946641.09445    849703.30942  23722200.3364                   23722199.0274
 -16891035.56647 -13139496.57445  21540578.4304                   21540578.9534
 -13091558.62147 -10157767.80145  21500576.2194                   21500574.3484
 -12820939.49246  -9962948.77043  23480152.9144                   23480152.6134
 -20434580.89847 -15902096.96546  20372702.4144                   20372699.4344
  -8634215.59846  -6685383.06642  24385065.4304                   24385064.4104
 -14468176.19547 -11250236.51644  21664083.9774                   21664082.4064
 -15586684.26646 -12106656.36344  22430225.8754                   22430224.0864
  -9705409.00447  -7502496.65245  21637933.4844                   21637928.7234
 11  8 22  2 12  0.0000000  0  9G10G25G12G26G05G15G30G29G02
   1079040.44945    952871.64542  23747396.0784                   23747394.1844
 -16859522.72747 -13114941.12545  21546575.0084                   21546575.6604
 -12999776.56647 -10086249.33645  21518041.4224                   21518039.6374
 -12888005.06246 -10015207.61343  23467391.8524                   23467390.1134
 -20377412.64547 -15857550.25045  20383580.7274                   20383578.4184
  -8701684.39545  -6737955.99642  24372225.8134                   24372225.4304
 -14423104.77047 -11215115.92644  21672660.8594                   21672658.7074
 -15641029.94946 -12149003.60944  22419883.7504                   22419883.1954
  -9639893.99646  -7451445.99644  21650400.2974                   21650396.3364
 11  8 22  2 12 30.0000000  0  9G10G25G12G26G05G15G30G29G02
   1211571.59445   1056142.62542  23772613.9384                   23772615.2934
 -16827441.01247 -13089942.39545  21552679.8524                   21552680.3094
 -12907587.07047 -10014413.37945  21535584.3674                   21535582.8984
 -12954978.47346 -10067394.61743  23454646.8134                   23454645.8984
 -20319745.00447 -15812614.41445  20394554.6884                   20394552.1454
  -8769261.23445  -6790613.14842  24359366.6884                   24359366.0044
 -14377466.71547 -11179553.82044  21681345.1804                   21681343.6294
 -15695287.97746 -12191282.53544  22409559.5314                   22409557.2154
  -9574297.94146  -7400332.18444  21662882.4694                   21662878.6884
 11  8 22  2 13  0.0000000  0  9G10G25G12G26G05G15G30G29G02
   1344235.63745   1159517.24242  23797859.5864                   23797859.9024
 -16794787.22747 -13064497.89145  21558894.2114                   21558894.0164
 -12814988.39847  -9942258.59045  21553205.8914                   21553203.7704
 -13021852.27746 -10119504.00843  23441920.5084                   23441919.8954
 -20261575.80947 -15767287.76245  20405623.6564                   20405621.2464
  -8836939.84045  -6843349.56242  24346487.3524                   24346487.0824
 -14331259.38747 -11143548.11744  21690137.8524                   21690136.6054
 -15749452.27746 -12233488.46544  22399252.0554                   22399250.4574
  -9508616.84846  -7349152.09444  21675380.3834                   21675377.1764
 11  8 22  2 13 30.0000000  0  9G10G25G12G26G05G15G30G29G02
   1477026.25045   1262990.44542  23823129.8594                   23823128.5004
 -16761565.60947 -13038610.93045  21565215.5004                   21565215.6994
 -12721987.50847  -9869790.38345  21570903.5634                   21570901.1564
 -13088626.46546 -10171535.77743  23429213.5784                   23429213.4304
 -20202910.42647 -15721574.45745  20416787.7114                   20416785.3954
  -8904721.18445  -6896166.02042  24333587.4844                   24333588.1844
 -14284487.91047 -11107102.82444  21699038.6174                   21699037.0744
 -15803524.71946 -12275622.78544  22388961.7734                   22388960.6214
  -9442854.48047  -7297908.69144  21687895.3984                   21687891.1604
 11  8 22  2 14  0.0000000  0  9G10G25G12G26G05G15G30G29G02
   1609940.46945   1366560.02042  23848421.9694                   23848420.7664
 -16727777.64847 -13012282.64845  21571645.2274                   21571645.1954
 -12628587.37947  -9797011.07845  21588676.9304                   21588674.5314
 -13155298.31646 -10223487.80543  23416527.4694                   23416525.8284
 -20143751.43747 -15675476.53545  20428044.7584                   20428042.5594
  -8972603.09045  -6949060.87542  24320670.1024                   24320671.2344
 -14237154.40647 -11070219.59444  21708046.3204                   21708044.1914
 -15857503.98446 -12317684.47744  22378690.1644                   22378688.8094
  -9377011.87146  -7246602.76644  21700424.4224                   21700420.7424
 11  8 22  2 14 30.0000000  0  9G10G25G12G26G05G15G30G29G02
   1742974.30146   1470222.74642  23873738.3914                   23873735.4574
 -16693425.14147 -12985514.45345  21578182.3204                   21578183.0164
 -12534791.43747  -9723923.34445  21606525.9064                   21606523.5984
 -13221865.35246 -10275358.15643  23403859.7034                   23403857.9844
 -20084101.62947 -15628996.15245  20439395.8674                   20439393.6214
  -9040584.30945  -7002033.12542  24307735.3134                   24307734.4454
 -14189261.46947 -11032900.43744  21717159.2814                   21717158.4144
 -15911389.34446 -12359673.01644  22368435.9694                   22368434.3754
  -9311089.95346  -7195235.03944  21712969.4924                   21712965.3984
 11  8 22  2 15  0.0000000  0  9G10G25G12G26G05G15G30G29G02
   1876126.53546   1573977.75042  23899075.6804                   23899073.7344
 -16658507.42647 -12958305.84845  21584827.1954                   21584827.2464
 -12440601.34847  -9650528.49245  21624449.2734                   21624447.4104
 -13288322.50445 -10327142.91443  23391213.4774                   23391211.2194
 -20023961.44147 -15582133.66045  20450839.1724                   20450837.6764
  -9108660.42245  -7055079.32042  24294780.2034                   24294780.1564
 -14140809.07447 -10995145.32444  21726379.4774                   21726377.9734
 -15965177.20746 -12401585.58244  22358200.4924                   22358199.2704
  -9245087.48846  -7143804.53444  21725529.4534                   21725524.6994
 11  8 22  2 15 30.0000000  0  9G10G25G12G26G05G15G30G29G02
   2009391.98045   1677820.90242  23924437.0474                   23924433.9694
 -16623028.33647 -12930659.79745  21591578.2504                   21591579.2154
 -12346022.83246  -9576830.97345  21642446.4534                   21642445.0744
 -13354669.29346 -10378841.63743  23378587.3054                   23378586.2194
 -19963335.70747 -15534892.81245  20462376.8594                   20462374.3094
  -9176832.16445  -7108200.04342  24281807.9224                   24281807.1994
 -14091801.91047 -10956957.93044  21735705.3284                   21735704.1524
 -16018868.56646 -12443422.92644  22347983.8754                   22347981.5704
  -9179007.54346  -7092313.68444  21738103.9454                   21738099.5314
 11  8 22  2 16  0.0000000  0  9G10G25G12G26G05G15G30G29G02
   2142766.64546   1781749.23442  23949816.4534                   23949813.6644
 -16586989.73047 -12902577.77345  21598436.2344                   21598436.4494
 -12251059.46946  -9502833.56644  21660518.5474                   21660515.6094
 -13420903.24646 -10430452.46143  23365983.9384                   23365982.6094
 -19902227.39147 -15487275.92645  20474005.8984                   20474003.1134
  -9245098.27345  -7161394.23442  24268815.9304                   24268815.9224
 -14042242.49647 -10918340.20744  21745135.8054                   21745134.5704
 -16072462.69946 -12485184.52744  22337784.5634                   22337783.1214
  -9112851.14546  -7040763.24644  21750693.1564                   21750689.1414
 11  8 22  2 16 30.0000000  0  9G10G25G12G26G05G15G30G29G02
   2276250.72345   1885762.76642  23975216.7894                   23975214.4694
 -16550389.56247 -12874058.14845  21605401.3134                   21605401.5944
 -12155710.75046  -9428535.87945  21678662.5234                   21678659.7114
 -13487017.86745 -10481970.25442  23353402.6644                   23353401.1334
 -19840635.84447 -15439282.50845  20485726.2584                   20485723.9414
  -9313452.57845  -7214657.19542  24255808.4694                   24255807.4924
 -13992129.57447 -10879291.17244  21754672.7194                   21754671.0904
 -16125954.86746 -12526866.65844  22327605.8284                   22327603.7774
  -9046615.35546  -6989150.94544  21763297.0784                   21763292.8834
 11  8 22  2 17  0.0000000  0  9G10G25G12G26G05G15G30G29G02
   2409846.85245   1989863.65642  24000638.9454                   24000638.7274
 -16513223.35247 -12845097.45745  21612473.4774                   21612473.6604
 -12059974.16446  -9353935.96545  21696880.8754                   21696878.1644
 -13553004.16046 -10533388.12142  23340846.2584                   23340844.4384
 -19778556.66847 -15390909.11345  20497539.2194                   20497536.7734
  -9381887.18045  -7267982.74642  24242785.5864                   24242785.3524
 -13941459.27047 -10839807.81644  21764314.6334                   21764313.0984
 -16179337.37546 -12568463.35244  22317447.0234                   22317445.9414
  -8980295.16446  -6937472.87944  21775917.6484                   21775913.3674
 11  8 22  2 17 30.0000000  0  9G10G25G12G26G05G15G30G29G02
   2543549.94945   2094047.87542  24026081.7344                   24026081.4654
 -16475494.79747 -12815698.58245  21619653.2034                   21619653.1214
 -11963855.44947  -9279038.28545  21715171.6174                   21715169.1764
 -13618861.48446 -10584705.43743  23328314.0234                   23328311.6954
 -19715995.12547 -15342159.85545  20509444.7424                   20509442.2854
  -9450402.36345  -7321371.00443  24229748.6564                   24229747.5634
 -13890236.10947 -10799893.67644  21774062.2734                   21774060.8714
 -16232611.12546 -12609975.29744  22307309.0314                   22307308.3014
  -8913893.29746  -6885731.15644  21788553.0944                   21788549.2934
 11  8 22  2 18  0.0000000  0  9G10G25G12G26G05G15G30G29G02
   2677359.352 5                  24051543.891
 -16437203.03547 -12785860.83245  21626939.7894                   21626940.1254
 -11867355.32047  -9203843.39545  21733534.4304                   21733532.4144
 -13684584.53546 -10635918.11743  23315807.5864                   23315804.9804
 -19652951.23047 -15293034.72745  20521441.0554                   20521438.9804
  -9518993.75845  -7374818.76642  24216695.9064                   24216694.9614
 -13838459.93746 -10759548.60244  21783914.7114                   21783913.5744
 -16285772.45746 -12651399.63344  22297193.0704                   22297191.5354
  -8847408.05146  -6833924.46944  21801205.5944                   21801201.0744
 11  8 22  2 18 30.0000000  0  9G10G25G12G26G05G15G30G29G02
   2811264.906 5                  24077024.883
 -16398356.49247 -12755590.80545  21634331.9304                   21634331.6054
 -11770484.35946  -9128359.54745  21751968.5314                   21751966.5044
 -13750176.89846 -10687029.00043  23303325.4144                   23303323.5434
 -19589434.55547 -15243541.20745  20533527.6954                   20533526.0234
  -9587666.08645  -7428329.51242  24203627.4614                   24203627.5514
 -13786139.91846 -10718779.75844  21793870.8134                   21793869.4614
 -16338826.99646 -12692740.76644  22287096.9224                   22287095.4574
  -8780846.92246  -6782058.64544  21813871.2584                   21813866.4614
 11  8 22  2 19  0.0000000  0  9G10G25G12G26G05G15G30G29G02
   2945270.219 5                  24102526.906
 -16358949.83647 -12724884.30945  21641830.6884                   21641831.1134
 -11673238.82847  -9052583.82844  21770474.0004                   21770471.6414
 -13815628.93746 -10738030.53143  23290869.9144                   23290868.2974
 -19525440.77347 -15193675.91845  20545705.7274                   20545703.1214
  -9656410.31645  -7481896.28543  24190546.1334                   24190545.7734
 -13733271.39546 -10677583.49244  21803931.7974                   21803930.0434
 -16391766.41446 -12733992.19944  22277022.5554                   22277021.0084
  -8714203.39146  -6730128.61344  21826553.2584                   21826549.1334
 11  8 22  2 19 30.0000000  0  9G10G25G12G26G05G15G30G29G02
   3079367.586 5                  24128044.570
 -16318989.30547 -12693746.23445  21649435.4924                   21649435.4964
 -11575626.57447  -8976522.35244  21789048.2194                   21789046.9304
 -13880941.92646 -10788923.71543  23278441.3594                   23278439.6214
 -19460977.02047 -15143444.41045  20557972.8524                   20557970.2584
  -9725228.89846  -7535521.00443  24177450.0634                   24177449.8754
 -13679861.38347 -10635965.31644  21814095.1804                   21814093.5474
 -16444593.41446 -12775156.03944  22266970.7344                   22266968.4614
  -8647482.75846  -6678138.49244  21839250.1724                   21839245.0784
 11  8 22  2 20  0.0000000  0  9G10G25G12G26G05G15G30G29G02
   3213554.891 5                  24153580.234
 -16278475.58247 -12662177.09045  21657144.7344                   21657144.8524
 -11477650.30547  -8900177.23445  21807692.5704                   21807690.2734
 -13946112.33646 -10839705.81243  23266039.6334                   23266038.2544
 -19396044.66847 -15092847.77345  20570329.1414                   20570326.5274
  -9794119.16446  -7589201.55943  24164340.8754                   24164340.7344
 -13625911.16447 -10593926.18444  21824361.9454                   21824360.1294
 -16497305.86346 -12816230.60544  22256938.7584                   22256937.5354
  -8580684.78546  -6626088.10945  21851961.0554                   21851956.8834
 11  8 22  2 20 30.0000000  0  9G10G25G12G26G05G15G30G29G02
   3347832.863 5                  24179132.430
 -16237406.51647 -12630175.21545  21664960.0864                   21664960.4924
 -11379309.21946  -8823547.83644  21826406.6884                   21826404.7464
 -14011133.02746 -10890371.19543  23253665.9774                   23253665.1804
 -19330642.77347 -15041885.25445  20582774.3834                   20582772.0744
  -9863074.96946  -7642933.18443  24151218.5944                   24151218.4574
 -13571419.55146 -10551465.19144  21834730.9694                   21834728.9104
 -16549898.54346 -12857211.86344  22246931.7274                   22246929.2814
  -8513806.58646  -6573975.19944  21864687.5634                   21864683.6564
 11  8 22  2 21  0.0000000  0  9G10G25G12G26G05G15G30G29G02
   3482195.172 6                  24204701.727
 -16195786.92647 -12597744.36745  21672879.7114                   21672880.3094
 -11280610.05947  -8746639.42245  21845188.7114                   21845186.6094
 -14076004.15646 -10940920.08243  23241322.8914                   23241321.0204
 -19264777.21947 -14990561.43445  20595307.9694                   20595305.7894
  -9932097.29745  -7696716.66043  24138083.5234                   24138083.6724
 -13516391.77046 -10508586.41844  21845202.8674                   21845200.9844
 -16602373.30946 -12898101.23044  22236945.6174                   22236943.8954
  -8446851.66446  -6521802.53144  21877428.5394                   21877424.8524
 11  8 22  2 21 30.0000000  0  9G10G25G12G26G05G15G30G29G02
   3616639.676 6                  24230284.641
 -16153617.75847 -12564885.26645  21680904.2194                   21680904.6414
 -11181555.34447  -8669453.95345  21864038.4774                   21864036.2274
 -14140721.92246 -10991349.44943  23229005.6564                   23229005.5234
 -19198449.35947 -14938877.37945  20607929.2974                   20607927.2074
 -10001183.14845  -7750549.61743  24124936.2344                   24124936.9454
 -13460829.71547 -10465291.32444  21855775.8834                   21855773.9184
 -16654727.60246 -12938896.73844  22226982.6644                   22226981.0434
  -8379819.67647  -6469569.79344  21890184.6884                   21890179.9344
 11  8 22  2 22  0.0000000  0  9G10G25G12G26G05G15G30G29G02
   3751163.691 6                  24255883.945
 -16110899.96147 -12531598.68045  21689032.5554                   21689033.7584
 -11082147.77047  -8591993.53944  21882954.6174                   21882952.9494
 -14205282.95746 -11041656.73043  23216720.5394                   23216720.0944
 -19131661.30547 -14886834.72745  20620639.3444                   20620636.8794
 -10070330.01245  -7804430.12542  24111778.3444                   24111778.8594
 -13404734.93747 -10421581.11744  21866450.2504                   21866447.8954
 -16706959.38346 -12979596.78544  22217043.2664                   22217041.7974
  -8312710.64147  -6417277.00844  21902954.5164                   21902950.2734
 11  8 22  2 22 30.0000000  0  9G10G25G12G26G05G15G30G29G02
   3885763.477 5                  24281496.523
 -16067636.10547 -12497886.59445  21697266.1254                   21697265.9774
 -10982391.59447  -8514261.47744  21901938.0314                   21901935.6524
 -14269684.66446 -11091839.79743  23204465.8284                   23204463.9384
 -19064416.46547 -14834436.15645  20633435.9304                   20633433.2704
 -10139536.39845  -7858357.05143  24098608.7504                   24098608.8984
 -13348110.76247 -10377458.40244  21877225.6174                   21877223.3164
 -16759067.79346 -13020200.69144  22207128.0474                   22207125.6094
  -8245525.95747  -6364925.29744  21915739.3914                   21915734.9024
 11  8 22  2 23  0.0000000  0  9G10G25G12G26G05G15G30G29G02
   4020441.441 5                  24307125.047
 -16023822.41047 -12463746.05545  21705603.5944                   21705603.6454
 -10882284.75847  -8436256.16844  21920986.7344                   21920984.9494
 -14333918.55945 -11141892.10543  23192242.5004                   23192240.8594
 -18996712.21947 -14781679.58245  20646319.4304                   20646316.6954
 -10208794.49645  -7912324.21543  24085429.6484                   24085428.7544
 -13290954.10946 -10332920.75844  21888101.6484                   21888099.9454
 -16811045.83646 -13060703.02044  22197235.7584                   22197234.2934
  -8178260.36747  -6312510.53944  21928540.4224                   21928534.7854
 11  8 22  2 23 30.0000000  0  9G10G25G12G26G05G15G30G29G02
   4155191.184 5                  24332768.000
 -15979464.04347 -12429181.10245  21714044.3834                   21714044.9494
 -10781833.91447  -8357982.82044  21940102.2194                   21940100.1334
 -14397984.77746 -11191813.79343  23180050.7424                   23180049.3324
 -18928554.34447 -14728569.55145  20659288.9144                   20659286.7544
 -10278105.75845  -7966332.83242  24072239.9384                   24072239.9304
 -13233270.74246 -10287972.69544  21899078.9384                   21899076.8244
 -16862895.46546 -13101105.29344  22187369.8984                   22187368.2344
  -8110918.14146  -6260036.03944  21941354.4304                   21941349.7624
 11  8 22  2 24  0.0000000  0  9G10G25G12G26G05G15G30G29G02
   4290015.180 5                  24358422.734
 -15934557.08247 -12394188.67245  21722590.3524                   21722590.7384
 -10681036.84847  -8279439.67644  21959284.0864                   21959281.3954
 -14461874.93746 -11241598.26243  23167892.6334                   23167891.4104
 -18859939.63347 -14675103.53545  20672346.0634                   20672343.7584
 -10347461.89545  -8020376.45742  24059042.6644                   24059041.7194
 -13175057.55946 -10242611.78544  21910156.2734                   21910154.4694
 -16914609.56246 -13141401.96544  22177528.5704                   22177526.9104
  -8043494.17246  -6207497.87944  21954184.2114                   21954179.8484
 11  8 22  2 24 30.0000000  0  9G10G25G12G26G05G15G30G29G02
   4424912.750 5                  24384093.203
 -15889101.63347 -12358768.86345  21731240.6954                   21731240.6524
 -10579895.18447  -8200628.00844  21978530.6644                   21978527.8324
 -14525583.75446 -11291241.44143  23155769.3134                   23155768.4614
 -18790869.28547 -14621282.47745  20685489.8674                   20685487.3984
 -10416859.25045  -8074452.18442  24045834.7894                   24045835.8554
 -13116315.34446 -10196838.62944  21921334.0634                   21921332.6054
 -16966184.98446 -13181590.55944  22167714.0474                   22167712.3674
  -7975987.14546  -6154894.96144  21967030.3524                   21967026.6764
 11  8 22  2 25  0.0000000  0  9G10G25G12G26G05G15G30G29G02
                                  24409774.664
 -15843106.31247 -12322928.35545  21739993.1804                   21739992.9104
 -10478419.09446  -8121555.76244  21997840.6644                   21997838.3914
 -14589115.25846 -11340746.44943  23143679.5554                   23143678.3404
 -18721352.68747 -14567113.68045  20698718.5164                   20698716.2234
 -10486302.37545  -8128563.56643  24032621.9694                   24032620.5354
 -13057053.39146 -10150660.49644  21932611.6334                   21932610.2194
 -17017626.68446 -13221674.98444  22157925.1484                   22157923.7504
  -7908403.98046  -6102232.73444  21979891.6174                   21979887.6054
 11  8 22  2 25 30.0000000  0  9G10G25G12G26G05G15G30G29G02
   4694898.32014                  24435469.852
 -15796569.60247 -12286666.00445  21748848.5634                   21748848.5474
 -10376608.85546  -8042223.13344  22017214.1724                   22017212.9574
 -14652462.87546 -11390108.17243  23131624.6334                   23131623.8484
 -18651389.10947 -14512596.60545  20712032.1724                   20712029.5904
 -10555785.42646  -8182706.05943  24019398.9144                   24019398.1884
 -12997270.91046 -10104076.74644  21943987.6414                   21943986.9144
 -17068929.66446 -13261651.30144  22148162.4144                   22148161.4534
  -7840742.08246  -6049509.16444  21992766.8284                   21992762.4224
 11  8 22  2 26  0.0000000  0  9G10G25G12G26G05G15G30G29G02
   4829985.71915                  24461176.828
 -15749491.41447 -12249981.71945  21757806.6254                   21757807.3324
 -10274465.92246  -7962631.25444  22036651.6644                   22036649.8014
 -14715621.53146 -11439322.64543  23119605.7974                   23119604.0704
 -18580979.24247 -14457731.75845  20725430.6334                   20725428.1454
 -10625304.49246  -8236876.62943  24006170.1254                   24006169.1294
 -12936968.52346 -10057087.88744  21955462.8754                   21955461.7074
 -17120090.73846 -13301517.02344  22138426.8134                   22138424.9454
  -7773000.16446  -5996723.23444  22005657.8834                   22005653.7734
 11  8 22  2 26 30.0000000  0  9G10G25G12G26G05G15G30G29G02
   4965130.035 5                  24486893.859
 -15701876.56647 -12212879.25845  21766868.5474                   21766867.8754
 -10171996.54346  -7882784.99644  22056150.1644                   22056149.1334
 -14778591.06646 -11488389.77743  23107623.3674                   23107622.1214
 -18510128.61347 -14402523.46545  20738912.6174                   20738910.8134
 -10694860.11746  -8291075.72743  23992934.1024                   23992932.7074
 -12876151.64846 -10009698.12544  21967035.8984                   21967034.5864
 -17171111.23446 -13341273.22744  22128718.5164                   22128716.3134
  -7705181.48446  -5943877.49644  22018564.5474                   22018558.8984
 11  8 22  2 27  0.0000000  0  9G10G25G12G26G05G15G30G29G02
   5100334.492 5                  24512621.734
 -15653720.78147 -12175355.27745  21776031.4924                   21776031.8554
 -10069197.51246  -7802681.87944  22075711.7814                   22075711.0044
 -14841362.24646 -11537302.32043  23095678.7344                   23095677.3404
 -18438833.96547 -14346969.18445  20752479.9454                   20752477.9924
 -10764443.71546  -8345296.60243  23979692.8834                   23979691.4964
 -12814816.71546  -9961904.69144  21978707.6564                   21978705.7734
 -17221983.05546 -13380913.55544  22119037.2424                   22119035.7074
  -7637280.11747  -5890967.32444  22031484.5314                   22031480.4104
 11  8 22  2 27 30.0000000  0  9G10G25G12G26G05G15G30G29G02
   5235591.406 5                  24538361.617
 -15605030.67647 -12137414.94945  21785297.3834                   21785297.0664
  -9966077.70346  -7722328.80144  22095335.6954                   22095333.7114
 -14903936.58646 -11586061.49243  23083770.3674                   23083769.8674
 -18367102.44947 -14291074.48045  20766129.5704                   20766127.8754
 -10834057.97746  -8399541.40243  23966445.0084                   23966443.8364
 -12752971.09047  -9913713.28945  21990476.7114                   21990474.9024
 -17272709.26246 -13420440.43044  22109384.4614                   22109382.9574
  -7569301.48447  -5837996.94544  22044421.1484                   22044416.5704
 11  8 22  2 28  0.0000000  0  9G10G25G12G26G05G15G30G29G02
   5370901.258 5                  24564110.461
 -15555804.74647 -12099057.08245  21794664.1884                   21794664.8134
  -9862636.79746  -7641725.50444  22115019.9304                   22115018.1054
 -14966307.53146 -11634662.17643  23071902.0234                   23071900.5664
 -18294933.14547 -14234838.65245  20779863.4224                   20779860.8554
 -10903697.01646  -8453805.46543  23953193.7664                   23953191.4884
 -12690613.91047  -9865123.29344  22002342.7114                   22002341.3984
 -17323284.76646 -13459849.87144  22099760.1094                   22099758.1294
  -7501242.49647  -5784963.94144  22057371.3914                   22057367.2114
 11  8 22  2 28 30.0000000  0  9G10G25G12G26G05G15G30G29G02
   5506261.738 5                  24589867.883
 -15506044.61747 -12060282.97345  21804133.3444                   21804134.2504
  -9758877.95347  -7560874.48044  22134764.6884                   22134763.0234
 -15028471.60246 -11683101.65243  23060072.4694                   23060071.1094
 -18222328.91847 -14178263.91445  20793679.6254                   20793676.6374
 -10973358.28545  -8508086.89143  23939937.0084                   23939935.4844
 -12627747.46947  -9816136.47744  22014306.0004                   22014304.7114
 -17373707.74246 -13499140.44144  22090165.1804                   22090163.2814
  -7433103.03547  -5731868.24244  22070338.4534                   22070334.0164
 11  8 22  2 29  0.0000000  0  9G10G25G12G26G05G15G30G29G02
   5641671.246 5                  24615635.367
 -15455750.70347 -12021092.91845  21813703.9144                   21813704.4734
  -9654802.85246  -7479777.02744  22154569.0704                   22154567.7934
 -15090423.92246 -11731376.14843  23048282.8914                   23048281.9344
 -18149290.62947 -14121350.94545  20807578.2424                   20807575.5354
 -11043037.73446  -8562382.46543  23926677.4614                   23926675.5784
 -12564372.93047  -9766753.71944  22026365.6884                   22026364.5474
 -17423974.95346 -13538309.64844  22080599.7274                   22080597.6094
  -7364882.04746  -5678709.02344  22083320.4064                   22083315.9494
 11  8 22  2 29 30.0000000  0  9G10G25G12G26G05G15G30G29G02
   5777129.10215                  24641411.430
 -15404922.85247 -11981486.80145  21823376.3754                   21823376.7664
  -9550413.01647  -7398434.30545  22174434.4304                   22174432.6524
 -15152159.24246 -11779481.53943  23036535.6954                   23036534.1644
 -18075819.04747 -14064100.34045  20821559.7274                   20821556.6684
 -11112730.89145  -8616688.71942  23913415.1254                   23913413.9774
 -12500490.64847  -9716975.34044  22038522.7504                   22038520.9184
 -17474082.38346 -13577354.34444  22071064.6254                   22071062.0434
  -7296577.89847  -5625485.00444  22096317.6724                   22096314.0314
 11  8 22  2 30  0.0000000  0  9G10G25G12G26G05G15G30G29G02
   5912632.836 5                  24667198.227
 -15353562.85247 -11941466.02345  21833150.0234                   21833150.2624
  -9445711.39146  -7316848.64545  22194357.8054                   22194356.5164
 -15213674.08246 -11827415.14843  23024828.9614                   23024827.6564
 -18001916.03947 -14006513.55545  20835622.3984                   20835619.7274
 -11182435.25045  -8671003.68743  23900150.3754                   23900149.5554
 -12436103.21147  -9666803.30944  22050774.2034                   22050773.1454
 -17524028.27046 -13616273.16444  22061559.3834                   22061557.7464
  -7228190.48846  -5572196.11344  22109331.6484                   22109327.1054
 11  8 22  2 30 30.0000000  0  9G10G25G12G26G05G15G30G29G02
   6048176.039 5                  24692992.156
 -15301676.46147 -11901035.07445  21843023.0634                   21843024.1644
  -9340705.43046  -7235025.83244  22214340.4844                   22214338.2424
 -15274969.33646 -11875177.62543  23013165.6644                   23013164.6884
 -17927588.60247 -13948596.05545  20849766.8054                   20849764.3674
 -11252152.07445  -8725328.41843  23886884.2974                   23886882.1804
 -12371216.97747  -9616242.62144  22063122.0234                   22063120.6604
 -17573814.84846 -13655067.83644  22052085.7814                   22052084.0124
  -7159724.57046  -5518846.03544  22122360.1954                   22122356.4614
 11  8 22  2 31  0.0000000  0 10G10G25G12G26G05G15G30G29G02G21
                                  24718790.883
 -15249266.11747 -11860195.85245  21852996.9534                   21852997.2504
  -9235398.89546  -7152968.81644  22234379.7114                   22234377.8134
 -15336042.00846 -11922766.62143  23001543.3204                   23001542.6954
 -17852839.58247 -13890350.05545  20863991.1884                   20863988.2584
 -11321879.55145  -8779661.38743  23873614.9224                   23873613.8714
 -12305835.07847  -9565295.69944  22075563.8284                   22075562.8754
 -17623440.75046 -13693737.32444  22042642.4924                   22042640.4534
  -7091180.24646  -5465434.89144  22135403.9304                   22135399.4184
  -7949429.39515                  25301620.852
 11  8 22  2 31 30.0000000  0  9G25G12G26G05G15G30G29G02G21
 -15196335.71147 -11818951.38345  21863069.1414                   21863069.7814
  -9129796.94947  -7070681.61344  22254475.3054                   22254472.6724
 -15396890.59046 -11970181.03543  22989963.6254                   22989963.5594
 -17777673.86347 -13831779.35545  20878294.1724                   20878292.2624
 -11391617.03945  -8834002.20343  23860345.1174                   23860343.1094
 -12239962.05547  -9513966.08644  22088099.0474                   22088098.5354
 -17672905.91846 -13732281.55144  22033229.2894                   22033227.4304
  -7022559.85246  -5411964.46144  22148461.3754                   22148458.1094
  -7978924.691 5                  25296007.188
 11  8 22  2 32  0.0000000  0  9G25G12G26G05G15G30G29G02G21
 -16718303.48847 -13004900.29745  21573448.4454                   21573449.2424
 -10599317.16847  -8215762.30944  21974834.9534                   21974832.7304
 -17032931.96946 -13245018.43443  22678635.3674                   22678634.4344
 -19277509.28947 -15000482.26645  20592885.2734                   20592882.5824
 -13036782.28145 -10115948.99243  23547279.8524                   23547278.9344
 -13749016.38347 -10689852.60244  21800936.1724                   21800934.7814
 -19297628.13347 -14998298.80144  21724055.3984                   21724052.9534
  -8529279.30946  -6586031.59844  21861742.4304                   21861739.2274
  -9583839.703 5                  24990603.375
 11  8 22  2 32 30.0000000  0  9G25G12G26G05G15G30G29G02G21
 -16664331.65647 -12962844.32045  21583719.0474                   21583719.3164
 -10493127.15646  -8133016.87144  21995042.3204                   21995040.5944
 -17093315.55146 -13292070.51243  22667145.6174                   22667143.3874
 -19201510.21547 -14941262.20345  20607347.0084                   20607344.5474
 -13106524.90246 -10170293.75843  23534008.2114                   23534006.7894
 -13682161.81646 -10637758.13744  21813657.9304                   21813656.5904
 -19346759.04347 -15036582.57044  21714705.8444                   21714703.5664
  -8460500.30146  -6532437.58644  21874830.8594                   21874826.7664
  -9613330.14515                  24984992.836
 11  8 22  2 33  0.0000000  0  9G25G12G26G05G15G30G29G02G21
 -16609842.34447 -12920385.11745  21594087.6804                   21594087.7894
 -10386648.50846  -8050046.52044  22015303.4454                   22015302.0944
 -17153461.60946 -13338937.52043  22655700.7424                   22655698.0594
 -19125098.69147 -14881720.74245  20621888.1954                   20621885.7344
 -13176266.41845 -10224637.67643  23520735.7034                   23520735.2584
 -13614820.62946 -10585284.48444  21826471.6724                   21826470.6254
 -19395720.41046 -15074734.23044  21705388.3754                   21705386.4264
  -8391642.44546  -6478782.14544  21887934.7974                   21887930.5984
  -9642819.91415                  24979380.320
 11  8 22  2 33 30.0000000  0  9G25G12G26G05G15G30G29G02G21
 -16554826.01247 -12877515.24245  21604557.2424                   21604557.5234
 -10279872.81346  -7966844.69544  22035622.8674                   22035620.5514
 -17213355.73046 -13385608.19943  22644300.1414                   22644300.3874
 -19048265.81247 -14821850.95345  20636508.7814                   20636506.4844
 -13245993.00046 -10278969.90643  23507467.4924                   23507467.1454
 -13546983.96546 -10532424.77744  21839380.7344                   21839379.7584
 -19444498.75047 -15112743.28544  21696105.9454                   21696103.9774
  -8322694.34846  -6425056.37944  21901055.3594                   21901050.7384
  -9672298.539 5                  24973769.336
 11  8 22  2 34  0.0000000  0  9G25G12G26G05G15G30G29G02G21
 -16499294.93047 -12834244.25445  21615123.9304                   21615124.5904
 -10172813.73046  -7883422.05544  22055996.0474                   22055993.3984
 -17273004.54746 -13432087.73443  22632951.7034                   22632949.6414
 -18971024.69147 -14761663.05945  20651206.9774                   20651204.6254
 -13315711.94146 -10333296.23443  23494200.1484                   23494199.9264
 -13478664.74646 -10479189.03544  21852381.2584                   21852380.4614
 -19493101.88347 -15150615.80544  21686857.2344                   21686855.5234
  -8253666.68447  -6371268.62944  21914190.7584                   21914186.1884
  -9701776.891 5                  24968158.711
 11  8 22  2 34 30.0000000  0  9G25G12G26G05G15G30G29G02G21
 -16443245.69147 -12790569.52745  21625789.8204                   21625790.9694
 -10065468.87946  -7799776.73444  22076423.1024                   22076420.6604
 -17332399.03946 -13478369.10943  22621650.0164                   22621647.0824
 -18893371.93047 -14701154.39845  20665983.8364                   20665981.6994
 -13385415.50046 -10387610.53543  23480936.5084                   23480935.6804
 -13409860.08646 -10425575.02744  21865475.0084                   21865473.5864
 -19541523.48047 -15188346.87144  21677643.4774                   21677640.7114
  -8184553.75847  -6317414.41844  21927342.3524                   21927337.2344
  -9731250.53115                  24962551.734
 11  8 22  2 35  0.0000000  0  9G25G12G26G05G15G30G29G02G21
 -16386687.03947 -12746497.84445  21636552.5784                   21636553.5204
  -9957848.60946  -7715916.81344  22096902.0164                   22096900.1214
 -17391542.95346 -13524455.22743  22610393.8524                   22610392.1254
 -18815317.13347 -14640332.46945  20680837.2114                   20680835.1644
 -13455107.71946 -10441916.05143  23467674.2114                   23467673.1134
 -13340579.65246 -10371590.27044  21878658.2734                   21878657.3594
 -19589767.72747 -15225939.74644  21668462.7664                   21668460.2304
  -8115362.80147  -6263499.41444  21940508.4924                   21940504.4304
  -9760726.89115                  24956940.258
 11  8 22  2 35 30.0000000  0  9G25G12G26G05G15G30G29G02G21
 -16329620.03947 -12702030.04345  21647412.2424                   21647412.7664
  -9849955.09046  -7631843.95744  22117433.1484                   22117431.5514
 -17450431.61746 -13570342.44943  22599188.2274                   22599186.1174
 -18736861.87147 -14579198.48845  20695766.0634                   20695764.3134
 -13524784.60546 -10496209.60943  23454415.6954                   23454414.6414
 -13270824.79746 -10317235.83644  21891932.1724                   21891931.0594
 -19637831.39846 -15263391.90644  21659316.0554                   21659314.0514
  -8046092.56347  -6209522.62144  21953691.2504                   21953686.1254
                                  24951331.484
 11  8 22  2 36  0.0000000  0  9G25G12G26G05G15G30G29G02G21
 -16272039.75447 -12657162.28545  21658368.9614                   21658370.0314
  -9741784.59046  -7547555.28144  22138017.6644                   22138015.8984
 -17509054.73846 -13616022.73443  22588032.3284                   22588030.8324
 -18658001.71547 -14517749.00845  20710773.5944                   20710771.1804
 -13594437.17246 -10550484.20743  23441160.6334                   23441159.7624
 -13200591.39846 -10262508.52044  21905297.4534                   21905296.2544
 -19685705.89847 -15300696.67244  21650205.7584                   21650203.7074
  -7976736.42646  -6155478.90644  21966888.5004                   21966883.6174
  -9819681.879 5                  24945721.281
 11  8 22  2 36 30.0000000  0  9G25G12G26G05G15G30G29G02G21
 -16213951.62147 -12611898.80945  21669423.2814                   21669423.6724
  -9633343.54346  -7463055.79344  22158652.9454                   22158651.3404
 -17567412.18446 -13661496.05144  22576926.8524                   22576925.3914
 -18578742.65247 -14455988.68745  20725855.6174                   20725853.8404
 -13664065.89846 -10604740.23443  23427912.4924                   23427909.4844
 -13129885.41446 -10207412.94544  21918752.3754                   21918751.0704
 -19733392.32446 -15337854.87944  21641130.7974                   21641129.7384
  -7907297.67646  -6101370.78944  21980102.4454                   21980097.4734
  -9849158.551 5                  24940112.867
 11  8 22  2 37  0.0000000  0  9G25G12G26G05G15G30G29G02G21
 -16155357.82047 -12566241.30545  21680573.2114                   21680573.0434
  -9524635.71146  -7378348.43444  22179339.5784                   22179337.2154
 -17625500.72746 -13706759.79743  22565873.0634                   22565871.2114
 -18499087.49247 -14393919.71945  20741013.8134                   20741011.2624
 -13733668.00446 -10658975.54743  23414667.0704                   23414664.1294
 -13058709.73846 -10151951.38744  21932295.7274                   21932295.4104
 -19780889.21146 -15374865.39544  21632092.6644                   21632090.9104
  -7837776.64846  -6047198.55544  21993331.7734                   21993326.8714
  -9878637.109 5                  24934503.625
 11  8 22  2 37 30.0000000  0  9G25G12G26G05G15G30G29G02G21
 -16096260.23447 -12520191.24245  21691819.3444                   21691819.3594
  -9415663.87146  -7293435.32844  22200077.0314                   22200074.0904
 -17683316.64546 -13751811.11343  22554871.5084                   22554870.3204
 -18419038.45747 -14331543.83245  20756246.9534                   20756244.2584
 -13803240.47746 -10713187.74643  23401425.9694                   23401424.8324
 -12987066.85546 -10096125.75444  21945929.2584                   21945928.1884
 -19828194.14546 -15411726.33644  21623091.0704                   21623089.5004
  -7768173.13346  -5992962.05944  22006577.2894                   22006572.2704
  -9908118.230 5                  24928893.422
 11  8 22  2 38  0.0000000  0  9G25G12G26G05G15G30G29G02G21
 -16036658.16847 -12473748.07845  21703161.6094                   21703161.5204
  -9306428.71546  -7208317.03544  22220863.9454                   22220861.1334
 -17740853.89146 -13796645.30143  22543922.8444                   22543921.4574
 -18338595.52747 -14268861.02745  20771554.0864                   20771551.8484
 -13872777.91046 -10767372.69943  23388194.7034                   23388192.2704
 -12914956.64846 -10039935.97744  21959652.2664                   21959650.3324
 -19875302.30547 -15448433.95744  21614126.4144                   21614124.8094
  -7698484.26646  -5938659.02344  22019837.4614                   22019833.6844
  -9937599.79745  -7735440.16852  24923282.7114                   24923281.2424
 11  8 22  2 38 30.0000000  0  9G25G12G26G05G15G30G29G02G21
 -15976553.46147 -12426913.23445  21714598.5554                   21714598.5204
  -9196933.27046  -7122995.92244  22241699.1484                   22241697.5594
 -17798108.65646 -13841259.36743  22533026.3594                   22533026.1174
 -18257760.88347 -14205872.98045  20786936.9304                   20786934.4924
 -13942277.40646 -10821528.07443  23374969.2664                   23374967.0084
 -12842381.60946  -9983384.00844  21973462.3134                   21973460.9144
 -19922211.26647 -15484986.34444  21605200.5944                   21605197.8794
  -7628709.67646  -5884289.19944  22033115.2734                   22033111.0904
  -9967082.16045  -7758413.36742  24917672.1954                   24917671.4224
 11  8 22  2 39  0.0000000  0  9G25G12G26G05G15G30G29G02G21
 -15915952.66447 -12379691.84045  21726130.1884                   21726130.5204
  -9087184.66046  -7037477.56644  22262584.2344                   22262581.8834
 -17855081.80146 -13885653.98443  22522186.3364                   22522183.7154
 -18176541.19547 -14142584.90645  20802392.4534                   20802389.9964
 -14011740.51246 -10875655.08243  23361751.1724                   23361748.7894
 -12769348.86747  -9926475.37544  21987360.6024                   21987358.4264
 -19968923.25046 -15521385.23845  21596311.2114                   21596309.5004
  -7558853.93846  -5829856.13344  22046408.8134                   22046404.7154
  -9996570.53545  -7781391.29742  24912063.3054                   24912059.8324
 11  8 22  2 39 30.0000000  0  9G25G12G26G05G15G30G29G02G21
 -15854854.43447 -12332082.82845  21737757.3834                   21737757.2034
  -8977183.22746  -6951762.17644  22283516.3364                   22283515.0904
 -17911766.55946 -13929823.85943  22511398.2504                   22511397.2814
 -18094935.63347 -14078996.15245  20817921.7034                   20817918.9104
 -14081161.05946 -10929748.93743  23348539.9614                   23348538.6024
 -12695857.69546  -9869209.52344  22001345.4614                   22001343.7234
 -20015432.92247 -15557626.48844  21587460.7034                   21587458.6334
  -7488913.34046  -5775356.94144  22059717.9384                   22059713.8874
 -10026062.60945  -7804372.08242  24906449.5944                   24906447.5434
 11  8 22  2 40  0.0000000  0  9G25G12G26G05G15G30G29G02G21
 -15793265.57847 -12284091.52045  21749477.0314                   21749477.1644
  -8866936.58246  -6865855.72344  22304496.2424                   22304494.3324
 -17968163.98046 -13973769.85943  22500666.8444                   22500664.7704
 -18012951.87547 -14015112.69545  20833522.7344                   20833520.0784
 -14150540.93846 -10983811.09843  23335337.8834                   23335335.9534
 -12621915.42247  -9811592.16044  22015415.8284                   22015414.1054
 -20061742.76247 -15593712.03545  21578647.9224                   21578646.2074
  -7418892.79346  -5720795.45344  22073043.1414                   22073038.4804
 -10055563.34845  -7827359.63742  24900834.4694                   24900833.2704
 11  8 22  2 40 30.0000000  0  9G25G12G26G05G15G30G29G02G21
 -15731184.49247 -12235716.63745  21761290.5554                   21761290.6884
  -8756444.30546  -6779757.85944  22325521.7344                   22325520.1174
 -18024266.87146 -14017486.35943  22489990.5864                   22489989.3094
 -17930588.42647 -13950933.38345  20849195.7034                   20849193.3954
 -14219873.49646 -11037836.37943  23322143.2584                   23322142.2344
 -12547521.11346  -9753622.57844  22029572.2034                   22029570.8984
 -20107846.91847 -15629637.29745  21569875.3284                   21569872.4494
  -7348788.40646  -5666168.64844  22086382.4144                   22086378.8134
 -10085069.92245  -7850351.65642  24895221.7894                   24895218.2154
 11  8 22  2 41  0.0000000  0  9G25G12G26G05G15G30G29G02G21
 -15668611.52347 -12186958.49645  21773197.4534                   21773198.1094
  -8645707.82446  -6693469.70744  22346594.0554                   22346592.4694
 -18080069.71146 -14060969.03943  22479371.5634                   22479369.7854
 -17847846.14547 -13886458.87545  20864940.7584                   20864938.4344
 -14289154.11746 -11091821.20743  23308960.8054                   23308958.2234
 -12472675.63746  -9695301.42244  22043814.9844                   22043813.4694
 -20153741.39847 -15665399.17644  21561141.4924                   21561139.1644
  -7278598.44946  -5611475.14544  22099739.4614                   22099735.5354
 -10114581.51645  -7873347.66042  24889603.6254                   24889601.5904
 11  8 22  2 41 30.0000000  0  9G25G12G26G05G15G30G29G02G21
 -15605551.82447 -12137821.06245  21785198.4774                   21785198.0314
  -8534733.16046  -6606995.94544  22367711.2344                   22367710.6604
 -18135572.21146 -14104217.70344  22468809.9924                   22468808.0744
 -17764730.32447 -13821693.30945  20880757.4694                   20880754.6484
 -14358382.93846 -11145765.65643  23295787.0084                   23295784.5704
 -12397384.73446  -9636633.21144  22058143.1414                   22058141.2034
 -20199427.05547 -15700998.33245  21552447.6484                   21552445.6254
  -7208325.84047  -5556717.25044  22113112.6804                   22113107.5164
 -10144101.67645  -7896350.36342  24883987.5084                   24883984.5274
 11  8 22  2 42  0.0000000  0  9G25G12G26G05G15G30G29G02G21
 -15542002.31347 -12088301.95745  21797290.6254                   21797291.4774
  -8423518.14546  -6520334.90244  22388875.6254                   22388874.0784
 -18190765.70746 -14147225.59043  22458306.2034                   22458305.8874
 -17681238.18047 -13756634.48445  20896645.6094                   20896642.3204
 -14427551.94546 -11199663.48843  23282623.0634                   23282621.7464
 -12321645.96546  -9577615.98044  22072555.7664                   22072553.6174
 -20244896.42246 -15736428.95344  21543795.3284                   21543793.1094
  -7137964.73046  -5501890.38744  22126501.3204                   22126497.3874
 -10173625.69545  -7919355.99642  24878367.8444                   24878366.4534
 11  8 22  2 42 30.0000000  0  9G25G12G26G05G15G30G29G02G21
 -15477972.17647 -12038408.35545  21809475.2814                   21809475.8554
  -8312073.34846  -6433494.82044  22410083.1254                   22410081.9344
 -18245653.50046 -14189995.23044  22447862.2114                   22447860.3054
 -17597379.72347 -13691290.23445  20912603.3674                   20912600.4104
 -14496665.21946 -11253517.94143  23269471.7034                   23269470.1684
 -12245469.05146  -9518257.34444  22087051.5164                   22087050.3914
 -20290154.38747 -15771694.84445  21535182.4694                   21535180.5594
  -7067522.25846  -5447000.12544  22139906.2034                   22139902.0204
 -10203161.46545  -7942370.83242  24872747.3284                   24872745.6764
 11  8 22  2 43  0.0000000  0  9G25G12G26G05G15G30G29G02G21
 -15413459.91447 -11988139.06645  21821751.6954                   21821751.9024
  -8200398.25846  -6346475.29344  22431334.7504                   22431332.6174
 -18300228.46146 -14232521.13344  22437477.1724                   22437475.2114
 -17513153.75447 -13625659.59845  20928631.0314                   20928628.0124
 -14565716.16846 -11307323.78943  23256331.7194                   23256330.0824
 -12168853.07646  -9458556.60244  22101630.4774                   22101629.4104
 -20335195.02047 -15806791.38744  21526611.4454                   21526609.6024
  -6996994.67246  -5392043.54744  22153327.1564                   22153322.7974
 -10232706.02345  -7965392.51642  24867126.3284                   24867123.0124
 11  8 22  2 43 30.0000000  0  9G25G12G26G05G15G30G29G02G21
 -15348466.49247 -11937494.84445  21834119.2424                   21834120.5234
  -8088494.60946  -6259277.65244  22452628.7664                   22452626.5824
 -18354485.78546 -14274799.53544  22427152.3364                   22427150.2424
 -17428561.12547 -13559743.25845  20944728.1334                   20944726.1294
 -14634700.68446 -11361077.89143  23243204.0784                   23243202.9964
 -12091799.52746  -9398514.87944  22116293.4304                   22116292.1764
 -20380014.82047 -15841715.84445  21518082.1804                   21518080.3754
  -6926380.54346  -5337019.53944  22166763.8594                   22166760.0434
 -10262258.63745  -7988420.35242  24861503.6254                   24861499.8324
 11  8 22  2 44  0.0000000  0  9G25G12G26G05G15G30G29G02G21
 -15282997.64147 -11886480.15645  21846577.3834                   21846578.5124
  -7976368.92646  -6171907.00444  22473966.2194                   22473963.9104
 -18408425.46946 -14316830.41444  22416887.4384                   22416885.4614
 -17343607.84847 -13493545.91045  20960894.4614                   20960892.2664
 -14703619.33246 -11414780.63343  23230089.2584                   23230088.6374
 -12014314.68846  -9338137.09443  22131037.6094                   22131036.9414
 -20424615.23847 -15876469.35245  21509595.4614                   21509593.3204
  -6855683.34446  -5281930.78544  22180217.7504                   22180213.6334
 -10291823.46945  -8011457.84042  24855876.6724                   24855872.9964
 11  8 22  2 44 30.0000000  0  9G25G12G26G05G15G30G29G02G21
 -15217053.63347 -11835095.22745  21859126.9304                   21859127.4534
  -7864022.30946  -6084364.20344  22495344.3364                   22495342.3164
 -18462041.99646 -14358609.49644  22406684.8364                   22406683.4964
 -17258295.01247 -13427068.36745  20977128.6484                   20977126.3284
 -14772467.12546 -11468428.19543  23216988.5164                   23216986.8524
 -11936399.54746  -9277424.00444  22145864.9694                   22145864.1604
 -20468992.05547 -15911048.63345  21501150.1724                   21501148.5944
  -6784900.79346  -5226775.53944  22193687.0474                   22193683.1604
 -10321399.40245  -8034503.93442  24850247.6414                   24850244.4104
 11  8 22  2 45  0.0000000  0  9G25G12G26G05G15G30G29G02G21
 -15150634.43047 -11783340.00045  21871765.3284                   21871766.8324
  -7751456.40646  -5996650.52744  22516765.2894                   22516763.1374
 -18515329.41046 -14400132.12543  22396544.8754                   22396542.8984
 -17172622.55947 -13360310.61745  20993431.9614                   20993429.3714
 -14841239.00846 -11522016.61743  23203901.7584                   23203899.7854
 -11858054.40246  -9216375.85544  22160773.5554                   22160772.2074
 -20513140.95347 -15945450.31245  21492749.4224                   21492747.1024
  -6714030.43046  -5171551.86344  22207172.7194                   22207169.2734
 -10350984.58645  -8057557.18442  24844617.8984                   24844614.7074
 11  8 22  2 45 30.0000000  0  9G25G12G26G05G15G30G29G02G21
 -15083747.69947 -11731220.47745  21884494.0394                   21884494.3834
  -7638679.12146  -5908772.12944  22538226.2664                   22538224.2854
 -18568289.97346 -14441400.04744  22386465.8364                   22386465.0864
 -17086598.40647 -13293278.80145  21009801.4924                   21009799.1024
 -14909937.49246 -11575547.80943  23190827.8914                   23190826.6804
 -11779287.54746  -9154999.09844  22175762.4694                   22175761.0904
 -20557064.66447 -15979676.53545  21484391.1724                   21484389.2304
  -6643077.41846  -5116263.80544  22220675.4924                   22220670.9184
 -10380585.16445  -8080622.42242  24838984.7504                   24838982.4694
 11  8 22  2 46  0.0000000  0  9G25G12G26G05G15G30G29G02G21
 -15016389.23047 -11678733.36745  21897311.9774                   21897312.1994
  -7525687.53946  -5820726.75444  22559727.8754                   22559725.3794
 -18620913.30946 -14482405.21544  22376452.0704                   22376450.6174
 -17000218.70747 -13225969.95345  21026239.1024                   21026236.3874
 -14978552.96946 -11629014.32843  23177771.4384                   23177769.0594
 -11700095.38646  -9093290.92644  22190832.2734                   22190830.8714
 -20600754.61747 -16013720.59445  21476077.1484                   21476075.2774
  -6572035.24646  -5060906.25444  22234193.8914                   22234189.5434
 -10410195.20745  -8103695.18842  24833348.9454                   24833348.7384
 11  8 22  2 46 30.0000000  0  9G25G12G26G05G15G30G29G02G21
 -14948564.34847 -11625882.80945  21910218.6094                   21910219.0274
  -7412487.73446  -5732519.14144  22581268.5864                   22581266.9384
 -18673198.89146 -14523147.18744  22366503.1414                   22366501.6054
 -16913488.68047 -13158388.11745  21042743.2734                   21042740.6604
 -15047085.52746 -11682416.27043  23164730.4144                   23164727.6844
 -11620483.63346  -9031255.80944  22205982.1024                   22205980.1884
 -20644211.68047 -16047583.18745  21467807.3834                   21467805.1054
  -6500906.68046  -5005481.41444  22247729.6174                   22247724.8484
 -10439818.68045  -8126778.25842  24827714.0864                   24827711.7544
 11  8 22  2 47  0.0000000  0  9G25G12G26G05G15G30G29G02G21
 -14880273.75047 -11572669.35545  21923213.7274                   21923214.1954
  -7299081.21146  -5644150.43844  22602849.2194                   22602847.1724
 -18725141.87146 -14563622.21544  22356618.1094                   22356616.6914
 -16826409.66847 -13090534.34445  21059313.5474                   21059311.2774
 -15115530.60946 -11735750.00043  23151705.2274                   23151703.1844
 -11540453.69146  -8968894.81244  22221211.9454                   22221210.0984
 -20687432.07847 -16081261.36745  21459583.0784                   21459580.9184
  -6429689.92246  -4949987.84844  22261281.5704                   22261277.1484
 -10469454.40245  -8149870.87142  24822072.6884                   24822072.2894
 11  8 22  2 47 30.0000000  0  9G25G12G26G05G15G30G29G02G21
 -14811519.75447 -11519094.82045  21936297.5634                   21936297.6764
  -7185470.84047  -5555622.89844  22624468.6254                   22624466.5784
 -18776738.41046 -14603827.26244  22346799.8984                   22346797.8444
 -16738983.91847 -13022410.37945  21075950.5314                   21075947.9964
 -15183885.48446 -11789013.47743  23138696.5164                   23138696.0084
 -11460008.28946  -8906210.09444  22236518.9614                   22236517.9224
 -20730413.29347 -16114753.17645  21451403.4064                   21451400.9774
  -6358384.78146  -4894425.41444  22274850.3754                   22274845.8794
 -10499102.92245  -8172973.62142  24816430.2114                   24816429.9654
 11  8 22  2 48  0.0000000  0  9G25G12G26G05G15G30G29G02G21
 -14742308.48447 -11465163.96145  21949467.3284                   21949468.0514
  -7071663.76646  -5466942.06644  22646125.1644                   22646123.5234
 -18827989.07446 -14643762.82444  22337047.3754                   22337045.3794
 -16651217.75847 -12954021.16445  21092651.9384                   21092649.1524
 -15252150.50846 -11842206.91043  23125707.2424                   23125705.1054
 -11379154.12146  -8843206.85944  22251905.9774                   22251904.0314
 -20773156.88747 -16148059.83645  21443269.5004                   21443267.3834
  -6286994.74646  -4838796.82444  22288435.3594                   22288431.0434
 -10528768.820 5                  24810785.102
 11  8 22  2 48 30.0000000  0  9G25G12G26G05G15G30G29G02G21
 -14672629.94947 -11410869.00445  21962727.2424                   21962727.1604
  -6957650.84046  -5378100.87144  22667821.5554                   22667818.9184
 -18878877.85546 -14683416.38344  22327362.9224                   22327361.0744
 -16563101.33247 -12885359.00845  21109419.7274                   21109417.4534
 -15320310.53546 -11895318.55543  23112736.5234                   23112734.7734
 -11297881.66446  -8779877.68444  22267371.4304                   22267369.5634
 -20815648.41847 -16181170.08245  21435184.0634                   21435181.5124
  -6215507.52046  -4783092.50844  22302038.9454                   22302034.1804
 -10558440.395 5                  24805141.781
 11  8 22  2 49  0.0000000  0  9G25G12G26G05G15G30G29G02G21
 -14602496.28547 -11356219.41045  21976073.1254                   21976073.6054
  -6843444.94546  -5289109.29744  22689554.5314                   22689552.1174
 -18929410.87946 -14722792.75844  22317747.0784                   22317745.2274
 -16474646.99647 -12816433.55945  21126251.9454                   21126249.6374
 -15388372.74246 -11948353.96143  23099785.4844                   23099782.9924
 -11216203.61346  -8716232.47744  22282914.6724                   22282912.6994
 -20857895.18747 -16214089.61745  21427144.2974                   21427142.4734
  -6143932.21946  -4727319.57844  22315659.6884                   22315654.9344
 -10588128.195 5                  24799488.047
 11  8 22  2 49 30.0000000  0  9G25G12G26G05G15G30G29G02G21
 -14531909.39547 -11301216.63744  21989504.9534                   21989505.3754
  -6729048.79746  -5199969.50044  22711324.3364                   22711320.7194
 -18979584.32846 -14761888.92244  22308198.9534                   22308197.9494
 -16385856.85947 -12747246.43445  21143148.1954                   21143145.6604
 -15456333.21146 -12001310.12143  23086851.9144                   23086850.6294
 -11134122.37146  -8652273.07444  22298533.5554                   22298532.2504
 -20899894.59047 -16246816.41045  21419152.3914                   21419150.0744
  -6072268.18046  -4671477.48044  22329296.4304                   22329291.4384
 -10617832.063 5                  24793835.813
 11  8 22  2 50  0.0000000  0  9G25G12G26G05G15G30G29G02G21
 -14460873.98047 -11245864.36744  22003022.8524                   22003023.0784
  -6614468.12946  -5110685.87544  22733127.4844                   22733124.7544
 -19029397.14846 -14800704.05544  22298720.2504                   22298718.6094
 -16296735.90247 -12677801.53145  21160107.4064                   21160104.8244
 -15524191.36746 -12054186.53143  23073938.4844                   23073937.2974
 -11051643.20746  -8588003.60944  22314228.6254                   22314227.2234
 -20941646.48847 -16279350.32445  21411207.4064                   21411205.1174
  -6000517.52046  -4615567.88343  22342950.3834                   22342945.1884
 -10647554.848 6                  24788182.094
 11  8 22  2 50 30.0000000  0  9G25G12G26G05G15G30G29G02G21
 -14389387.99647 -11190161.02744  22016626.2894                   22016626.4064
  -6499701.18046  -5021257.11344  22754966.1484                   22754964.5984
 -19078840.97746 -14839231.68744  22289311.3914                   22289309.5394
 -16207281.91847 -12608097.11745  21177129.6804                   21177127.8134
 -15591939.76646 -12106977.42643  23061047.0554                   23061045.1024
 -10968764.47746  -8523422.79744  22330000.3284                   22329999.1294
 -20983144.18747 -16311686.18445  21403310.6954                   21403308.3984
  -5928675.55546  -4559587.14144  22356621.2274                   22356616.0554
 -10677292.50845  -8311821.71953  24782522.6414                   24782520.1994
 11  8 22  2 51  0.0000000  0  9G25G12G26G05G15G30G29G02G21
 -14317455.95347 -11134110.08244  22030314.3284                   22030314.2974
  -6384753.22346  -4931687.32043  22776839.9064                   22776838.0744
 -19127914.63746 -14877470.85544  22279973.2194                   22279971.5664
 -16117499.65647 -12538136.90245  21194214.7114                   21194212.9884
 -15659577.30146 -12159681.93043  23048176.8054                   23048174.3674
 -10885491.16846  -8458534.51644  22345846.7424                   22345844.7114
 -21024387.55547 -16343823.84845  21395462.0394                   21395459.3164
  -5856744.02046  -4503536.62544  22370309.1024                   22370304.7854
 -10707048.38746  -8335008.02742  24776858.7274                   24776857.8984
 11  8 22  2 51 30.0000000  0  9G25G12G26G05G15G30G29G02G21
 -14245078.32447 -11077711.94144  22044086.7974                   22044087.6914
  -6269625.63746  -4841977.53543  22798747.5554                   22798746.1294
 -19176612.73046 -14915417.38744  22270705.7664                   22270703.9614
 -16027389.58247 -12467921.27045  21211362.4144                   21211359.8364
 -15727099.28946 -12212296.40244  23035326.9224                   23035325.9654
 -10801824.40246  -8393339.63744  22361768.4304                   22361766.1334
 -21065372.29747 -16375760.00045  21387662.9304                   21387660.9264
  -5784720.71146  -4447414.59444  22384015.3364                   22384010.0354
 -10736820.72745  -8358207.16442  24771196.2584                   24771192.8874
 11  8 22  2 52  0.0000000  0  9G25G12G26G05G15G30G29G02G21
 -14172258.03547 -11020968.87144  22057944.6414                   22057944.9924
  -6154321.97546  -4752130.53944  22820688.9454                   22820687.3874
 -19224931.96146 -14953068.70344  22261511.6254                   22261509.6214
 -15936954.66447 -12397452.50045  21228571.5164                   21228568.8524
 -15794502.92646 -12264818.66044  23022500.5474                   23022498.6174
 -10717767.37546  -8327840.66844  22377763.2974                   22377761.9964
 -21106096.59047 -16407493.21145  21379913.3364                   21379910.9694
  -5712605.86346  -4391221.20344  22397738.0704                   22397733.3244
 -10766610.72345  -8381420.07842  24765526.4304                   24765523.9344
 11  8 22  2 52 30.0000000  0  9G25G12G26G05G15G30G29G02G21
 -14098997.64846 -10963882.86744  22071884.9614                   22071885.7974
  -6038845.48446  -4662148.90244  22842663.3364                   22842663.2704
 -19272869.21146 -14990422.35944  22252389.6644                   22252386.9224
 -15846197.82847 -12326732.88745  21245842.0234                   21245839.3014
 -15861785.41846 -12317246.51244  23009696.2734                   23009695.0474
 -10633323.28146  -8262040.09444  22393832.5474                   22393830.8674
 -21146558.09847 -16439021.62945  21372214.4534                   21372211.3364
  -5640399.32846  -4334956.38344  22411478.0864                   22411473.9884
 -10796418.59845  -8404646.86742  24759853.2504                   24759851.5044
 11  8 22  2 53  0.0000000  0  9G25G12G26G05G15G30G29G02G21
 -14025303.46147 -10906458.82444  22085908.5944                   22085909.8634
  -5923203.02746  -4572037.94543  22864670.4454                   22864667.9344
 -19320424.64146 -15027478.51244  22243339.5004                   22243337.9264
 -15755125.02347 -12255767.05145  21263172.5084                   21263170.2034
 -15928947.68046 -12369580.68043  22996916.9774                   22996914.4574
 -10548498.87146  -8195943.16444  22409973.7114                   22409972.5314
 -21186758.34447 -16470346.50045  21364564.0944                   21364561.6844
  -5568104.55146  -4278622.82444  22425236.2664                   22425231.7974
 -10826249.18445  -8427891.44142  24754178.0784                   24754173.7424
 11  8 22  2 53 30.0000000  0  9G25G12G26G05G15G30G29G02G21
 -13951176.86746 -10848697.85544  22100015.5314                   22100015.6134
  -5807396.64546  -4481799.27344  22886707.8754                   22886706.2934
 -19367593.77346 -15064233.65244  22234363.2814                   22234361.3634
 -15663738.01247 -12184556.39145  21280562.8524                   21280560.5864
 -15995985.30946 -12421817.75043  22984159.1414                   22984157.3754
 -10463295.98846  -8129551.29744  22426187.8594                   22426185.6914
 -21226693.90247 -16501465.10545  21356964.3284                   21356962.0944
  -5495720.16046  -4222219.42244  22439010.2974                   22439005.5434
 -10856101.82845  -8451153.13342  24748495.7344                   24748492.8404
 11  8 22  2 54  0.0000000  0  9G25G12G26G05G15G30G29G02G21
 -13876619.14847 -10790600.95345  22114203.0944                   22114203.7504
  -5691428.54746  -4391434.55944  22908775.9454                   22908773.7304
 -19414371.94546 -15100684.12544  22225461.4534                   22225460.0164
 -15572037.79747 -12113101.68445  21298013.1414                   21298010.5944
 -16062894.14146 -12473954.43743  22971426.8524                   22971425.4064
 -10377716.43046  -8062865.93844  22442472.9064                   22442471.3164
 -21266361.49247 -16532374.90245  21349415.3444                   21349413.6214
  -5423244.66846  -4165745.00844  22452801.1724                   22452797.1914
 -10885975.80945  -8474431.40242  24742811.5084                   24742808.4574
 11  8 22  2 54 30.0000000  0  9G25G12G26G05G15G30G29G02G21
 -13801635.86747 -10732172.44145  22128471.3674                   22128472.3554
  -5575304.45346  -4300948.25444  22930873.3754                   22930871.2854
 -19460758.60946 -15136829.54744  22216634.8204                   22216632.9104
 -15480029.94547 -12041407.24245  21315521.2734                   21315518.9104
 -16129674.19546 -12525990.78543  22958719.4454                   22958718.1214
 -10291766.13346  -7995891.66444  22458828.4924                   22458826.9734
 -21305761.42247 -16563076.12545  21341918.4774                   21341916.3204
  -5350680.94146  -4109201.87144  22466611.0474                   22466606.3134
 -10915874.62945  -8497729.11342  24737121.4454                   24737118.6844
 11  8 22  2 55  0.0000000  0 10G18G25G12G26G05G15G30G29G02G21
  -9609232.76215                  24665942.500
 -13726226.48847 -10673411.90245  22142821.6414                   22142822.4454
  -5459024.73846  -4210340.71144  22953000.5084                   22952999.6684
 -19506747.52346 -15172665.02344  22207883.3674                   22207881.6804
 -15387714.11747 -11969472.82845  21333089.1254                   21333086.2234
 -16196319.47346 -12577922.11743  22946037.3134                   22946035.0784
 -10205445.07846  -7928628.52343  22475254.0314                   22475253.7464
 -21344888.43047 -16593564.68445  21334473.0944                   21334470.4224
  -5278025.39846  -4052587.17244  22480435.9534                   22480432.0514
 -10945796.09045  -8521044.45742  24731426.6174                   24731424.8794
 11  8 22  2 55 30.0000000  0 10G18G25G12G26G05G15G30G29G02G21
  -9671459.105 5                  24654102.375
 -13650389.58247 -10614318.21945  22157253.2034                   22157253.2114
  -5342588.18846  -4119610.99244  22975158.3134                   22975156.2934
 -19552330.88346 -15208184.48844  22199209.2894                   22199206.9184
 -15295088.83647 -11897297.27045  21350714.6724                   21350711.9924
 -16262822.64146 -12629742.68443  22933381.6884                   22933379.7624
 -10118752.24246  -7861075.68044  22491751.9694                   22491751.4144
 -21383736.20347 -16623835.64145  21327080.1414                   21327077.7734
  -5205273.68046  -3995897.52744  22494280.7504                   22494276.1334
 -10975736.84845  -8544374.81642  24725729.2504                   24725727.9614
 11  8 22  2 56  0.0000000  0 10G18G25G12G26G05G15G30G29G02G21
  -9733516.85945  -7525890.39552  24642292.7034                   24642296.0784
 -13574130.03147 -10554895.19945  22171764.6724                   22171764.9384
  -5226000.32446  -4028763.33244  22997344.4534                   22997342.1884
 -19597507.68046 -15243387.14844  22190612.0864                   22190610.2154
 -15202158.73047 -11824884.18445  21368398.2664                   21368396.0984
 -16329183.12946 -12681452.10543  22920754.7344                   22920752.0434
 -10031692.97346  -7793237.28944  22508318.5634                   22508318.3094
 -21422304.87547 -16653889.13745  21319740.6884                   21319738.8754
  -5132427.81646  -3939134.52744  22508142.3284                   22508138.0004
 -11005699.24245  -8567722.03542  24720027.6254                   24720025.3914
 11  8 22  2 56 30.0000000  0 10G18G25G12G26G05G15G30G29G02G21
  -9795404.59045  -7574114.42242  24630515.9304                   24630516.5824
 -13497450.73847 -10495145.12145  22186356.5784                   22186356.9534
  -5109265.06646  -3937800.80544  23019557.2734                   23019556.0904
 -19642275.18446 -15278270.88344  22182092.9774                   22182091.0744
 -15108926.86747 -11752235.96945  21386139.5864                   21386137.1684
 -16395398.03946 -12733048.09043  22908153.7274                   22908151.8794
  -9944270.67646  -7725116.02744  22524955.0164                   22524953.9694
 -21460592.40647 -16683723.54345  21312454.6414                   21312453.0474
  -5059487.90246  -3882298.25444  22522022.7034                   22522018.1724
 -11035684.39845  -8591087.05142  24714322.2114                   24714320.3244
 11  8 22  2 57  0.0000000  0 10G18G25G12G26G05G15G30G29G02G21
  -9857119.11745  -7622203.50042  24618771.8204                   24618772.7234
 -13420352.02347 -10435068.21945  22201027.2814                   22201028.2704
  -4992382.98046  -3846723.86743  23041799.8594                   23041797.2074
 -19686627.23446 -15312830.88344  22173653.6414                   22173650.9104
 -15015393.51247 -11679352.82045  21403938.9144                   21403936.2624
 -16461462.28146 -12784526.67243  22895581.7894                   22895579.9654
  -9856486.01246  -7656712.40244  22541659.6644                   22541658.9924
 -21498594.17247 -16713335.27345  21305223.3754                   21305221.6134
  -4986451.30946  -3825386.62144  22535920.6724                   22535916.5124
 -11065690.70745  -8614468.43042  24708609.8524                   24708610.4534
 11  8 22  2 57 30.0000000  0 10G18G25G12G26G05G15G30G29G02G21
  -9918658.86745  -7670156.38742  24607059.4384                   24607060.9064
 -13342836.28147 -10374666.35245  22215778.4694                   22215779.1484
  -4875356.82046  -3755534.69543  23064068.7424                   23064067.2854
 -19730560.32046 -15347064.44544  22165293.6024                   22165291.1484
 -14921560.74647 -11606236.37545  21421794.5944                   21421792.1914
 -16527372.55546 -12835885.27043  22883039.7894                   22883037.5554
  -9768341.87546  -7588028.67244  22558433.6094                   22558432.0864
 -21536307.53546 -16742722.27045  21298046.6804                   21298044.7544
  -4913317.10246  -3768398.92244  22549838.3364                   22549832.8984
 -11095718.23845  -8637866.46542  24702899.7344                   24702895.6374
 11  8 22  2 58  0.0000000  0 10G18G25G12G26G05G15G30G29G02G21
  -9980024.09445  -7717973.28142  24595383.9224                   24595383.5704
 -13264907.44147 -10313942.61344  22230608.0944                   22230608.3874
  -4758191.00446  -3664236.69543  23086363.6024                   23086364.1334
 -19774072.52746 -15380970.01644  22157013.1024                   22157011.2384
 -14827432.46147 -11532889.66045  21439706.1884                   21439703.6844
 -16593127.23446 -12887122.63343  22870527.2974                   22870524.6644
  -9679842.60546  -7519068.20344  22575273.9614                   22575273.1484
 -21573731.50047 -16771883.77045  21290924.8914                   21290923.1094
  -4840086.96546  -3711336.47344  22563772.6884                   22563768.7034
 -11125769.23845  -8661282.76642  24697180.0784                   24697176.0164
 11  8 22  2 58 30.0000000  0 10G18G25G12G26G05G15G30G29G02G21
 -10041212.62145  -7765652.54342  24583738.8134                   24583737.8164
 -13186566.89846 -10252898.05944  22245515.6334                   22245516.3554
  -4640887.48846  -3572831.34843  23108686.9774                   23108685.9734
 -19817159.16046 -15414543.98844  22148814.0084                   22148811.7504
 -14733009.98847 -11459313.69545  21457674.5634                   21457672.0904
 -16658721.73846 -12938235.18443  22858044.9924                   22858042.8834
  -9590990.04746  -7449832.46143  22592182.4304                   22592180.7624
 -21610862.27347 -16800816.79745  21283859.3984                   21283857.2234
  -4766759.12146  -3654197.90644  22577727.2504                   22577722.5434
 -11155842.61745  -8684716.52342  24691457.1024                   24691452.9494
 11  8 22  2 59  0.0000000  0 10G18G25G12G26G05G15G30G29G02G21
 -10102228.52345  -7813197.30142  24572128.9454                   24572127.4224
 -13107822.86347 -10191539.09844  22260499.1804                   22260500.8954
  -4523455.18446  -3481325.69543  23131033.5234                   23131032.0634
 -19859822.37146 -15447788.00444  22140695.0394                   22140693.8284
 -14638301.54347 -11385514.89545  21475696.7344                   21475694.4304
 -16724158.42646 -12989224.75044  22845592.1884                   22845590.3914
  -9501792.71946  -7380328.06644  22609155.9924                   22609154.2894
 -21647703.41047 -16829524.14545  21276848.6564                   21276846.9304
  -4693338.51646  -3596987.03944  22591698.1414                   22591693.2464
 -11185944.69145  -8708172.59442  24685729.9774                   24685725.7734
 11  8 22  2 59 30.0000000  0 10G18G25G12G26G05G15G30G29G02G21
 -10163067.64855  -7860604.30152  24560551.4304                   24560549.4384
 -13028674.82447 -10129865.32044  22275561.4924                   22275562.0434
  -4405893.72746  -3389719.37943  23153404.5704                   23153403.2504
 -19902055.62146 -15480696.99644  22132658.2504                   22132656.7034
 -14543306.42247 -11311492.71145  21493773.6564                   21493771.3164
 -16789431.23046 -13040086.61744  22833171.5634                   22833169.8714
  -9412250.58246  -7310554.99244  22626194.3984                   22626193.1054
 -21684249.50047 -16858001.57445  21269894.5084                   21269891.9534
  -4619821.70346  -3539701.20744  22605688.2274                   22605683.4804
 -11216072.41045  -8731648.62942  24679994.5864                   24679993.5044
 11  8 22  3  0  0.0000000  0 10G18G25G12G26G05G15G30G29G02G21
                                  24549008.2664                   24549007.1524
 -12949121.85247 -10067876.00444  22290699.8444                   22290700.5004
  -4288202.80946  -3298012.17643  23175799.5394                   23175798.5944
 -19943851.88746 -15513265.46944  22124705.1804                   22124702.5784
 -14448023.35947 -11237246.15245  21511905.2584                   21511902.9494
 -16854533.43446 -13090815.57444  22820783.3594                   22820780.8554
  -9322363.11346  -7240512.83643  22643300.3674                   22643298.1254
 -21720494.45347 -16886244.35545  21262996.9384                   21262994.5164
  -4546204.75846  -3482337.36344  22619696.7974                   22619692.0594
 -11246223.18846  -8755142.75842  24674256.2894                   24674254.9964
 11  8 22  3  0 30.0000000  0 10G18G25G12G26G05G15G30G29G02G21
 -10284208.95755  -7954999.73452  24537499.2114                   24537497.0634
 -12869176.19147 -10005580.71144  22305912.7274                   22305913.2154
  -4170394.59446  -3206213.61743  23198218.9144                   23198216.9774
 -19985217.47346 -15545498.36744  22116833.3284                   22116830.9844
 -14352464.60247 -11162784.77345  21530089.7974                   21530087.7774
 -16919471.61746 -13141416.70344  22808425.8914                   22808423.2934
  -9232142.94546  -7170211.40244  22660468.3524                   22660466.8524
 -21756445.50847 -16914258.13745  21256155.9614                   21256153.5434
  -4472496.93846  -3424902.70344  22633722.2814                   22633718.4414
 -11276406.82846  -8778662.43442  24668513.1804                   24668511.5124
 11  8 22  3  1  0.0000000  0 10G18G25G12G26G05G15G30G29G02G21
 -10344510.98055  -8001988.10952  24526024.1954                   24526021.2854
 -12788833.20347  -9942975.80544  22321202.2814                   22321201.9534
  -4052465.63346  -3114320.94544  23220659.5704                   23220658.6844
 -20026141.61746 -15577387.27744  22109045.5164                   22109043.6414
 -14256625.36747 -11088104.84445  21548327.3444                   21548324.9924
 -16984235.28946 -13191881.85543  22796100.8984                   22796099.1374
  -9141585.91446  -7099647.53144  22677701.7034                   22677699.5434
 -21792092.77347 -16942035.18745  21249372.4224                   21249370.2544
  -4398690.48446  -3367391.17644  22647767.9924                   22647763.5984
 -11306616.45746  -8802202.31242  24662765.3444                   24662762.6884
 11  8 22  3  1 30.0000000  0 10G18G25G12G26G05G15G30G29G02G21
 -10404627.64145  -8048832.04342  24514582.0164                   24514581.5164
 -12708093.19547  -9880061.52344  22336565.8524                   22336566.0274
  -3934416.30146  -3022334.50843  23243125.1644                   23243122.7074
 -20066618.68746 -15608927.82844  22101342.3834                   22101341.0784
 -14160505.57447 -11013206.29745  21566618.2274                   21566616.0354
 -17048818.98446 -13242206.74744  22783810.3364                   22783809.7854
  -9050692.60946  -7028821.58644  22694997.3364                   22694995.9614
 -21827431.90247 -16969572.14145  21242647.3284                   21242645.3444
  -4324782.69546  -3309800.69544  22661832.8984                   22661828.0704
 -11336849.88746  -8825760.78942  24657011.9774                   24657008.9184
 11  8 22  3  2  0.0000000  0 10G18G25G12G26G05G15G30G29G02G21
 -12039978.14145  -9323131.04342  24203387.9534                   24203384.4734
 -14202374.40647 -11044436.52044  22052214.3754                   22052214.3094
  -5391664.02046  -4157852.23043  22965819.1174                   22965817.2894
 -21682064.98446 -16867717.11744  21793934.0164                   21793932.6294
 -15639522.95747 -12165687.36745  21285170.3594                   21285168.2504
 -18688640.23046 -14519989.48444  22471763.5474                   22471761.7424
 -10534881.40646  -8185332.38344  22412565.2894                   22412564.2774
 -23437879.56247 -18224466.39545  20936189.7504                   20936187.2234
  -5826188.87546  -4479727.58643  22376123.5004                   22376120.5514
 -12942527.55946 -10076938.15242  24351462.3594                   24351457.7424
 11  8 22  3  2 30.0000000  0 10G18G25G12G26G05G15G30G29G02G21
 -12099723.96145  -9369686.15242  24192018.2664                   24192015.2114
 -14120851.68047 -10980912.34044  22067727.5314                   22067727.5124
  -5273386.52046  -4065687.98444  22988326.5704                   22988324.4774
 -21721641.19146 -16898555.69944  21786402.7504                   21786400.7854
 -15542853.00447 -12090360.12545  21303566.4304                   21303563.7074
 -18752857.79346 -14570029.08644  22459543.2584                   22459541.5984
 -10443328.17246  -8113992.21143  22429987.8364                   22429986.2814
 -23472597.99647 -18251519.69545  20929582.7584                   20929580.5554
  -5752080.50046  -4421980.82844  22390226.5004                   22390222.4774
 -12972814.14846 -10100538.00042  24345696.2584                   24345694.2584
 11  8 22  3  3  0.0000000  0 10G18G25G12G26G05G15G30G29G02G21
 -12159281.43045  -9416094.37942  24180682.4774                   24180682.0314
 -14038940.66446 -10917085.58644  22083314.2814                   22083315.2114
  -5154998.00446  -3973437.20344  23010855.1174                   23010853.6564
 -21760760.83246 -16929038.49244  21778958.1094                   21778956.9344
 -15445910.52047 -12014820.53145  21322014.1724                   21322011.2154
 -18816886.53546 -14619921.56644  22447358.5234                   22447356.7854
 -10351448.63746  -8042397.82443  22447471.6094                   22447470.9414
 -23507001.65247 -18278327.71945  20923035.9304                   20923033.6884
  -5677870.20346  -4364154.65244  22404347.8054                   22404343.6844
 -13003126.81346 -10124158.16042  24339929.3054                   24339926.0984
 11  8 22  3  3 30.0000000  0 10G18G25G12G26G05G15G30G29G02G21
 -12218647.91045  -9462353.93442  24169385.8984                   24169384.4804
 -13956642.64146 -10852957.27744  22098975.0234                   22098976.0354
  -5036500.55946  -3881101.57844  23033404.2194                   23033403.2344
 -21799419.42646 -16959162.05144  21771602.3834                   21771599.4964
 -15348696.71547 -11939069.51245  21340513.6024                   21340510.6454
 -18880722.25846 -14669663.62544  22435211.5784                   22435209.2774
 -10259244.37546  -7970550.35943  22465017.3364                   22465016.3914
 -23541086.91847 -18304887.65245  20916549.8284                   20916547.5944
  -5603555.84446  -4306247.38344  22418489.5554                   22418485.5554
 -13033464.66446 -10147797.94942  24334157.3674                   24334152.9804
 11  8 22  3  4  0.0000000  0 10G18G25G12G26G05G15G30G29G02G21
 -12277830.95745  -9508470.43442  24158123.5234                   24158123.1174
 -13873969.11347 -10788536.37144  22114707.2504                   22114708.1484
  -4917905.84046  -3788690.15243  23055972.8914                   23055971.2464
 -21837622.09046 -16988930.32444  21764332.9144                   21764330.0704
 -15251222.95747 -11863115.93845  21359061.3054                   21359059.3014
 -18944370.43746 -14719259.54344  22423099.7814                   22423097.8794
 -10166727.28946  -7898459.16443  22482622.8134                   22482622.4734
 -23574859.66447 -18331204.06245  20910123.1564                   20910120.6684
  -5529145.93846  -4248265.65643  22432648.6804                   22432644.9774
 -13063837.16446 -10171464.71542  24328376.0164                   24328373.0274
 11  8 22  3  4 30.0000000  0 10G18G25G12G26G05G15G30G29G02G21
 -12336821.17645  -9554436.76242  24146897.9694                   24146897.6524
 -13790914.32447 -10723818.36744  22130512.4924                   22130512.8484
  -4799208.28546  -3696198.58244  23078560.7114                   23078558.5164
 -21875357.37946 -17018334.41844  21757151.3054                   21757149.3094
 -15153483.15647 -11786955.04745  21377661.4224                   21377658.3204
 -19007819.48846 -14768700.30944  22411025.5474                   22411023.4384
 -10073891.96546  -7826119.96943  22500287.9144                   22500287.8164
 -23608309.37147 -18357268.74645  20903757.4924                   20903755.5204
  -5454631.70346  -4190202.64844  22446828.7974                   22446824.9024
 -13094236.03545 -10195152.07042  24322592.6484                   24322588.7074
 11  8 22  3  5  0.0000000  0 10G18G25G12G26G05G15G30G29G02G21
 -12395614.23845  -9600249.39542  24135710.1484                   24135709.3014
 -13707477.81346 -10658802.92644  22146389.7504                   22146390.4144
  -4680407.85246  -3603626.84044  23101166.2194                   23101164.7384
 -21912618.64546 -17047369.15644  21750061.4844                   21750059.1174
 -15055476.19147 -11710585.99245  21396311.3674                   21396308.4734
 -19071062.77746 -14817980.73444  22398990.6334                   22398988.9144
  -9980738.29746  -7753532.73443  22518014.9694                   22518014.2234
 -23641430.43047 -18383077.35545  20897455.1644                   20897452.4224
  -5380009.64546  -4132055.62143  22461028.6644                   22461025.3134
 -13124658.09845 -10218857.47742  24316802.1564                   24316799.9414
 11  8 22  3  5 30.0000000  0 10G18G25G12G26G05G15G30G29G02G21
 -12454213.93445  -9645911.30542  24124559.6094                   24124557.8594
 -13623667.44147 -10593496.16444  22162338.2504                   22162338.8634
  -4561513.07046  -3510981.58643  23123792.1564                   23123790.2424
 -21949407.77746 -17076035.99244  21743059.3914                   21743058.0744
 -14957209.85247 -11634014.82045  21415011.0864                   21415008.5164
 -19134102.47146 -14867102.53244  22386994.9144                   22386992.8404
  -9887274.47346  -7680703.81344  22535800.7114                   22535800.2424
 -23674225.71947 -18408632.11745  20891214.3054                   20891211.5554
  -5305284.07046  -4073827.93444  22475248.8054                   22475245.2814
 -13155109.39545 -10242585.66442  24311009.3444                   24311005.1054
 11  8 22  3  6  0.0000000  0 10G18G25G12G26G05G15G30G29G02G21
 -12512625.58645  -9691426.78142  24113443.7344                   24113441.4924
 -13539492.11747 -10527905.02344  22178356.4774                   22178356.5594
  -4442532.85946  -3418269.78143  23146432.9384                   23146432.4144
 -21985727.62146 -17104337.14544  21736148.7894                   21736146.6884
 -14858692.80947 -11557248.30145  21433757.8754                   21433755.3244
 -19196941.69146 -14916068.10244  22375037.0084                   22375034.9224
  -9793509.80546  -7607640.47343  22553643.3054                   22553643.0124
 -23706698.86347 -18433935.85945  20885034.8594                   20885032.3594
  -5230460.94946  -4015524.24644  22489488.2584                   22489483.5944
 -13185596.35245 -10266341.57042  24305206.0554                   24305203.0434
 11  8 22  3  6 30.0000000  0 10G18G25G12G26G05G15G30G29G02G21
 -12570844.88345  -9736792.25042  24102364.3674                   24102362.9414
 -13454951.77747 -10462029.46544  22194444.1954                   22194443.9614
  -4323467.15646  -3325491.31643  23169091.0944                   23169089.3524
 -22021572.25446 -17132268.00844  21729327.8364                   21729325.2304
 -14759924.63747 -11480286.10545  21452552.6644                   21452550.2734
 -19259574.53146 -14964872.85544  22363117.9454                   22363116.0314
  -9699444.59446  -7534342.93844  22571543.5394                   22571543.6484
 -23738844.55547 -18458984.42645  20878917.5084                   20878915.5234
  -5155537.05946  -3957142.00444  22503745.1564                   22503740.7544
 -13216116.40645 -10290123.34442  24299398.4774                   24299395.5314
 11  8 22  3  7  0.0000000  0 10G18G25G12G26G05G15G30G29G02G21
 -12628869.50045  -9782006.06642  24091322.9454                   24091320.9264
 -13370047.98447 -10395870.66844  22210600.5704                   22210600.8674
  -4204317.88745  -3232647.74643  23191763.2034                   23191762.3444
 -22056936.94546 -17159824.87944  21722598.1644                   21722596.3014
 -14660906.43847 -11403129.07045  21471395.0234                   21471392.6884
 -19321996.44946 -15013513.27044  22351239.1884                   22351237.4454
  -9605080.59846  -7460812.56344  22589500.5784                   22589500.3204
 -23770659.02747 -18483774.90245  20872863.8984                   20872861.4064
  -5080510.29346  -3898679.61744  22518022.4924                   22518018.0124
 -13246668.75845 -10313930.23042  24293583.7344                   24293580.9574
 11  8 22  3  7 30.0000000  0 10G18G25G12G26G05G15G30G29G02G21
 -12686698.50045  -9827067.41042  24080318.2974                   24080316.7894
 -13284783.47747 -10329430.82444  22226825.9614                   22226826.7114
  -4085087.90245  -3139741.29743  23214453.1484                   23214450.7154
 -22091818.57446 -17187005.34044  21715959.5084                   21715958.1134
 -14561640.67247 -11325779.14545  21490284.6644                   21490282.2544
 -19384204.12946 -15061986.73044  22339401.5784                   22339399.9414
  -9510421.00046  -7387051.87144  22607513.5784                   22607512.7934
 -23802140.48447 -18508305.89545  20866872.2274                   20866870.2424
  -5005380.56646  -3840136.99244  22532319.4534                   22532314.8914
 -13277253.82845 -10337762.59042  24287763.0554                   24287762.1254
 11  8 22  3  8  0.0000000  0 10G18G25G12G26G05G15G30G29G02G21
 -12744325.55945  -9871971.47742  24069351.8524                   24069350.4184
 -13199155.98847 -10262708.12144  22243120.6884                   22243120.5554
  -3965775.24645  -3046770.37543  23237155.9844                   23237155.0904
 -22126208.99246 -17213803.03144  21709415.2344                   21709413.5864
 -14462124.59847 -11248234.16445  21509222.7114                   21509219.9884
 -19446189.49646 -15110286.96544  22327606.5394                   22327603.9964
  -9415463.82446  -7313059.29344  22625584.4144                   22625582.6644
 -23833281.52747 -18532571.61345  20860946.7734                   20860944.6294
  -4930142.14546  -3781509.67643  22546636.2664                   22546631.9224
 -13307866.69945 -10361616.64542  24281938.4844                   24281936.6804
 11  8 22  3  8 30.0000000  0 10G18G25G12G26G05G15G30G29G02G21
 -12801761.86745  -9916726.89542  24058423.1724                   24058420.6294
 -13113180.38746 -10195714.16844  22259480.7894                   22259481.7384
  -3846394.94545  -2953746.82043  23259872.9924                   23259873.2814
 -22160116.91846 -17240224.77044  21702963.3284                   21702960.9224
 -14362372.80147 -11170505.50845  21528204.5314                   21528201.7234
 -19507961.54346 -15158420.98444  22315851.7894                   22315849.1024
  -9320224.20346  -7238846.61744  22643708.1804                   22643705.6334
 -23864091.26247 -18556579.18445  20855084.2344                   20855081.5944
  -4854806.68046  -3722806.72343  22560972.2114                   22560968.0354
 -13338520.21545 -10385502.37942  24276105.2194                   24276103.5904
 11  8 22  3  9  0.0000000  0 10G18G25G12G26G05G15G30G29G02G21
 -12858995.21946  -9961324.12542  24047530.5704                   24047528.8284
 -13026848.84847 -10128442.84844  22275909.3364                   22275910.4844
  -3726939.51645  -2860664.66843  23282606.2344                   23282604.7704
 -22193528.54746 -17266259.76644  21696605.0164                   21696603.5004
 -14262377.22747 -11092586.88745  21547232.7034                   21547230.3714
 -19569506.32846 -15206377.91044  22304140.5394                   22304137.3714
  -9224694.73046  -7164408.09044  22661886.6174                   22661884.7814
 -23894556.70747 -18580318.46145  20849286.4224                   20849284.3834
  -4779363.03146  -3664019.49643  22575328.1564                   22575323.8444
 -13369203.76245 -10409411.55142  24270265.1644                   24270264.3364
 11  8 22  3  9 30.0000000  0 10G18G25G12G26G05G15G30G29G02G21
 -12916023.15645 -10005761.31642  24036678.8204                   24036675.9414
 -12940162.48446 -10060895.04744  22292404.9304                   22292405.9884
  -3607409.82845  -2767524.67643  23305352.1174                   23305350.5204
 -22226439.06646 -17291904.28944  21690342.3834                   21690340.8364
 -14162138.40247 -11014478.71945  21566307.4924                   21566304.9614
 -19630819.12946 -15254154.05944  22292472.2034                   22292470.0164
  -9128876.78546  -7089744.77344  22680119.0634                   22680118.4494
 -23924673.84047 -18603786.32445  20843555.9534                   20843553.0944
  -4703809.10946  -3605146.31343  22589706.0864                   22589701.9064
 -13399916.12945 -10433343.09042  24264421.3054                   24264419.5944
 11  8 22  3 10  0.0000000  0 10G18G25G12G26G05G15G30G29G02G21
 -12972847.12145 -10050039.59842  24025865.3914                   24025863.3874
 -12853126.80146  -9993075.04344  22308967.4454                   22308968.2234
  -3487811.86346  -2674331.45343  23328111.1884                   23328108.6684
 -22258847.97746 -17317157.94944  21684175.7114                   21684173.4774
 -14061661.28147 -10936184.87945  21585428.2344                   21585425.3554
 -19691899.34046 -15301748.98444  22280849.4614                   22280846.9224
  -9032776.15646  -7014861.18443  22698407.5864                   22698406.2194
 -23954443.28947 -18626983.27345  20837889.9924                   20837888.2274
  -4628147.02346  -3546188.84443  22604103.8054                   22604099.6954
 -13430660.41445 -10457299.60942  24258570.7194                   24258569.1484
 11  8 22  3 10 30.0000000  0 10G18G25G12G26G05G15G30G29G02G21
 -13029474.59845 -10094164.74642  24015088.9454                   24015087.3554
 -12765752.93846  -9924991.51644  22325594.4454                   22325595.0984
  -3368156.86746  -2581093.76643  23350881.1174                   23350878.2424
 -22290760.52746 -17342024.85244  21678102.2664                   21678100.7974
 -13960956.53947 -10857713.66045  21604591.8914                   21604589.0864
 -19752752.45746 -15349166.96144  22269269.0394                   22269267.1414
  -8936404.24246  -6939766.21143  22716745.9774                   22716745.4734
 -23983870.64547 -18649913.64845  20832291.0704                   20832288.4024
  -4552384.40646  -3487153.03543  22618520.9844                   22618517.1604
 -13461445.37945 -10481287.80542  24252713.0474                   24252710.4884
 11  8 22  3 11  0.0000000  0 10G18G25G12G26G05G15G30G29G02G21
 -13085894.91445 -10138128.39542  24004352.6484                   24004352.5164
 -12678034.22346  -9856639.27344  22342286.5394                   22342286.3324
  -3248438.28946  -2487806.57443  23373660.4694                   23373660.8674
 -22322164.02746 -17366495.07844  21672126.6954                   21672124.9184
 -13860017.34847 -10779059.76245  21623800.1484                   21623797.5474
 -19813365.42246 -15396397.78944  22257734.5004                   22257732.8364
  -8839754.76246  -6864454.95743  22735138.5784                   22735137.0354
 -24012944.19147 -18672568.32845  20826757.7504                   20826755.3444
  -4476511.70746  -3428031.45743  22632959.4924                   22632954.9494
 -13492261.62145 -10505300.41042  24246848.9304                   24246845.8164
 11  8 22  3 11 30.0000000  0 10G18G25G12G26G05G15G30G29G02G21
 -13142108.41846 -10181930.95742  23993655.6724                   23993654.8594
 -12589975.46146  -9788022.04744  22359043.5164                   22359044.3094
  -3128660.82446  -2394473.49643  23396454.1954                   23396453.1804
 -22353057.22346 -17390567.65244  21666247.6804                   21666245.6484
 -13758847.93847 -10700226.45745  21643051.3364                   21643049.1844
 -19873737.26646 -15443440.72344  22246245.9774                   22246243.7234
  -8742832.66446  -6788931.27743  22753581.4064                   22753580.5904
 -24041663.57047 -18694947.03545  20821292.8674                   20821290.4224
  -4400530.17246  -3368825.07443  22647417.8444                   22647413.4104
 -13523111.53945 -10529339.17642  24240978.3284                   24240975.2034
 11  8 22  3 12  0.0000000  0 10G18G25G12G26G05G15G30G29G02G21
 -13198116.10246 -10225573.10542  23982997.6254                   23982995.2624
 -12501580.75046  -9719143.06344  22375864.5554                   22375865.0164
  -3008828.40646  -2301097.60543  23419258.4224                   23419256.7584
 -22383438.45346 -17414241.31244  21660465.5164                   21660464.5394
 -13657451.86347 -10621216.53545  21662346.2974                   21662344.2544
 -19933866.01246 -15490294.25844  22234804.0234                   22234802.1604
  -8645642.52746  -6713198.71543  22772076.0004                   22772074.8834
 -24070027.59447 -18717048.84445  20815895.0944                   20815892.7854
  -4324440.44146  -3309534.38743  22661897.6254                   22661893.0434
 -13553996.52746 -10553405.28143  24235100.8364                   24235098.1764
 11  8 22  3 12 30.0000000  0 10G18G25G12G26G05G15G30G29G02G21
 -13253917.66846 -10269054.75042  23972378.6644                   23972375.6054
 -12412854.02346  -9650005.37144  22392748.5004                   22392749.7274
  -2888945.71546  -2207682.52743  23442070.5164                   23442068.9654
 -22413305.50046 -17437514.29344  21654782.2974                   21654780.9104
 -13555832.65247 -10542032.75445  21681683.9144                   21681681.8134
 -19993749.71146 -15536956.83244  22223409.0164                   22223407.0274
  -8548188.49246  -6637260.53043  22790621.5634                   22790620.1174
 -24098035.23447 -18738872.95745  20810565.2664                   20810562.9024
  -4248243.25846  -3250159.96943  22676397.0784                   22676392.7154
 -13584918.18846 -10577500.01642  24229217.4694                   24229214.6914
 11  8 22  3 13  0.0000000  0 10G18G25G12G26G05G15G30G29G02G21
 -13309508.68046 -10312372.27042  23961800.2974                   23961797.6454
 -12323794.70746  -9580608.49244  22409696.2344                   22409697.3324
  -2769011.87146  -2114227.60943  23464893.7034                   23464892.1994
 -22442652.25846 -17460381.85544  21649197.5394                   21649196.3874
 -13453989.03547 -10462674.10245  21701064.0784                   21701061.6914
 -20053381.73846 -15583423.29344  22212060.3914                   22212058.6724
  -8450470.16846  -6561116.40643  22809217.4534                   22809214.3444
 -24125680.30947 -18760414.54745  20805305.0554                   20805302.2704
  -4171934.57846  -3190698.66043  22690918.4534                   22690913.7664
 -13615873.40246 -10601620.86743  24223326.7114                   24223323.4884
 11  8 22  3 13 30.0000000  0 10G18G25G12G26G05G15G30G29G02G21
 -13364894.12946 -10355529.57842  23951260.2664                   23951258.0784
 -12234411.78546  -9510959.49244  22426705.8134                   22426706.3484
  -2649036.17246  -2020740.08243  23487723.8284                   23487722.0944
 -22471481.32046 -17482846.02344  21643712.2424                   21643710.1684
 -13351929.59047 -10383147.27045  21720485.3594                   21720482.9964
 -20112764.89146 -15629695.82044  22200760.6884                   22200758.5044
  -8352496.91046  -6484773.60943  22827859.9454                   22827857.9104
 -24152966.82847 -18781676.74245  20800112.6954                   20800110.2384
  -4095519.99646  -3131154.84843  22705459.9384                   22705455.5204
 -13646868.53146 -10625772.83243  24217428.0784                   24217425.7344
 11  8 22  3 14  0.0000000  0 10G18G25G12G26G05G15G30G29G02G21
 -13420070.82845 -10398524.23042  23940760.8834                   23940759.0354
 -12144705.94946  -9441058.84044  22443775.8524                   22443776.9344
  -2529019.18046  -1927220.36743  23510563.4454                   23510561.0044
 -22499787.69146 -17504902.89144  21638325.5634                   21638323.7114
 -13249654.72347 -10303452.57845  21739947.5084                   21739945.3984
 -20171893.97346 -15675770.38744  22189508.8204                   22189506.7074
  -8254269.59446  -6408232.86343  22846552.3054                   22846549.2274
 -24179890.19947 -18802655.97345  20794989.0704                   20794986.3134
  -4018996.71146  -3071526.32843  22720021.7894                   22720017.9184
 -13677901.47345 -10649954.30943  24211522.9534                   24211520.0084
 11  8 22  3 14 30.0000000  0 10G18G25G12G26G05G15G30G29G02G21
 -13475035.46945 -10441353.70342  23930301.4224                   23930300.0944
 -12054677.82446  -9370907.05544  22460907.6414                   22460908.6804
  -2408961.43046  -1833668.87943  23533408.6484                   23533407.2504
 -22527566.16446 -17526548.41844  21633038.9224                   21633037.6684
 -13147164.21547 -10223589.85245  21759451.2974                   21759448.5164
 -20230763.44546 -15721642.66044  22178306.2504                   22178304.3524
  -8155789.17646  -6331494.86743  22865292.1724                   22865290.1884
 -24206445.79747 -18823348.61345  20789935.4304                   20789932.8634
  -3942362.18846  -3011811.13343  22734604.8444                   22734600.5004
 -13708970.58246 -10674163.94143  24205610.7114                   24205608.1914
 11  8 22  3 15  0.0000000  0 10G18G25G12G26G05G15G30G29G02G21
 -13529784.93445 -10484015.40642  23919881.4304                   23919881.9304
 -11964328.19146  -9300504.76644  22478099.5234                   22478100.9614
  -2288863.67646  -1740086.27043  23556263.0314                   23556260.7194
 -22554811.43446 -17547778.46544  21627854.5704                   21627852.9104
 -13044458.33647 -10143559.32044  21778995.5474                   21778992.8594
 -20289368.18446 -15767308.64844  22167154.4304                   22167152.1414
  -8057056.71146  -6254560.50043  22884079.7424                   22884078.9454
 -24232629.19947 -18843751.25045  20784953.0704                   20784950.3794
  -3865613.51246  -2952006.99644  22749209.3594                   22749205.1804
 -13740073.60246 -10698399.94542  24199691.9064                   24199688.8164
 11  8 22  3 15 30.0000000  0 10G18G25G12G26G05G15G30G29G02G21
 -13584315.11745 -10526506.25042  23909505.3444                   23909504.6484
 -11873656.73846  -9229851.68444  22495354.0474                   22495354.9654
  -2168725.73846  -1646472.30143  23579125.0554                   23579122.1804
 -22581517.60546 -17568588.43044  21622772.7424                   21622771.4964
 -12941536.23046 -10063360.28545  21798581.1024                   21798577.8754
 -20347701.91046 -15812763.44544  22156053.8284                   22156051.4264
  -7958072.04346  -6177429.61343  22902916.9384                   22902915.6134
 -24258434.55147 -18863859.29745  20780042.4614                   20780039.8984
  -3788747.07446  -2892111.08644  22763837.0634                   22763831.6294
 -13771207.64545 -10722660.21542  24193766.5164                   24193763.5044
 11  8 22  3 16  0.0000000  0 10G18G25G12G26G05G15G30G29G02G21
 -13638635.94145 -10568834.03542  23899168.5864                   23899166.5904
 -11782677.25446  -9158958.60244  22512666.6884                   22512668.0164
  -2048561.43446  -1552837.77043  23601991.2664                   23601989.2274
 -22607692.49247 -17588984.41844  21617792.2194                   21617789.9654
 -12838411.16847  -9983003.10545  21818205.2274                   21818202.0664
 -20405772.18746 -15858012.96544  22145002.5634                   22145000.9104
  -7858849.22346  -6100113.18043  22921798.0784                   22921797.4654
 -24283870.78547 -18883679.72345  20775202.3524                   20775199.7974
  -3711773.26646  -2832131.50044  22778485.0234                   22778479.6414
 -13802384.30145 -10746953.62142  24187833.6094                   24187829.8404
 11  8 22  3 16 30.0000000  0 10G18G25G12G26G05G15G30G29G02G21
 -13692747.53945 -10610998.75042  23888871.6564                   23888867.4064
 -11691394.01246  -9087828.80544  22530038.5784                   22530038.7704
  -1928374.94146  -1459186.00043  23624860.3984                   23624859.7194
 -22633334.56247 -17608965.22344  21612912.4384                   21612909.8754
 -12735086.64147  -9902490.48845  21837866.8674                   21837863.8284
 -20463577.25446 -15903055.83644  22134002.8674                   22134000.9104
  -7759392.73046  -6022614.62543  22940723.6334                   22940723.6294
 -24308936.98047 -18903211.80145  20770431.9924                   20770429.5314
  -3634693.12146  -2772069.07044  22793151.8444                   22793148.1954
 -13833605.07846 -10771281.42642  24181892.0234                   24181888.9694
 11  8 22  3 17  0.0000000  0 10G18G25G12G26G05G15G30G29G02G21
 -13746640.87545 -10652993.40642  23878614.7734                   23878611.9494
 -11599801.97346  -9016458.40244  22547467.7974                   22547467.7384
  -1808161.21146  -1365512.97343  23647737.4694                   23647735.3954
 -22658432.97346 -17628522.40244  21608136.8134                   21608133.9614
 -12631557.27747  -9821818.27745  21857567.9534                   21857565.2304
 -20521106.17646 -15947883.51244  22123055.6644                   22123053.3634
  -7659697.88746  -5944930.36743  22959695.6334                   22959695.1764
 -24333622.77747 -18922447.47745  20765734.5164                   20765732.4064
  -3557498.19546  -2711917.17244  22807842.0234                   22807838.3014
 -13864862.38346 -10795637.66442  24175945.1884                   24175940.7194
 11  8 22  3 17 30.0000000  0 10G18G25G12G26G05G15G30G29G02G21
 -13800318.30545 -10694819.77742  23868401.1094                   23868397.6884
 -11507907.08246  -8944852.00844  22564954.8834                   22564954.5004
  -1687925.98446  -1271823.17643  23670617.9614                   23670615.8954
 -22682987.63346 -17647655.86344  21603463.9694                   21603461.7464
 -12527828.13747  -9740990.37545  21877306.6954                   21877304.5314
 -20578358.45746 -15992495.64544  22112160.9454                   22112158.4264
  -7559770.77346  -5867065.07843  22978711.8284                   22978710.0824
 -24357928.81247 -18941387.22745  20761109.1484                   20761107.2424
  -3480190.55946  -2651677.46144  22822553.1954                   22822549.0664
 -13896159.20746 -10820024.73042  24169989.3984                   24169985.8914
 11  8 22  3 18  0.0000000  0 10G18G25G12G26G05G15G30G29G02G21
 -13853778.74645 -10736477.14142  23858228.0554                   23858225.0594
 -11415712.05547  -8873011.74644  22582498.3914                   22582499.2034
  -1567672.06646  -1178118.81343  23693500.3674                   23693499.0354
 -22706995.62946 -17666363.35544  21598894.5234                   21598893.4844
 -12423901.87547  -9660008.88345  21897083.4064                   21897080.9804
 -20635331.28546 -16036890.02344  22101319.1644                   22101317.3554
  -7459614.37546  -5789021.16443  22997770.4064                   22997768.9534
 -24381852.39547 -18960028.96145  20756556.5394                   20756554.1374
  -3402769.94146  -2591349.70343  22837286.5164                   22837281.6884
 -13927495.70346 -10844442.71942  24164025.1334                   24164022.3954
 11  8 22  3 18 30.0000000  0 10G18G25G12G26G05G15G30G29G02G21
 -13907020.94945 -10777964.41043  23848095.1884                   23848093.8134
 -11323219.62947  -8800939.73044  22600099.6564                   22600099.8404
  -1447401.97346  -1084401.84843  23716387.9774                   23716386.5164
 -22730453.93046 -17684642.52744  21594431.2344                   21594429.6214
 -12319780.17647  -9578875.10245  21916897.3204                   21916894.8794
 -20692021.10246 -16081063.84044  22090531.8914                   22090529.2234
  -7359231.60946  -5710800.82843  23016871.6254                   23016870.2544
 -24405391.02347 -18978370.73445  20752077.4614                   20752075.1054
  -3325235.19146  -2530933.01644  22852040.8284                   22852035.5204
 -13958871.68846 -10868891.48042  24158054.1644                   24158052.1024
 11  8 22  3 19  0.0000000  0 10G18G25G12G26G05G15G30G29G02G21
 -13960042.29746 -10819279.60543  23838006.2734                   23838003.7734
 -11230431.18847  -8728637.05544  22617757.0474                   22617756.8874
  -1327117.19546   -990673.47343  23739276.7894                   23739276.1914
 -22753357.98846 -17702489.81644  21590072.3364                   21590070.6174
 -12215463.37947  -9497589.29344  21936747.7894                   21936745.7274
 -20748423.28546 -16125013.56344  22079798.8524                   22079796.4774
  -7258624.02046  -5632405.34043  23036017.0784                   23036016.0514
 -24428540.77347 -18996409.49645  20747672.1024                   20747670.4144
  -3247584.48846  -2470425.96543  22866816.0084                   22866812.0704
 -13990285.96946 -10893370.07443  24152076.8594                   24152073.4924
